<?xml version="1.0" encoding="UTF-8" standalone="no" ?>
<gpx xmlns="http://www.topografix.com/GPX/1/1" xmlns:xsi="http://www.w3.org/2001/XMLSchema-instance" xsi:schemaLocation="http://www.topografix.com/GPX/1/1 http://www.topografix.com/GPX/1/1/gpx.xsd" version="1.1" creator="VisuGPX - https://www.visugpx.com">
  <metadata>
    <name>Tête de l'Enchastraye</name>
    <desc><![CDATA[Argentera, Grange - Tête de l'Enchastraye]]></desc>
  </metadata>
  <trk>
    <name><![CDATA[M_Enchastraye_09 MAR 2019]]></name>
    <trkseg>
      <trkpt lat="44.39844" lon="6.92708">
        <ele>1747.81</ele>
        <time>2019-03-09T07:05:26Z</time>
      </trkpt>
      <trkpt lat="44.39844" lon="6.92709">
        <ele>1747.81</ele>
        <time>2019-03-09T07:05:27Z</time>
      </trkpt>
      <trkpt lat="44.39845" lon="6.92706">
        <ele>1745.41</ele>
        <time>2019-03-09T07:05:33Z</time>
      </trkpt>
      <trkpt lat="44.39845" lon="6.92705">
        <ele>1746.85</ele>
        <time>2019-03-09T07:05:35Z</time>
      </trkpt>
      <trkpt lat="44.39844" lon="6.92706">
        <ele>1745.89</ele>
        <time>2019-03-09T07:05:46Z</time>
      </trkpt>
      <trkpt lat="44.39844" lon="6.92709">
        <ele>1744.93</ele>
        <time>2019-03-09T07:06:02Z</time>
      </trkpt>
      <trkpt lat="44.39845" lon="6.92703">
        <ele>1745.41</ele>
        <time>2019-03-09T07:06:36Z</time>
      </trkpt>
      <trkpt lat="44.39845" lon="6.92704">
        <ele>1746.37</ele>
        <time>2019-03-09T07:07:16Z</time>
      </trkpt>
      <trkpt lat="44.39845" lon="6.92705">
        <ele>1745.89</ele>
        <time>2019-03-09T07:07:53Z</time>
      </trkpt>
      <trkpt lat="44.39844" lon="6.92701">
        <ele>1745.89</ele>
        <time>2019-03-09T07:08:22Z</time>
      </trkpt>
      <trkpt lat="44.39844" lon="6.92701">
        <ele>1745.89</ele>
        <time>2019-03-09T07:08:57Z</time>
      </trkpt>
      <trkpt lat="44.39846" lon="6.92702">
        <ele>1745.89</ele>
        <time>2019-03-09T07:09:28Z</time>
      </trkpt>
      <trkpt lat="44.39845" lon="6.92702">
        <ele>1746.37</ele>
        <time>2019-03-09T07:09:59Z</time>
      </trkpt>
      <trkpt lat="44.39845" lon="6.92702">
        <ele>1745.89</ele>
        <time>2019-03-09T07:10:34Z</time>
      </trkpt>
      <trkpt lat="44.39846" lon="6.92702">
        <ele>1745.89</ele>
        <time>2019-03-09T07:11:09Z</time>
      </trkpt>
      <trkpt lat="44.39844" lon="6.92705">
        <ele>1745.41</ele>
        <time>2019-03-09T07:11:42Z</time>
      </trkpt>
      <trkpt lat="44.39847" lon="6.92705">
        <ele>1746.37</ele>
        <time>2019-03-09T07:12:05Z</time>
      </trkpt>
      <trkpt lat="44.39842" lon="6.92708">
        <ele>1745.89</ele>
        <time>2019-03-09T07:12:44Z</time>
      </trkpt>
      <trkpt lat="44.3984" lon="6.9271">
        <ele>1745.89</ele>
        <time>2019-03-09T07:13:21Z</time>
      </trkpt>
      <trkpt lat="44.39845" lon="6.92706">
        <ele>1745.41</ele>
        <time>2019-03-09T07:14:04Z</time>
      </trkpt>
      <trkpt lat="44.39844" lon="6.92705">
        <ele>1745.41</ele>
        <time>2019-03-09T07:14:46Z</time>
      </trkpt>
      <trkpt lat="44.39845" lon="6.92705">
        <ele>1744.93</ele>
        <time>2019-03-09T07:15:09Z</time>
      </trkpt>
      <trkpt lat="44.39846" lon="6.92707">
        <ele>1746.37</ele>
        <time>2019-03-09T07:16:07Z</time>
      </trkpt>
      <trkpt lat="44.39845" lon="6.92707">
        <ele>1747.81</ele>
        <time>2019-03-09T07:16:34Z</time>
      </trkpt>
      <trkpt lat="44.39847" lon="6.92708">
        <ele>1745.89</ele>
        <time>2019-03-09T07:16:55Z</time>
      </trkpt>
      <trkpt lat="44.39847" lon="6.92707">
        <ele>1747.81</ele>
        <time>2019-03-09T07:17:37Z</time>
      </trkpt>
      <trkpt lat="44.39847" lon="6.92707">
        <ele>1747.33</ele>
        <time>2019-03-09T07:17:38Z</time>
      </trkpt>
      <trkpt lat="44.39849" lon="6.92708">
        <ele>1746.85</ele>
        <time>2019-03-09T07:18:13Z</time>
      </trkpt>
      <trkpt lat="44.39848" lon="6.92709">
        <ele>1747.81</ele>
        <time>2019-03-09T07:18:42Z</time>
      </trkpt>
      <trkpt lat="44.39848" lon="6.92707">
        <ele>1747.81</ele>
        <time>2019-03-09T07:19:09Z</time>
      </trkpt>
      <trkpt lat="44.39847" lon="6.92704">
        <ele>1749.26</ele>
        <time>2019-03-09T07:19:24Z</time>
      </trkpt>
      <trkpt lat="44.39845" lon="6.92696">
        <ele>1749.26</ele>
        <time>2019-03-09T07:19:33Z</time>
      </trkpt>
      <trkpt lat="44.39847" lon="6.92694">
        <ele>1750.22</ele>
        <time>2019-03-09T07:19:35Z</time>
      </trkpt>
      <trkpt lat="44.39847" lon="6.9269">
        <ele>1750.22</ele>
        <time>2019-03-09T07:19:37Z</time>
      </trkpt>
      <trkpt lat="44.39846" lon="6.92688">
        <ele>1751.66</ele>
        <time>2019-03-09T07:19:38Z</time>
      </trkpt>
      <trkpt lat="44.39846" lon="6.92687">
        <ele>1749.74</ele>
        <time>2019-03-09T07:19:39Z</time>
      </trkpt>
      <trkpt lat="44.39847" lon="6.92683">
        <ele>1750.22</ele>
        <time>2019-03-09T07:19:41Z</time>
      </trkpt>
      <trkpt lat="44.39853" lon="6.92675">
        <ele>1751.66</ele>
        <time>2019-03-09T07:19:48Z</time>
      </trkpt>
      <trkpt lat="44.39864" lon="6.9266">
        <ele>1751.66</ele>
        <time>2019-03-09T07:20:03Z</time>
      </trkpt>
      <trkpt lat="44.39866" lon="6.92654">
        <ele>1751.66</ele>
        <time>2019-03-09T07:20:16Z</time>
      </trkpt>
      <trkpt lat="44.39868" lon="6.9265">
        <ele>1752.14</ele>
        <time>2019-03-09T07:20:19Z</time>
      </trkpt>
      <trkpt lat="44.39866" lon="6.92625">
        <ele>1752.62</ele>
        <time>2019-03-09T07:20:35Z</time>
      </trkpt>
      <trkpt lat="44.39869" lon="6.92597">
        <ele>1752.62</ele>
        <time>2019-03-09T07:20:53Z</time>
      </trkpt>
      <trkpt lat="44.39876" lon="6.92583">
        <ele>1752.14</ele>
        <time>2019-03-09T07:21:07Z</time>
      </trkpt>
      <trkpt lat="44.39877" lon="6.92577">
        <ele>1752.14</ele>
        <time>2019-03-09T07:21:11Z</time>
      </trkpt>
      <trkpt lat="44.39872" lon="6.92567">
        <ele>1752.14</ele>
        <time>2019-03-09T07:21:24Z</time>
      </trkpt>
      <trkpt lat="44.39871" lon="6.92566">
        <ele>1752.62</ele>
        <time>2019-03-09T07:21:26Z</time>
      </trkpt>
      <trkpt lat="44.39868" lon="6.92564">
        <ele>1752.62</ele>
        <time>2019-03-09T07:21:33Z</time>
      </trkpt>
      <trkpt lat="44.3986" lon="6.92555">
        <ele>1753.58</ele>
        <time>2019-03-09T07:21:46Z</time>
      </trkpt>
      <trkpt lat="44.39857" lon="6.92545">
        <ele>1755.02</ele>
        <time>2019-03-09T07:21:55Z</time>
      </trkpt>
      <trkpt lat="44.39863" lon="6.92531">
        <ele>1756.47</ele>
        <time>2019-03-09T07:22:08Z</time>
      </trkpt>
      <trkpt lat="44.39869" lon="6.92523">
        <ele>1755.99</ele>
        <time>2019-03-09T07:22:16Z</time>
      </trkpt>
      <trkpt lat="44.39871" lon="6.92511">
        <ele>1756.95</ele>
        <time>2019-03-09T07:22:27Z</time>
      </trkpt>
      <trkpt lat="44.39867" lon="6.925">
        <ele>1757.91</ele>
        <time>2019-03-09T07:22:38Z</time>
      </trkpt>
      <trkpt lat="44.39861" lon="6.92491">
        <ele>1757.43</ele>
        <time>2019-03-09T07:22:48Z</time>
      </trkpt>
      <trkpt lat="44.39851" lon="6.92485">
        <ele>1758.87</ele>
        <time>2019-03-09T07:23:00Z</time>
      </trkpt>
      <trkpt lat="44.39843" lon="6.92473">
        <ele>1757.91</ele>
        <time>2019-03-09T07:23:13Z</time>
      </trkpt>
      <trkpt lat="44.39836" lon="6.92468">
        <ele>1758.39</ele>
        <time>2019-03-09T07:23:25Z</time>
      </trkpt>
      <trkpt lat="44.39833" lon="6.92468">
        <ele>1758.87</ele>
        <time>2019-03-09T07:23:31Z</time>
      </trkpt>
      <trkpt lat="44.39838" lon="6.92459">
        <ele>1759.35</ele>
        <time>2019-03-09T07:23:43Z</time>
      </trkpt>
      <trkpt lat="44.39835" lon="6.92458">
        <ele>1759.83</ele>
        <time>2019-03-09T07:23:55Z</time>
      </trkpt>
      <trkpt lat="44.39841" lon="6.92457">
        <ele>1758.87</ele>
        <time>2019-03-09T07:24:11Z</time>
      </trkpt>
      <trkpt lat="44.39846" lon="6.92459">
        <ele>1758.39</ele>
        <time>2019-03-09T07:24:46Z</time>
      </trkpt>
      <trkpt lat="44.39837" lon="6.92464">
        <ele>1758.39</ele>
        <time>2019-03-09T07:25:07Z</time>
      </trkpt>
      <trkpt lat="44.39837" lon="6.92464">
        <ele>1759.35</ele>
        <time>2019-03-09T07:25:35Z</time>
      </trkpt>
      <trkpt lat="44.39838" lon="6.92464">
        <ele>1759.83</ele>
        <time>2019-03-09T07:26:01Z</time>
      </trkpt>
      <trkpt lat="44.39836" lon="6.92457">
        <ele>1760.31</ele>
        <time>2019-03-09T07:26:13Z</time>
      </trkpt>
      <trkpt lat="44.39834" lon="6.92456">
        <ele>1760.79</ele>
        <time>2019-03-09T07:26:18Z</time>
      </trkpt>
      <trkpt lat="44.39828" lon="6.92444">
        <ele>1762.23</ele>
        <time>2019-03-09T07:26:32Z</time>
      </trkpt>
      <trkpt lat="44.39825" lon="6.92434">
        <ele>1763.2</ele>
        <time>2019-03-09T07:26:48Z</time>
      </trkpt>
      <trkpt lat="44.39819" lon="6.92426">
        <ele>1765.12</ele>
        <time>2019-03-09T07:27:01Z</time>
      </trkpt>
      <trkpt lat="44.39813" lon="6.92412">
        <ele>1766.08</ele>
        <time>2019-03-09T07:27:17Z</time>
      </trkpt>
      <trkpt lat="44.39812" lon="6.92402">
        <ele>1767.04</ele>
        <time>2019-03-09T07:27:35Z</time>
      </trkpt>
      <trkpt lat="44.3981" lon="6.92384">
        <ele>1767.52</ele>
        <time>2019-03-09T07:27:49Z</time>
      </trkpt>
      <trkpt lat="44.39806" lon="6.92374">
        <ele>1769.44</ele>
        <time>2019-03-09T07:28:02Z</time>
      </trkpt>
      <trkpt lat="44.398" lon="6.9236">
        <ele>1770.89</ele>
        <time>2019-03-09T07:28:17Z</time>
      </trkpt>
      <trkpt lat="44.39799" lon="6.92358">
        <ele>1770.89</ele>
        <time>2019-03-09T07:28:19Z</time>
      </trkpt>
      <trkpt lat="44.39796" lon="6.92342">
        <ele>1772.33</ele>
        <time>2019-03-09T07:28:33Z</time>
      </trkpt>
      <trkpt lat="44.39789" lon="6.9233">
        <ele>1774.25</ele>
        <time>2019-03-09T07:28:47Z</time>
      </trkpt>
      <trkpt lat="44.39781" lon="6.92315">
        <ele>1774.73</ele>
        <time>2019-03-09T07:29:01Z</time>
      </trkpt>
      <trkpt lat="44.39773" lon="6.92305">
        <ele>1776.65</ele>
        <time>2019-03-09T07:29:14Z</time>
      </trkpt>
      <trkpt lat="44.39773" lon="6.92291">
        <ele>1778.1</ele>
        <time>2019-03-09T07:29:28Z</time>
      </trkpt>
      <trkpt lat="44.39767" lon="6.92277">
        <ele>1779.54</ele>
        <time>2019-03-09T07:29:43Z</time>
      </trkpt>
      <trkpt lat="44.39765" lon="6.92275">
        <ele>1780.5</ele>
        <time>2019-03-09T07:29:46Z</time>
      </trkpt>
      <trkpt lat="44.39759" lon="6.92263">
        <ele>1782.9</ele>
        <time>2019-03-09T07:30:00Z</time>
      </trkpt>
      <trkpt lat="44.39756" lon="6.92249">
        <ele>1783.38</ele>
        <time>2019-03-09T07:30:13Z</time>
      </trkpt>
      <trkpt lat="44.39754" lon="6.9224">
        <ele>1783.86</ele>
        <time>2019-03-09T07:30:27Z</time>
      </trkpt>
      <trkpt lat="44.39754" lon="6.92223">
        <ele>1785.31</ele>
        <time>2019-03-09T07:30:41Z</time>
      </trkpt>
      <trkpt lat="44.39753" lon="6.92209">
        <ele>1787.23</ele>
        <time>2019-03-09T07:30:55Z</time>
      </trkpt>
      <trkpt lat="44.39751" lon="6.92194">
        <ele>1787.71</ele>
        <time>2019-03-09T07:31:08Z</time>
      </trkpt>
      <trkpt lat="44.39749" lon="6.92179">
        <ele>1788.67</ele>
        <time>2019-03-09T07:31:21Z</time>
      </trkpt>
      <trkpt lat="44.39744" lon="6.92167">
        <ele>1790.11</ele>
        <time>2019-03-09T07:31:34Z</time>
      </trkpt>
      <trkpt lat="44.39742" lon="6.92156">
        <ele>1793.48</ele>
        <time>2019-03-09T07:31:45Z</time>
      </trkpt>
      <trkpt lat="44.39736" lon="6.92143">
        <ele>1793.96</ele>
        <time>2019-03-09T07:32:01Z</time>
      </trkpt>
      <trkpt lat="44.39731" lon="6.92135">
        <ele>1796.36</ele>
        <time>2019-03-09T07:32:14Z</time>
      </trkpt>
      <trkpt lat="44.39726" lon="6.92123">
        <ele>1797.32</ele>
        <time>2019-03-09T07:32:27Z</time>
      </trkpt>
      <trkpt lat="44.39718" lon="6.92113">
        <ele>1798.28</ele>
        <time>2019-03-09T07:32:41Z</time>
      </trkpt>
      <trkpt lat="44.39713" lon="6.92107">
        <ele>1801.65</ele>
        <time>2019-03-09T07:32:51Z</time>
      </trkpt>
      <trkpt lat="44.39707" lon="6.92095">
        <ele>1802.13</ele>
        <time>2019-03-09T07:33:07Z</time>
      </trkpt>
      <trkpt lat="44.39703" lon="6.92088">
        <ele>1803.57</ele>
        <time>2019-03-09T07:33:18Z</time>
      </trkpt>
      <trkpt lat="44.39694" lon="6.92078">
        <ele>1806.45</ele>
        <time>2019-03-09T07:33:33Z</time>
      </trkpt>
      <trkpt lat="44.39687" lon="6.92069">
        <ele>1806.45</ele>
        <time>2019-03-09T07:33:47Z</time>
      </trkpt>
      <trkpt lat="44.3968" lon="6.92066">
        <ele>1808.38</ele>
        <time>2019-03-09T07:34:00Z</time>
      </trkpt>
      <trkpt lat="44.39675" lon="6.92057">
        <ele>1811.74</ele>
        <time>2019-03-09T07:34:12Z</time>
      </trkpt>
      <trkpt lat="44.39667" lon="6.92048">
        <ele>1814.15</ele>
        <time>2019-03-09T07:34:27Z</time>
      </trkpt>
      <trkpt lat="44.3966" lon="6.92039">
        <ele>1816.07</ele>
        <time>2019-03-09T07:34:41Z</time>
      </trkpt>
      <trkpt lat="44.39653" lon="6.92035">
        <ele>1816.07</ele>
        <time>2019-03-09T07:34:56Z</time>
      </trkpt>
      <trkpt lat="44.39646" lon="6.92027">
        <ele>1816.07</ele>
        <time>2019-03-09T07:35:08Z</time>
      </trkpt>
      <trkpt lat="44.39639" lon="6.92022">
        <ele>1817.51</ele>
        <time>2019-03-09T07:35:21Z</time>
      </trkpt>
      <trkpt lat="44.39632" lon="6.92013">
        <ele>1818.95</ele>
        <time>2019-03-09T07:35:36Z</time>
      </trkpt>
      <trkpt lat="44.39623" lon="6.92004">
        <ele>1819.91</ele>
        <time>2019-03-09T07:35:52Z</time>
      </trkpt>
      <trkpt lat="44.39617" lon="6.91996">
        <ele>1820.87</ele>
        <time>2019-03-09T07:36:06Z</time>
      </trkpt>
      <trkpt lat="44.39608" lon="6.91991">
        <ele>1822.32</ele>
        <time>2019-03-09T07:36:21Z</time>
      </trkpt>
      <trkpt lat="44.396" lon="6.91982">
        <ele>1823.76</ele>
        <time>2019-03-09T07:36:34Z</time>
      </trkpt>
      <trkpt lat="44.39593" lon="6.91974">
        <ele>1825.2</ele>
        <time>2019-03-09T07:36:49Z</time>
      </trkpt>
      <trkpt lat="44.39594" lon="6.91966">
        <ele>1826.16</ele>
        <time>2019-03-09T07:37:02Z</time>
      </trkpt>
      <trkpt lat="44.39592" lon="6.91953">
        <ele>1828.56</ele>
        <time>2019-03-09T07:37:17Z</time>
      </trkpt>
      <trkpt lat="44.39584" lon="6.91948">
        <ele>1830.01</ele>
        <time>2019-03-09T07:37:31Z</time>
      </trkpt>
      <trkpt lat="44.39575" lon="6.91944">
        <ele>1833.37</ele>
        <time>2019-03-09T07:37:47Z</time>
      </trkpt>
      <trkpt lat="44.39567" lon="6.91937">
        <ele>1835.29</ele>
        <time>2019-03-09T07:38:05Z</time>
      </trkpt>
      <trkpt lat="44.39556" lon="6.91933">
        <ele>1837.22</ele>
        <time>2019-03-09T07:38:23Z</time>
      </trkpt>
      <trkpt lat="44.39547" lon="6.91926">
        <ele>1838.66</ele>
        <time>2019-03-09T07:38:41Z</time>
      </trkpt>
      <trkpt lat="44.39545" lon="6.91924">
        <ele>1839.62</ele>
        <time>2019-03-09T07:38:55Z</time>
      </trkpt>
      <trkpt lat="44.3954" lon="6.91912">
        <ele>1842.02</ele>
        <time>2019-03-09T07:39:12Z</time>
      </trkpt>
      <trkpt lat="44.39534" lon="6.91906">
        <ele>1843.47</ele>
        <time>2019-03-09T07:39:25Z</time>
      </trkpt>
      <trkpt lat="44.39523" lon="6.91901">
        <ele>1844.43</ele>
        <time>2019-03-09T07:39:39Z</time>
      </trkpt>
      <trkpt lat="44.39515" lon="6.91899">
        <ele>1845.39</ele>
        <time>2019-03-09T07:39:52Z</time>
      </trkpt>
      <trkpt lat="44.39508" lon="6.91895">
        <ele>1847.31</ele>
        <time>2019-03-09T07:40:07Z</time>
      </trkpt>
      <trkpt lat="44.395" lon="6.91891">
        <ele>1849.23</ele>
        <time>2019-03-09T07:40:21Z</time>
      </trkpt>
      <trkpt lat="44.39492" lon="6.91887">
        <ele>1849.71</ele>
        <time>2019-03-09T07:40:36Z</time>
      </trkpt>
      <trkpt lat="44.39482" lon="6.91884">
        <ele>1850.68</ele>
        <time>2019-03-09T07:40:51Z</time>
      </trkpt>
      <trkpt lat="44.39476" lon="6.91876">
        <ele>1852.6</ele>
        <time>2019-03-09T07:41:07Z</time>
      </trkpt>
      <trkpt lat="44.39471" lon="6.91869">
        <ele>1854.52</ele>
        <time>2019-03-09T07:41:21Z</time>
      </trkpt>
      <trkpt lat="44.39461" lon="6.91862">
        <ele>1855.96</ele>
        <time>2019-03-09T07:41:36Z</time>
      </trkpt>
      <trkpt lat="44.39457" lon="6.91854">
        <ele>1858.37</ele>
        <time>2019-03-09T07:41:48Z</time>
      </trkpt>
      <trkpt lat="44.3945" lon="6.91848">
        <ele>1858.37</ele>
        <time>2019-03-09T07:42:01Z</time>
      </trkpt>
      <trkpt lat="44.39444" lon="6.9184">
        <ele>1860.29</ele>
        <time>2019-03-09T07:42:16Z</time>
      </trkpt>
      <trkpt lat="44.39437" lon="6.91834">
        <ele>1862.69</ele>
        <time>2019-03-09T07:42:30Z</time>
      </trkpt>
      <trkpt lat="44.39429" lon="6.91827">
        <ele>1864.13</ele>
        <time>2019-03-09T07:42:45Z</time>
      </trkpt>
      <trkpt lat="44.39421" lon="6.91823">
        <ele>1866.54</ele>
        <time>2019-03-09T07:43:01Z</time>
      </trkpt>
      <trkpt lat="44.39417" lon="6.91816">
        <ele>1868.46</ele>
        <time>2019-03-09T07:43:19Z</time>
      </trkpt>
      <trkpt lat="44.39413" lon="6.91807">
        <ele>1869.9</ele>
        <time>2019-03-09T07:43:32Z</time>
      </trkpt>
      <trkpt lat="44.39403" lon="6.91804">
        <ele>1870.86</ele>
        <time>2019-03-09T07:43:47Z</time>
      </trkpt>
      <trkpt lat="44.394" lon="6.91803">
        <ele>1870.86</ele>
        <time>2019-03-09T07:43:54Z</time>
      </trkpt>
      <trkpt lat="44.3939" lon="6.918">
        <ele>1872.3</ele>
        <time>2019-03-09T07:44:08Z</time>
      </trkpt>
      <trkpt lat="44.39382" lon="6.91795">
        <ele>1873.75</ele>
        <time>2019-03-09T07:44:23Z</time>
      </trkpt>
      <trkpt lat="44.39374" lon="6.91791">
        <ele>1875.67</ele>
        <time>2019-03-09T07:44:36Z</time>
      </trkpt>
      <trkpt lat="44.39362" lon="6.91788">
        <ele>1877.11</ele>
        <time>2019-03-09T07:44:51Z</time>
      </trkpt>
      <trkpt lat="44.39353" lon="6.91785">
        <ele>1878.55</ele>
        <time>2019-03-09T07:45:07Z</time>
      </trkpt>
      <trkpt lat="44.39345" lon="6.91778">
        <ele>1880.96</ele>
        <time>2019-03-09T07:45:22Z</time>
      </trkpt>
      <trkpt lat="44.3934" lon="6.91767">
        <ele>1883.36</ele>
        <time>2019-03-09T07:45:39Z</time>
      </trkpt>
      <trkpt lat="44.39336" lon="6.91761">
        <ele>1885.28</ele>
        <time>2019-03-09T07:45:52Z</time>
      </trkpt>
      <trkpt lat="44.39332" lon="6.91756">
        <ele>1884.32</ele>
        <time>2019-03-09T07:45:57Z</time>
      </trkpt>
      <trkpt lat="44.39329" lon="6.91753">
        <ele>1884.32</ele>
        <time>2019-03-09T07:46:02Z</time>
      </trkpt>
      <trkpt lat="44.39316" lon="6.91754">
        <ele>1885.28</ele>
        <time>2019-03-09T07:46:18Z</time>
      </trkpt>
      <trkpt lat="44.39304" lon="6.91752">
        <ele>1886.72</ele>
        <time>2019-03-09T07:46:34Z</time>
      </trkpt>
      <trkpt lat="44.39294" lon="6.91747">
        <ele>1887.21</ele>
        <time>2019-03-09T07:46:48Z</time>
      </trkpt>
      <trkpt lat="44.39283" lon="6.9174">
        <ele>1888.17</ele>
        <time>2019-03-09T07:47:02Z</time>
      </trkpt>
      <trkpt lat="44.39274" lon="6.9173">
        <ele>1888.17</ele>
        <time>2019-03-09T07:47:17Z</time>
      </trkpt>
      <trkpt lat="44.39264" lon="6.91721">
        <ele>1888.65</ele>
        <time>2019-03-09T07:47:31Z</time>
      </trkpt>
      <trkpt lat="44.39255" lon="6.91711">
        <ele>1887.69</ele>
        <time>2019-03-09T07:47:45Z</time>
      </trkpt>
      <trkpt lat="44.39245" lon="6.91699">
        <ele>1888.17</ele>
        <time>2019-03-09T07:48:00Z</time>
      </trkpt>
      <trkpt lat="44.39236" lon="6.91689">
        <ele>1888.17</ele>
        <time>2019-03-09T07:48:16Z</time>
      </trkpt>
      <trkpt lat="44.39229" lon="6.91677">
        <ele>1887.69</ele>
        <time>2019-03-09T07:48:28Z</time>
      </trkpt>
      <trkpt lat="44.39217" lon="6.91671">
        <ele>1888.17</ele>
        <time>2019-03-09T07:48:43Z</time>
      </trkpt>
      <trkpt lat="44.39208" lon="6.91664">
        <ele>1889.61</ele>
        <time>2019-03-09T07:48:56Z</time>
      </trkpt>
      <trkpt lat="44.39197" lon="6.91657">
        <ele>1892.01</ele>
        <time>2019-03-09T07:49:11Z</time>
      </trkpt>
      <trkpt lat="44.39187" lon="6.91655">
        <ele>1894.42</ele>
        <time>2019-03-09T07:49:24Z</time>
      </trkpt>
      <trkpt lat="44.39179" lon="6.91654">
        <ele>1895.86</ele>
        <time>2019-03-09T07:49:40Z</time>
      </trkpt>
      <trkpt lat="44.3917" lon="6.91648">
        <ele>1897.78</ele>
        <time>2019-03-09T07:49:58Z</time>
      </trkpt>
      <trkpt lat="44.39158" lon="6.91641">
        <ele>1899.22</ele>
        <time>2019-03-09T07:50:14Z</time>
      </trkpt>
      <trkpt lat="44.39151" lon="6.91637">
        <ele>1900.18</ele>
        <time>2019-03-09T07:50:28Z</time>
      </trkpt>
      <trkpt lat="44.39142" lon="6.91634">
        <ele>1901.63</ele>
        <time>2019-03-09T07:50:40Z</time>
      </trkpt>
      <trkpt lat="44.39135" lon="6.91628">
        <ele>1903.55</ele>
        <time>2019-03-09T07:50:54Z</time>
      </trkpt>
      <trkpt lat="44.3913" lon="6.91624">
        <ele>1904.03</ele>
        <time>2019-03-09T07:51:08Z</time>
      </trkpt>
      <trkpt lat="44.39121" lon="6.91616">
        <ele>1904.51</ele>
        <time>2019-03-09T07:51:22Z</time>
      </trkpt>
      <trkpt lat="44.39111" lon="6.91612">
        <ele>1905.47</ele>
        <time>2019-03-09T07:51:38Z</time>
      </trkpt>
      <trkpt lat="44.391" lon="6.9161">
        <ele>1906.43</ele>
        <time>2019-03-09T07:51:53Z</time>
      </trkpt>
      <trkpt lat="44.39089" lon="6.91607">
        <ele>1906.91</ele>
        <time>2019-03-09T07:52:06Z</time>
      </trkpt>
      <trkpt lat="44.3908" lon="6.91601">
        <ele>1907.87</ele>
        <time>2019-03-09T07:52:20Z</time>
      </trkpt>
      <trkpt lat="44.39071" lon="6.91597">
        <ele>1908.35</ele>
        <time>2019-03-09T07:52:34Z</time>
      </trkpt>
      <trkpt lat="44.39063" lon="6.91591">
        <ele>1908.83</ele>
        <time>2019-03-09T07:52:49Z</time>
      </trkpt>
      <trkpt lat="44.39053" lon="6.91581">
        <ele>1907.39</ele>
        <time>2019-03-09T07:53:04Z</time>
      </trkpt>
      <trkpt lat="44.39044" lon="6.91573">
        <ele>1908.35</ele>
        <time>2019-03-09T07:53:19Z</time>
      </trkpt>
      <trkpt lat="44.39038" lon="6.91564">
        <ele>1909.8</ele>
        <time>2019-03-09T07:53:33Z</time>
      </trkpt>
      <trkpt lat="44.39031" lon="6.91558">
        <ele>1912.2</ele>
        <time>2019-03-09T07:53:47Z</time>
      </trkpt>
      <trkpt lat="44.39025" lon="6.9155">
        <ele>1913.16</ele>
        <time>2019-03-09T07:54:03Z</time>
      </trkpt>
      <trkpt lat="44.39016" lon="6.91542">
        <ele>1913.16</ele>
        <time>2019-03-09T07:54:17Z</time>
      </trkpt>
      <trkpt lat="44.39009" lon="6.9154">
        <ele>1914.12</ele>
        <time>2019-03-09T07:54:29Z</time>
      </trkpt>
      <trkpt lat="44.38997" lon="6.91537">
        <ele>1916.04</ele>
        <time>2019-03-09T07:54:45Z</time>
      </trkpt>
      <trkpt lat="44.39004" lon="6.91531">
        <ele>1918.45</ele>
        <time>2019-03-09T07:54:58Z</time>
      </trkpt>
      <trkpt lat="44.39005" lon="6.91528">
        <ele>1919.41</ele>
        <time>2019-03-09T07:55:11Z</time>
      </trkpt>
      <trkpt lat="44.38994" lon="6.91528">
        <ele>1921.33</ele>
        <time>2019-03-09T07:55:26Z</time>
      </trkpt>
      <trkpt lat="44.38987" lon="6.91528">
        <ele>1922.77</ele>
        <time>2019-03-09T07:55:43Z</time>
      </trkpt>
      <trkpt lat="44.38988" lon="6.91527">
        <ele>1924.22</ele>
        <time>2019-03-09T07:55:57Z</time>
      </trkpt>
      <trkpt lat="44.38976" lon="6.91521">
        <ele>1926.14</ele>
        <time>2019-03-09T07:56:14Z</time>
      </trkpt>
      <trkpt lat="44.38972" lon="6.91521">
        <ele>1927.1</ele>
        <time>2019-03-09T07:56:30Z</time>
      </trkpt>
      <trkpt lat="44.38965" lon="6.91519">
        <ele>1927.58</ele>
        <time>2019-03-09T07:56:40Z</time>
      </trkpt>
      <trkpt lat="44.38956" lon="6.91517">
        <ele>1927.58</ele>
        <time>2019-03-09T07:56:55Z</time>
      </trkpt>
      <trkpt lat="44.38954" lon="6.91516">
        <ele>1927.58</ele>
        <time>2019-03-09T07:57:14Z</time>
      </trkpt>
      <trkpt lat="44.38947" lon="6.91514">
        <ele>1928.06</ele>
        <time>2019-03-09T07:57:29Z</time>
      </trkpt>
      <trkpt lat="44.38943" lon="6.91513">
        <ele>1928.06</ele>
        <time>2019-03-09T07:57:33Z</time>
      </trkpt>
      <trkpt lat="44.38933" lon="6.91504">
        <ele>1928.06</ele>
        <time>2019-03-09T07:57:47Z</time>
      </trkpt>
      <trkpt lat="44.38921" lon="6.91494">
        <ele>1928.06</ele>
        <time>2019-03-09T07:58:04Z</time>
      </trkpt>
      <trkpt lat="44.38912" lon="6.91489">
        <ele>1928.06</ele>
        <time>2019-03-09T07:58:18Z</time>
      </trkpt>
      <trkpt lat="44.38905" lon="6.91482">
        <ele>1928.06</ele>
        <time>2019-03-09T07:58:31Z</time>
      </trkpt>
      <trkpt lat="44.38895" lon="6.9148">
        <ele>1928.54</ele>
        <time>2019-03-09T07:58:43Z</time>
      </trkpt>
      <trkpt lat="44.38879" lon="6.91476">
        <ele>1929.02</ele>
        <time>2019-03-09T07:58:59Z</time>
      </trkpt>
      <trkpt lat="44.38869" lon="6.91472">
        <ele>1929.5</ele>
        <time>2019-03-09T07:59:14Z</time>
      </trkpt>
      <trkpt lat="44.38862" lon="6.91467">
        <ele>1930.46</ele>
        <time>2019-03-09T07:59:27Z</time>
      </trkpt>
      <trkpt lat="44.38853" lon="6.91462">
        <ele>1931.43</ele>
        <time>2019-03-09T07:59:43Z</time>
      </trkpt>
      <trkpt lat="44.38842" lon="6.91458">
        <ele>1932.39</ele>
        <time>2019-03-09T07:59:58Z</time>
      </trkpt>
      <trkpt lat="44.38831" lon="6.91452">
        <ele>1933.35</ele>
        <time>2019-03-09T08:00:13Z</time>
      </trkpt>
      <trkpt lat="44.38818" lon="6.91447">
        <ele>1935.27</ele>
        <time>2019-03-09T08:00:29Z</time>
      </trkpt>
      <trkpt lat="44.38804" lon="6.9144">
        <ele>1936.71</ele>
        <time>2019-03-09T08:00:45Z</time>
      </trkpt>
      <trkpt lat="44.38793" lon="6.91432">
        <ele>1938.16</ele>
        <time>2019-03-09T08:01:02Z</time>
      </trkpt>
      <trkpt lat="44.38795" lon="6.91429">
        <ele>1938.64</ele>
        <time>2019-03-09T08:01:16Z</time>
      </trkpt>
      <trkpt lat="44.38783" lon="6.91421">
        <ele>1940.56</ele>
        <time>2019-03-09T08:01:30Z</time>
      </trkpt>
      <trkpt lat="44.38776" lon="6.91416">
        <ele>1941.52</ele>
        <time>2019-03-09T08:01:39Z</time>
      </trkpt>
      <trkpt lat="44.38764" lon="6.91408">
        <ele>1942.96</ele>
        <time>2019-03-09T08:01:54Z</time>
      </trkpt>
      <trkpt lat="44.38753" lon="6.91399">
        <ele>1944.4</ele>
        <time>2019-03-09T08:02:07Z</time>
      </trkpt>
      <trkpt lat="44.38742" lon="6.91391">
        <ele>1946.33</ele>
        <time>2019-03-09T08:02:24Z</time>
      </trkpt>
      <trkpt lat="44.38738" lon="6.91388">
        <ele>1947.29</ele>
        <time>2019-03-09T08:02:33Z</time>
      </trkpt>
      <trkpt lat="44.38734" lon="6.91384">
        <ele>1947.77</ele>
        <time>2019-03-09T08:02:38Z</time>
      </trkpt>
      <trkpt lat="44.38729" lon="6.91383">
        <ele>1948.73</ele>
        <time>2019-03-09T08:02:44Z</time>
      </trkpt>
      <trkpt lat="44.38723" lon="6.91374">
        <ele>1949.69</ele>
        <time>2019-03-09T08:03:00Z</time>
      </trkpt>
      <trkpt lat="44.38718" lon="6.91366">
        <ele>1950.65</ele>
        <time>2019-03-09T08:03:10Z</time>
      </trkpt>
      <trkpt lat="44.38707" lon="6.91355">
        <ele>1951.61</ele>
        <time>2019-03-09T08:03:27Z</time>
      </trkpt>
      <trkpt lat="44.38699" lon="6.91346">
        <ele>1952.57</ele>
        <time>2019-03-09T08:03:42Z</time>
      </trkpt>
      <trkpt lat="44.38688" lon="6.91336">
        <ele>1953.06</ele>
        <time>2019-03-09T08:03:56Z</time>
      </trkpt>
      <trkpt lat="44.38678" lon="6.91322">
        <ele>1953.54</ele>
        <time>2019-03-09T08:04:15Z</time>
      </trkpt>
      <trkpt lat="44.38664" lon="6.91311">
        <ele>1954.5</ele>
        <time>2019-03-09T08:04:30Z</time>
      </trkpt>
      <trkpt lat="44.38658" lon="6.91301">
        <ele>1954.98</ele>
        <time>2019-03-09T08:04:42Z</time>
      </trkpt>
      <trkpt lat="44.3865" lon="6.9129">
        <ele>1954.02</ele>
        <time>2019-03-09T08:04:55Z</time>
      </trkpt>
      <trkpt lat="44.38639" lon="6.91281">
        <ele>1954.5</ele>
        <time>2019-03-09T08:05:07Z</time>
      </trkpt>
      <trkpt lat="44.38623" lon="6.9127">
        <ele>1955.46</ele>
        <time>2019-03-09T08:05:21Z</time>
      </trkpt>
      <trkpt lat="44.38609" lon="6.91262">
        <ele>1956.9</ele>
        <time>2019-03-09T08:05:34Z</time>
      </trkpt>
      <trkpt lat="44.38607" lon="6.91261">
        <ele>1956.9</ele>
        <time>2019-03-09T08:05:36Z</time>
      </trkpt>
      <trkpt lat="44.38592" lon="6.91254">
        <ele>1959.78</ele>
        <time>2019-03-09T08:05:53Z</time>
      </trkpt>
      <trkpt lat="44.38586" lon="6.91252">
        <ele>1959.3</ele>
        <time>2019-03-09T08:06:01Z</time>
      </trkpt>
      <trkpt lat="44.38574" lon="6.91251">
        <ele>1960.27</ele>
        <time>2019-03-09T08:06:15Z</time>
      </trkpt>
      <trkpt lat="44.38564" lon="6.91249">
        <ele>1961.71</ele>
        <time>2019-03-09T08:06:25Z</time>
      </trkpt>
      <trkpt lat="44.3855" lon="6.91246">
        <ele>1962.67</ele>
        <time>2019-03-09T08:06:40Z</time>
      </trkpt>
      <trkpt lat="44.38536" lon="6.91243">
        <ele>1963.63</ele>
        <time>2019-03-09T08:06:55Z</time>
      </trkpt>
      <trkpt lat="44.38525" lon="6.91239">
        <ele>1965.55</ele>
        <time>2019-03-09T08:07:09Z</time>
      </trkpt>
      <trkpt lat="44.38521" lon="6.91237">
        <ele>1966.03</ele>
        <time>2019-03-09T08:07:16Z</time>
      </trkpt>
      <trkpt lat="44.3851" lon="6.91233">
        <ele>1966.99</ele>
        <time>2019-03-09T08:07:30Z</time>
      </trkpt>
      <trkpt lat="44.38499" lon="6.91229">
        <ele>1968.44</ele>
        <time>2019-03-09T08:07:44Z</time>
      </trkpt>
      <trkpt lat="44.38498" lon="6.91226">
        <ele>1969.4</ele>
        <time>2019-03-09T08:07:49Z</time>
      </trkpt>
      <trkpt lat="44.38494" lon="6.91224">
        <ele>1970.36</ele>
        <time>2019-03-09T08:07:55Z</time>
      </trkpt>
      <trkpt lat="44.38492" lon="6.91216">
        <ele>1971.32</ele>
        <time>2019-03-09T08:08:09Z</time>
      </trkpt>
      <trkpt lat="44.38491" lon="6.91214">
        <ele>1971.8</ele>
        <time>2019-03-09T08:08:16Z</time>
      </trkpt>
      <trkpt lat="44.38473" lon="6.91211">
        <ele>1973.72</ele>
        <time>2019-03-09T08:08:33Z</time>
      </trkpt>
      <trkpt lat="44.3846" lon="6.9121">
        <ele>1975.17</ele>
        <time>2019-03-09T08:08:49Z</time>
      </trkpt>
      <trkpt lat="44.38447" lon="6.91209">
        <ele>1977.09</ele>
        <time>2019-03-09T08:09:01Z</time>
      </trkpt>
      <trkpt lat="44.38435" lon="6.91211">
        <ele>1979.01</ele>
        <time>2019-03-09T08:09:15Z</time>
      </trkpt>
      <trkpt lat="44.38435" lon="6.91211">
        <ele>1979.01</ele>
        <time>2019-03-09T08:09:16Z</time>
      </trkpt>
      <trkpt lat="44.38422" lon="6.91213">
        <ele>1980.93</ele>
        <time>2019-03-09T08:09:32Z</time>
      </trkpt>
      <trkpt lat="44.38421" lon="6.91213">
        <ele>1980.93</ele>
        <time>2019-03-09T08:09:34Z</time>
      </trkpt>
      <trkpt lat="44.38409" lon="6.91215">
        <ele>1982.38</ele>
        <time>2019-03-09T08:09:49Z</time>
      </trkpt>
      <trkpt lat="44.38397" lon="6.91216">
        <ele>1983.82</ele>
        <time>2019-03-09T08:10:04Z</time>
      </trkpt>
      <trkpt lat="44.38385" lon="6.91217">
        <ele>1985.26</ele>
        <time>2019-03-09T08:10:20Z</time>
      </trkpt>
      <trkpt lat="44.38375" lon="6.9122">
        <ele>1987.18</ele>
        <time>2019-03-09T08:10:36Z</time>
      </trkpt>
      <trkpt lat="44.38363" lon="6.91222">
        <ele>1989.59</ele>
        <time>2019-03-09T08:10:55Z</time>
      </trkpt>
      <trkpt lat="44.38352" lon="6.91221">
        <ele>1991.03</ele>
        <time>2019-03-09T08:11:10Z</time>
      </trkpt>
      <trkpt lat="44.38331" lon="6.91223">
        <ele>1992.95</ele>
        <time>2019-03-09T08:11:27Z</time>
      </trkpt>
      <trkpt lat="44.38312" lon="6.91227">
        <ele>1993.91</ele>
        <time>2019-03-09T08:11:41Z</time>
      </trkpt>
      <trkpt lat="44.38298" lon="6.91229">
        <ele>1995.83</ele>
        <time>2019-03-09T08:11:57Z</time>
      </trkpt>
      <trkpt lat="44.38289" lon="6.91229">
        <ele>1997.28</ele>
        <time>2019-03-09T08:12:12Z</time>
      </trkpt>
      <trkpt lat="44.38276" lon="6.91229">
        <ele>1999.2</ele>
        <time>2019-03-09T08:12:29Z</time>
      </trkpt>
      <trkpt lat="44.38266" lon="6.91228">
        <ele>2001.12</ele>
        <time>2019-03-09T08:12:44Z</time>
      </trkpt>
      <trkpt lat="44.38255" lon="6.91227">
        <ele>2002.56</ele>
        <time>2019-03-09T08:12:59Z</time>
      </trkpt>
      <trkpt lat="44.38246" lon="6.91226">
        <ele>2004.01</ele>
        <time>2019-03-09T08:13:14Z</time>
      </trkpt>
      <trkpt lat="44.38238" lon="6.91228">
        <ele>2006.41</ele>
        <time>2019-03-09T08:13:30Z</time>
      </trkpt>
      <trkpt lat="44.3823" lon="6.91227">
        <ele>2007.85</ele>
        <time>2019-03-09T08:13:45Z</time>
      </trkpt>
      <trkpt lat="44.38224" lon="6.91226">
        <ele>2009.77</ele>
        <time>2019-03-09T08:14:00Z</time>
      </trkpt>
      <trkpt lat="44.38215" lon="6.91225">
        <ele>2010.25</ele>
        <time>2019-03-09T08:14:14Z</time>
      </trkpt>
      <trkpt lat="44.38207" lon="6.91228">
        <ele>2011.7</ele>
        <time>2019-03-09T08:14:27Z</time>
      </trkpt>
      <trkpt lat="44.38201" lon="6.91227">
        <ele>2012.66</ele>
        <time>2019-03-09T08:14:37Z</time>
      </trkpt>
      <trkpt lat="44.38191" lon="6.91226">
        <ele>2014.58</ele>
        <time>2019-03-09T08:14:51Z</time>
      </trkpt>
      <trkpt lat="44.38183" lon="6.91224">
        <ele>2015.54</ele>
        <time>2019-03-09T08:15:02Z</time>
      </trkpt>
      <trkpt lat="44.38175" lon="6.91223">
        <ele>2017.46</ele>
        <time>2019-03-09T08:15:13Z</time>
      </trkpt>
      <trkpt lat="44.38165" lon="6.91221">
        <ele>2019.39</ele>
        <time>2019-03-09T08:15:31Z</time>
      </trkpt>
      <trkpt lat="44.38164" lon="6.91211">
        <ele>2021.31</ele>
        <time>2019-03-09T08:15:45Z</time>
      </trkpt>
      <trkpt lat="44.38158" lon="6.91207">
        <ele>2023.23</ele>
        <time>2019-03-09T08:15:58Z</time>
      </trkpt>
      <trkpt lat="44.38148" lon="6.91206">
        <ele>2025.15</ele>
        <time>2019-03-09T08:16:12Z</time>
      </trkpt>
      <trkpt lat="44.38141" lon="6.91205">
        <ele>2027.08</ele>
        <time>2019-03-09T08:16:29Z</time>
      </trkpt>
      <trkpt lat="44.38134" lon="6.91205">
        <ele>2029.96</ele>
        <time>2019-03-09T08:16:51Z</time>
      </trkpt>
      <trkpt lat="44.38121" lon="6.91197">
        <ele>2032.84</ele>
        <time>2019-03-09T08:17:15Z</time>
      </trkpt>
      <trkpt lat="44.38118" lon="6.91187">
        <ele>2035.25</ele>
        <time>2019-03-09T08:17:31Z</time>
      </trkpt>
      <trkpt lat="44.38125" lon="6.9118">
        <ele>2036.69</ele>
        <time>2019-03-09T08:17:45Z</time>
      </trkpt>
      <trkpt lat="44.38129" lon="6.91173">
        <ele>2040.05</ele>
        <time>2019-03-09T08:17:57Z</time>
      </trkpt>
      <trkpt lat="44.38118" lon="6.91168">
        <ele>2040.54</ele>
        <time>2019-03-09T08:18:11Z</time>
      </trkpt>
      <trkpt lat="44.3811" lon="6.91165">
        <ele>2041.98</ele>
        <time>2019-03-09T08:18:24Z</time>
      </trkpt>
      <trkpt lat="44.38104" lon="6.91161">
        <ele>2043.9</ele>
        <time>2019-03-09T08:18:39Z</time>
      </trkpt>
      <trkpt lat="44.38097" lon="6.91158">
        <ele>2045.34</ele>
        <time>2019-03-09T08:18:53Z</time>
      </trkpt>
      <trkpt lat="44.38091" lon="6.9116">
        <ele>2046.78</ele>
        <time>2019-03-09T08:19:06Z</time>
      </trkpt>
      <trkpt lat="44.38083" lon="6.91161">
        <ele>2048.71</ele>
        <time>2019-03-09T08:19:21Z</time>
      </trkpt>
      <trkpt lat="44.38075" lon="6.91161">
        <ele>2050.63</ele>
        <time>2019-03-09T08:19:37Z</time>
      </trkpt>
      <trkpt lat="44.38076" lon="6.91156">
        <ele>2053.03</ele>
        <time>2019-03-09T08:19:51Z</time>
      </trkpt>
      <trkpt lat="44.38079" lon="6.91149">
        <ele>2054.47</ele>
        <time>2019-03-09T08:20:03Z</time>
      </trkpt>
      <trkpt lat="44.38076" lon="6.91144">
        <ele>2056.4</ele>
        <time>2019-03-09T08:20:15Z</time>
      </trkpt>
      <trkpt lat="44.38067" lon="6.91144">
        <ele>2058.32</ele>
        <time>2019-03-09T08:20:33Z</time>
      </trkpt>
      <trkpt lat="44.38061" lon="6.91142">
        <ele>2059.76</ele>
        <time>2019-03-09T08:20:46Z</time>
      </trkpt>
      <trkpt lat="44.38053" lon="6.9114">
        <ele>2061.2</ele>
        <time>2019-03-09T08:20:59Z</time>
      </trkpt>
      <trkpt lat="44.38048" lon="6.91139">
        <ele>2063.13</ele>
        <time>2019-03-09T08:21:15Z</time>
      </trkpt>
      <trkpt lat="44.38042" lon="6.91138">
        <ele>2064.09</ele>
        <time>2019-03-09T08:21:28Z</time>
      </trkpt>
      <trkpt lat="44.38033" lon="6.91137">
        <ele>2066.49</ele>
        <time>2019-03-09T08:21:42Z</time>
      </trkpt>
      <trkpt lat="44.38027" lon="6.91136">
        <ele>2067.93</ele>
        <time>2019-03-09T08:21:57Z</time>
      </trkpt>
      <trkpt lat="44.3802" lon="6.91138">
        <ele>2068.89</ele>
        <time>2019-03-09T08:22:09Z</time>
      </trkpt>
      <trkpt lat="44.38012" lon="6.9114">
        <ele>2070.34</ele>
        <time>2019-03-09T08:22:23Z</time>
      </trkpt>
      <trkpt lat="44.38006" lon="6.91133">
        <ele>2071.78</ele>
        <time>2019-03-09T08:22:37Z</time>
      </trkpt>
      <trkpt lat="44.37996" lon="6.9113">
        <ele>2073.22</ele>
        <time>2019-03-09T08:22:53Z</time>
      </trkpt>
      <trkpt lat="44.37988" lon="6.91126">
        <ele>2075.62</ele>
        <time>2019-03-09T08:23:09Z</time>
      </trkpt>
      <trkpt lat="44.37975" lon="6.91123">
        <ele>2077.07</ele>
        <time>2019-03-09T08:23:27Z</time>
      </trkpt>
      <trkpt lat="44.37965" lon="6.91123">
        <ele>2078.99</ele>
        <time>2019-03-09T08:23:45Z</time>
      </trkpt>
      <trkpt lat="44.37957" lon="6.9112">
        <ele>2080.43</ele>
        <time>2019-03-09T08:23:58Z</time>
      </trkpt>
      <trkpt lat="44.37948" lon="6.91117">
        <ele>2081.87</ele>
        <time>2019-03-09T08:24:15Z</time>
      </trkpt>
      <trkpt lat="44.37941" lon="6.91115">
        <ele>2082.83</ele>
        <time>2019-03-09T08:24:29Z</time>
      </trkpt>
      <trkpt lat="44.37931" lon="6.91112">
        <ele>2084.76</ele>
        <time>2019-03-09T08:24:44Z</time>
      </trkpt>
      <trkpt lat="44.37927" lon="6.9111">
        <ele>2086.68</ele>
        <time>2019-03-09T08:25:03Z</time>
      </trkpt>
      <trkpt lat="44.37918" lon="6.91104">
        <ele>2088.6</ele>
        <time>2019-03-09T08:25:22Z</time>
      </trkpt>
      <trkpt lat="44.37912" lon="6.911">
        <ele>2090.04</ele>
        <time>2019-03-09T08:25:35Z</time>
      </trkpt>
      <trkpt lat="44.37904" lon="6.911">
        <ele>2091.97</ele>
        <time>2019-03-09T08:25:51Z</time>
      </trkpt>
      <trkpt lat="44.37898" lon="6.91099">
        <ele>2093.89</ele>
        <time>2019-03-09T08:26:02Z</time>
      </trkpt>
      <trkpt lat="44.3789" lon="6.91096">
        <ele>2095.81</ele>
        <time>2019-03-09T08:26:22Z</time>
      </trkpt>
      <trkpt lat="44.37882" lon="6.91094">
        <ele>2096.77</ele>
        <time>2019-03-09T08:26:38Z</time>
      </trkpt>
      <trkpt lat="44.37872" lon="6.91088">
        <ele>2098.21</ele>
        <time>2019-03-09T08:26:55Z</time>
      </trkpt>
      <trkpt lat="44.37863" lon="6.91085">
        <ele>2100.14</ele>
        <time>2019-03-09T08:27:11Z</time>
      </trkpt>
      <trkpt lat="44.37857" lon="6.91086">
        <ele>2101.58</ele>
        <time>2019-03-09T08:27:25Z</time>
      </trkpt>
      <trkpt lat="44.37847" lon="6.9108">
        <ele>2103.98</ele>
        <time>2019-03-09T08:27:44Z</time>
      </trkpt>
      <trkpt lat="44.37838" lon="6.91077">
        <ele>2105.42</ele>
        <time>2019-03-09T08:28:00Z</time>
      </trkpt>
      <trkpt lat="44.37832" lon="6.91076">
        <ele>2106.39</ele>
        <time>2019-03-09T08:28:12Z</time>
      </trkpt>
      <trkpt lat="44.37825" lon="6.91075">
        <ele>2108.31</ele>
        <time>2019-03-09T08:28:29Z</time>
      </trkpt>
      <trkpt lat="44.37817" lon="6.91076">
        <ele>2109.27</ele>
        <time>2019-03-09T08:28:43Z</time>
      </trkpt>
      <trkpt lat="44.37806" lon="6.91079">
        <ele>2112.63</ele>
        <time>2019-03-09T08:29:01Z</time>
      </trkpt>
      <trkpt lat="44.378" lon="6.91082">
        <ele>2114.56</ele>
        <time>2019-03-09T08:29:17Z</time>
      </trkpt>
      <trkpt lat="44.37792" lon="6.91079">
        <ele>2116.48</ele>
        <time>2019-03-09T08:29:35Z</time>
      </trkpt>
      <trkpt lat="44.37779" lon="6.91075">
        <ele>2117.44</ele>
        <time>2019-03-09T08:29:52Z</time>
      </trkpt>
      <trkpt lat="44.37771" lon="6.9107">
        <ele>2119.84</ele>
        <time>2019-03-09T08:30:11Z</time>
      </trkpt>
      <trkpt lat="44.37765" lon="6.91061">
        <ele>2121.29</ele>
        <time>2019-03-09T08:30:25Z</time>
      </trkpt>
      <trkpt lat="44.3776" lon="6.91067">
        <ele>2122.25</ele>
        <time>2019-03-09T08:30:37Z</time>
      </trkpt>
      <trkpt lat="44.37754" lon="6.91064">
        <ele>2124.65</ele>
        <time>2019-03-09T08:30:53Z</time>
      </trkpt>
      <trkpt lat="44.37748" lon="6.91058">
        <ele>2126.57</ele>
        <time>2019-03-09T08:31:08Z</time>
      </trkpt>
      <trkpt lat="44.37744" lon="6.91053">
        <ele>2128.5</ele>
        <time>2019-03-09T08:31:22Z</time>
      </trkpt>
      <trkpt lat="44.37743" lon="6.91047">
        <ele>2130.42</ele>
        <time>2019-03-09T08:31:38Z</time>
      </trkpt>
      <trkpt lat="44.37737" lon="6.91043">
        <ele>2131.86</ele>
        <time>2019-03-09T08:31:52Z</time>
      </trkpt>
      <trkpt lat="44.37736" lon="6.91037">
        <ele>2133.3</ele>
        <time>2019-03-09T08:32:05Z</time>
      </trkpt>
      <trkpt lat="44.37734" lon="6.91031">
        <ele>2135.23</ele>
        <time>2019-03-09T08:32:22Z</time>
      </trkpt>
      <trkpt lat="44.37724" lon="6.91031">
        <ele>2136.67</ele>
        <time>2019-03-09T08:32:37Z</time>
      </trkpt>
      <trkpt lat="44.37723" lon="6.91037">
        <ele>2137.63</ele>
        <time>2019-03-09T08:32:53Z</time>
      </trkpt>
      <trkpt lat="44.37723" lon="6.91031">
        <ele>2138.59</ele>
        <time>2019-03-09T08:33:17Z</time>
      </trkpt>
      <trkpt lat="44.37718" lon="6.91034">
        <ele>2138.11</ele>
        <time>2019-03-09T08:33:32Z</time>
      </trkpt>
      <trkpt lat="44.37719" lon="6.91035">
        <ele>2138.59</ele>
        <time>2019-03-09T08:33:46Z</time>
      </trkpt>
      <trkpt lat="44.3771" lon="6.91034">
        <ele>2140.03</ele>
        <time>2019-03-09T08:33:58Z</time>
      </trkpt>
      <trkpt lat="44.37702" lon="6.91031">
        <ele>2141.95</ele>
        <time>2019-03-09T08:34:13Z</time>
      </trkpt>
      <trkpt lat="44.37696" lon="6.91029">
        <ele>2142.92</ele>
        <time>2019-03-09T08:34:26Z</time>
      </trkpt>
      <trkpt lat="44.37689" lon="6.91026">
        <ele>2144.36</ele>
        <time>2019-03-09T08:34:40Z</time>
      </trkpt>
      <trkpt lat="44.37684" lon="6.91025">
        <ele>2144.84</ele>
        <time>2019-03-09T08:34:53Z</time>
      </trkpt>
      <trkpt lat="44.37675" lon="6.91024">
        <ele>2145.8</ele>
        <time>2019-03-09T08:35:06Z</time>
      </trkpt>
      <trkpt lat="44.37669" lon="6.91018">
        <ele>2147.24</ele>
        <time>2019-03-09T08:35:18Z</time>
      </trkpt>
      <trkpt lat="44.37668" lon="6.91017">
        <ele>2147.72</ele>
        <time>2019-03-09T08:35:20Z</time>
      </trkpt>
      <trkpt lat="44.37661" lon="6.91012">
        <ele>2148.68</ele>
        <time>2019-03-09T08:35:33Z</time>
      </trkpt>
      <trkpt lat="44.37658" lon="6.91006">
        <ele>2150.13</ele>
        <time>2019-03-09T08:35:45Z</time>
      </trkpt>
      <trkpt lat="44.37647" lon="6.91">
        <ele>2152.05</ele>
        <time>2019-03-09T08:36:02Z</time>
      </trkpt>
      <trkpt lat="44.3764" lon="6.90999">
        <ele>2153.97</ele>
        <time>2019-03-09T08:36:18Z</time>
      </trkpt>
      <trkpt lat="44.37632" lon="6.90994">
        <ele>2155.89</ele>
        <time>2019-03-09T08:36:35Z</time>
      </trkpt>
      <trkpt lat="44.37624" lon="6.9099">
        <ele>2157.82</ele>
        <time>2019-03-09T08:36:50Z</time>
      </trkpt>
      <trkpt lat="44.37618" lon="6.90988">
        <ele>2159.74</ele>
        <time>2019-03-09T08:37:06Z</time>
      </trkpt>
      <trkpt lat="44.3761" lon="6.90985">
        <ele>2161.66</ele>
        <time>2019-03-09T08:37:22Z</time>
      </trkpt>
      <trkpt lat="44.37598" lon="6.9098">
        <ele>2162.62</ele>
        <time>2019-03-09T08:37:37Z</time>
      </trkpt>
      <trkpt lat="44.37588" lon="6.90975">
        <ele>2163.58</ele>
        <time>2019-03-09T08:37:54Z</time>
      </trkpt>
      <trkpt lat="44.37578" lon="6.90973">
        <ele>2165.03</ele>
        <time>2019-03-09T08:38:10Z</time>
      </trkpt>
      <trkpt lat="44.37571" lon="6.9097">
        <ele>2166.95</ele>
        <time>2019-03-09T08:38:29Z</time>
      </trkpt>
      <trkpt lat="44.37563" lon="6.90969">
        <ele>2169.35</ele>
        <time>2019-03-09T08:38:49Z</time>
      </trkpt>
      <trkpt lat="44.37553" lon="6.90965">
        <ele>2171.27</ele>
        <time>2019-03-09T08:39:08Z</time>
      </trkpt>
      <trkpt lat="44.37553" lon="6.90959">
        <ele>2172.24</ele>
        <time>2019-03-09T08:39:22Z</time>
      </trkpt>
      <trkpt lat="44.37549" lon="6.9095">
        <ele>2172.24</ele>
        <time>2019-03-09T08:39:33Z</time>
      </trkpt>
      <trkpt lat="44.3754" lon="6.90945">
        <ele>2173.2</ele>
        <time>2019-03-09T08:39:49Z</time>
      </trkpt>
      <trkpt lat="44.37535" lon="6.90938">
        <ele>2174.64</ele>
        <time>2019-03-09T08:40:08Z</time>
      </trkpt>
      <trkpt lat="44.37527" lon="6.90935">
        <ele>2176.08</ele>
        <time>2019-03-09T08:40:22Z</time>
      </trkpt>
      <trkpt lat="44.37522" lon="6.90933">
        <ele>2177.52</ele>
        <time>2019-03-09T08:40:37Z</time>
      </trkpt>
      <trkpt lat="44.37517" lon="6.9093">
        <ele>2179.45</ele>
        <time>2019-03-09T08:40:52Z</time>
      </trkpt>
      <trkpt lat="44.3751" lon="6.90926">
        <ele>2181.37</ele>
        <time>2019-03-09T08:41:08Z</time>
      </trkpt>
      <trkpt lat="44.37509" lon="6.90932">
        <ele>2184.25</ele>
        <time>2019-03-09T08:41:27Z</time>
      </trkpt>
      <trkpt lat="44.3751" lon="6.90933">
        <ele>2183.77</ele>
        <time>2019-03-09T08:41:50Z</time>
      </trkpt>
      <trkpt lat="44.37502" lon="6.90922">
        <ele>2185.21</ele>
        <time>2019-03-09T08:42:08Z</time>
      </trkpt>
      <trkpt lat="44.37493" lon="6.90921">
        <ele>2188.58</ele>
        <time>2019-03-09T08:42:26Z</time>
      </trkpt>
      <trkpt lat="44.37491" lon="6.90923">
        <ele>2185.69</ele>
        <time>2019-03-09T08:42:32Z</time>
      </trkpt>
      <trkpt lat="44.3749" lon="6.90912">
        <ele>2188.58</ele>
        <time>2019-03-09T08:42:49Z</time>
      </trkpt>
      <trkpt lat="44.37488" lon="6.90903">
        <ele>2190.98</ele>
        <time>2019-03-09T08:43:05Z</time>
      </trkpt>
      <trkpt lat="44.37483" lon="6.909">
        <ele>2192.9</ele>
        <time>2019-03-09T08:43:16Z</time>
      </trkpt>
      <trkpt lat="44.37476" lon="6.90897">
        <ele>2194.83</ele>
        <time>2019-03-09T08:43:30Z</time>
      </trkpt>
      <trkpt lat="44.37473" lon="6.90896">
        <ele>2195.79</ele>
        <time>2019-03-09T08:43:41Z</time>
      </trkpt>
      <trkpt lat="44.37463" lon="6.90894">
        <ele>2196.27</ele>
        <time>2019-03-09T08:43:56Z</time>
      </trkpt>
      <trkpt lat="44.37458" lon="6.90891">
        <ele>2197.71</ele>
        <time>2019-03-09T08:44:12Z</time>
      </trkpt>
      <trkpt lat="44.37449" lon="6.90892">
        <ele>2199.63</ele>
        <time>2019-03-09T08:44:27Z</time>
      </trkpt>
      <trkpt lat="44.37443" lon="6.90895">
        <ele>2201.08</ele>
        <time>2019-03-09T08:44:40Z</time>
      </trkpt>
      <trkpt lat="44.37439" lon="6.90894">
        <ele>2202.52</ele>
        <time>2019-03-09T08:44:53Z</time>
      </trkpt>
      <trkpt lat="44.37432" lon="6.90893">
        <ele>2204.44</ele>
        <time>2019-03-09T08:45:06Z</time>
      </trkpt>
      <trkpt lat="44.3743" lon="6.90887">
        <ele>2206.36</ele>
        <time>2019-03-09T08:45:23Z</time>
      </trkpt>
      <trkpt lat="44.37429" lon="6.90884">
        <ele>2207.81</ele>
        <time>2019-03-09T08:45:38Z</time>
      </trkpt>
      <trkpt lat="44.37423" lon="6.9088">
        <ele>2209.25</ele>
        <time>2019-03-09T08:45:51Z</time>
      </trkpt>
      <trkpt lat="44.37419" lon="6.9088">
        <ele>2209.73</ele>
        <time>2019-03-09T08:46:06Z</time>
      </trkpt>
      <trkpt lat="44.37418" lon="6.90878">
        <ele>2210.69</ele>
        <time>2019-03-09T08:46:20Z</time>
      </trkpt>
      <trkpt lat="44.37421" lon="6.90877">
        <ele>2210.69</ele>
        <time>2019-03-09T08:46:32Z</time>
      </trkpt>
      <trkpt lat="44.37423" lon="6.90877">
        <ele>2210.69</ele>
        <time>2019-03-09T08:46:55Z</time>
      </trkpt>
      <trkpt lat="44.37418" lon="6.90875">
        <ele>2209.73</ele>
        <time>2019-03-09T08:47:19Z</time>
      </trkpt>
      <trkpt lat="44.37416" lon="6.90874">
        <ele>2209.73</ele>
        <time>2019-03-09T08:47:54Z</time>
      </trkpt>
      <trkpt lat="44.37415" lon="6.90874">
        <ele>2209.73</ele>
        <time>2019-03-09T08:48:24Z</time>
      </trkpt>
      <trkpt lat="44.37413" lon="6.90871">
        <ele>2209.73</ele>
        <time>2019-03-09T08:48:55Z</time>
      </trkpt>
      <trkpt lat="44.37413" lon="6.9087">
        <ele>2209.73</ele>
        <time>2019-03-09T08:49:33Z</time>
      </trkpt>
      <trkpt lat="44.37414" lon="6.90871">
        <ele>2209.73</ele>
        <time>2019-03-09T08:50:08Z</time>
      </trkpt>
      <trkpt lat="44.37414" lon="6.90873">
        <ele>2210.21</ele>
        <time>2019-03-09T08:50:39Z</time>
      </trkpt>
      <trkpt lat="44.37416" lon="6.90875">
        <ele>2210.21</ele>
        <time>2019-03-09T08:51:17Z</time>
      </trkpt>
      <trkpt lat="44.37416" lon="6.90874">
        <ele>2210.21</ele>
        <time>2019-03-09T08:51:52Z</time>
      </trkpt>
      <trkpt lat="44.37415" lon="6.90875">
        <ele>2210.21</ele>
        <time>2019-03-09T08:52:34Z</time>
      </trkpt>
      <trkpt lat="44.37414" lon="6.90878">
        <ele>2210.69</ele>
        <time>2019-03-09T08:53:10Z</time>
      </trkpt>
      <trkpt lat="44.37412" lon="6.90881">
        <ele>2210.21</ele>
        <time>2019-03-09T08:53:39Z</time>
      </trkpt>
      <trkpt lat="44.37416" lon="6.90879">
        <ele>2210.69</ele>
        <time>2019-03-09T08:54:14Z</time>
      </trkpt>
      <trkpt lat="44.37416" lon="6.90877">
        <ele>2211.17</ele>
        <time>2019-03-09T08:54:39Z</time>
      </trkpt>
      <trkpt lat="44.37414" lon="6.90875">
        <ele>2211.65</ele>
        <time>2019-03-09T08:55:09Z</time>
      </trkpt>
      <trkpt lat="44.37413" lon="6.90871">
        <ele>2211.65</ele>
        <time>2019-03-09T08:55:38Z</time>
      </trkpt>
      <trkpt lat="44.37414" lon="6.9087">
        <ele>2213.57</ele>
        <time>2019-03-09T08:55:53Z</time>
      </trkpt>
      <trkpt lat="44.37414" lon="6.9087">
        <ele>2211.65</ele>
        <time>2019-03-09T08:55:55Z</time>
      </trkpt>
      <trkpt lat="44.37412" lon="6.90872">
        <ele>2211.65</ele>
        <time>2019-03-09T08:56:18Z</time>
      </trkpt>
      <trkpt lat="44.37412" lon="6.90869">
        <ele>2211.65</ele>
        <time>2019-03-09T08:56:48Z</time>
      </trkpt>
      <trkpt lat="44.37413" lon="6.90871">
        <ele>2211.65</ele>
        <time>2019-03-09T08:57:17Z</time>
      </trkpt>
      <trkpt lat="44.37413" lon="6.90871">
        <ele>2211.65</ele>
        <time>2019-03-09T08:57:38Z</time>
      </trkpt>
      <trkpt lat="44.37419" lon="6.90875">
        <ele>2212.61</ele>
        <time>2019-03-09T08:57:52Z</time>
      </trkpt>
      <trkpt lat="44.37415" lon="6.90878">
        <ele>2212.61</ele>
        <time>2019-03-09T08:58:06Z</time>
      </trkpt>
      <trkpt lat="44.37409" lon="6.90881">
        <ele>2212.61</ele>
        <time>2019-03-09T08:58:19Z</time>
      </trkpt>
      <trkpt lat="44.37403" lon="6.90889">
        <ele>2215.01</ele>
        <time>2019-03-09T08:58:35Z</time>
      </trkpt>
      <trkpt lat="44.37402" lon="6.9089">
        <ele>2214.05</ele>
        <time>2019-03-09T08:58:36Z</time>
      </trkpt>
      <trkpt lat="44.37396" lon="6.90898">
        <ele>2215.01</ele>
        <time>2019-03-09T08:58:51Z</time>
      </trkpt>
      <trkpt lat="44.37391" lon="6.90906">
        <ele>2216.94</ele>
        <time>2019-03-09T08:59:06Z</time>
      </trkpt>
      <trkpt lat="44.37386" lon="6.90909">
        <ele>2217.9</ele>
        <time>2019-03-09T08:59:21Z</time>
      </trkpt>
      <trkpt lat="44.37381" lon="6.90911">
        <ele>2220.3</ele>
        <time>2019-03-09T08:59:35Z</time>
      </trkpt>
      <trkpt lat="44.37369" lon="6.90909">
        <ele>2221.26</ele>
        <time>2019-03-09T08:59:51Z</time>
      </trkpt>
      <trkpt lat="44.37362" lon="6.90905">
        <ele>2222.22</ele>
        <time>2019-03-09T09:00:03Z</time>
      </trkpt>
      <trkpt lat="44.37356" lon="6.90901">
        <ele>2223.67</ele>
        <time>2019-03-09T09:00:17Z</time>
      </trkpt>
      <trkpt lat="44.37351" lon="6.90898">
        <ele>2224.63</ele>
        <time>2019-03-09T09:00:32Z</time>
      </trkpt>
      <trkpt lat="44.37342" lon="6.90893">
        <ele>2226.55</ele>
        <time>2019-03-09T09:00:50Z</time>
      </trkpt>
      <trkpt lat="44.37336" lon="6.9089">
        <ele>2227.99</ele>
        <time>2019-03-09T09:01:03Z</time>
      </trkpt>
      <trkpt lat="44.37331" lon="6.90885">
        <ele>2229.43</ele>
        <time>2019-03-09T09:01:18Z</time>
      </trkpt>
      <trkpt lat="44.37325" lon="6.90881">
        <ele>2231.36</ele>
        <time>2019-03-09T09:01:35Z</time>
      </trkpt>
      <trkpt lat="44.37319" lon="6.90879">
        <ele>2232.8</ele>
        <time>2019-03-09T09:01:49Z</time>
      </trkpt>
      <trkpt lat="44.37315" lon="6.90876">
        <ele>2234.72</ele>
        <time>2019-03-09T09:02:05Z</time>
      </trkpt>
      <trkpt lat="44.37311" lon="6.90871">
        <ele>2236.64</ele>
        <time>2019-03-09T09:02:22Z</time>
      </trkpt>
      <trkpt lat="44.37307" lon="6.90864">
        <ele>2239.53</ele>
        <time>2019-03-09T09:02:36Z</time>
      </trkpt>
      <trkpt lat="44.37302" lon="6.90863">
        <ele>2240.01</ele>
        <time>2019-03-09T09:02:50Z</time>
      </trkpt>
      <trkpt lat="44.37295" lon="6.90861">
        <ele>2241.93</ele>
        <time>2019-03-09T09:03:05Z</time>
      </trkpt>
      <trkpt lat="44.3729" lon="6.90857">
        <ele>2243.85</ele>
        <time>2019-03-09T09:03:20Z</time>
      </trkpt>
      <trkpt lat="44.37283" lon="6.90851">
        <ele>2245.3</ele>
        <time>2019-03-09T09:03:38Z</time>
      </trkpt>
      <trkpt lat="44.37275" lon="6.90849">
        <ele>2246.74</ele>
        <time>2019-03-09T09:03:53Z</time>
      </trkpt>
      <trkpt lat="44.37266" lon="6.90849">
        <ele>2248.18</ele>
        <time>2019-03-09T09:04:11Z</time>
      </trkpt>
      <trkpt lat="44.37258" lon="6.90851">
        <ele>2249.62</ele>
        <time>2019-03-09T09:04:25Z</time>
      </trkpt>
      <trkpt lat="44.3725" lon="6.90851">
        <ele>2250.58</ele>
        <time>2019-03-09T09:04:40Z</time>
      </trkpt>
      <trkpt lat="44.37244" lon="6.90849">
        <ele>2252.03</ele>
        <time>2019-03-09T09:04:56Z</time>
      </trkpt>
      <trkpt lat="44.37244" lon="6.90858">
        <ele>2253.47</ele>
        <time>2019-03-09T09:05:10Z</time>
      </trkpt>
      <trkpt lat="44.37236" lon="6.90862">
        <ele>2255.39</ele>
        <time>2019-03-09T09:05:30Z</time>
      </trkpt>
      <trkpt lat="44.37227" lon="6.90863">
        <ele>2256.83</ele>
        <time>2019-03-09T09:05:47Z</time>
      </trkpt>
      <trkpt lat="44.3722" lon="6.90864">
        <ele>2257.79</ele>
        <time>2019-03-09T09:06:01Z</time>
      </trkpt>
      <trkpt lat="44.37211" lon="6.90864">
        <ele>2258.75</ele>
        <time>2019-03-09T09:06:20Z</time>
      </trkpt>
      <trkpt lat="44.37211" lon="6.90869">
        <ele>2258.75</ele>
        <time>2019-03-09T09:06:34Z</time>
      </trkpt>
      <trkpt lat="44.37206" lon="6.90875">
        <ele>2260.68</ele>
        <time>2019-03-09T09:06:48Z</time>
      </trkpt>
      <trkpt lat="44.37208" lon="6.90877">
        <ele>2262.12</ele>
        <time>2019-03-09T09:07:02Z</time>
      </trkpt>
      <trkpt lat="44.37211" lon="6.90883">
        <ele>2262.12</ele>
        <time>2019-03-09T09:07:20Z</time>
      </trkpt>
      <trkpt lat="44.3721" lon="6.90887">
        <ele>2261.64</ele>
        <time>2019-03-09T09:07:35Z</time>
      </trkpt>
      <trkpt lat="44.37206" lon="6.90885">
        <ele>2260.68</ele>
        <time>2019-03-09T09:07:55Z</time>
      </trkpt>
      <trkpt lat="44.37203" lon="6.90882">
        <ele>2260.68</ele>
        <time>2019-03-09T09:08:20Z</time>
      </trkpt>
      <trkpt lat="44.37198" lon="6.9088">
        <ele>2262.12</ele>
        <time>2019-03-09T09:08:39Z</time>
      </trkpt>
      <trkpt lat="44.37198" lon="6.90879">
        <ele>2260.68</ele>
        <time>2019-03-09T09:08:40Z</time>
      </trkpt>
      <trkpt lat="44.37206" lon="6.90879">
        <ele>2260.68</ele>
        <time>2019-03-09T09:09:09Z</time>
      </trkpt>
      <trkpt lat="44.3721" lon="6.90883">
        <ele>2260.68</ele>
        <time>2019-03-09T09:09:40Z</time>
      </trkpt>
      <trkpt lat="44.3721" lon="6.9088">
        <ele>2262.6</ele>
        <time>2019-03-09T09:09:57Z</time>
      </trkpt>
      <trkpt lat="44.37201" lon="6.9088">
        <ele>2262.6</ele>
        <time>2019-03-09T09:10:16Z</time>
      </trkpt>
      <trkpt lat="44.37194" lon="6.90881">
        <ele>2262.12</ele>
        <time>2019-03-09T09:10:36Z</time>
      </trkpt>
      <trkpt lat="44.37178" lon="6.90873">
        <ele>2262.12</ele>
        <time>2019-03-09T09:10:51Z</time>
      </trkpt>
      <trkpt lat="44.37169" lon="6.9087">
        <ele>2261.16</ele>
        <time>2019-03-09T09:11:05Z</time>
      </trkpt>
      <trkpt lat="44.37162" lon="6.90869">
        <ele>2262.12</ele>
        <time>2019-03-09T09:11:20Z</time>
      </trkpt>
      <trkpt lat="44.37162" lon="6.90864">
        <ele>2263.56</ele>
        <time>2019-03-09T09:11:34Z</time>
      </trkpt>
      <trkpt lat="44.37164" lon="6.90858">
        <ele>2264.52</ele>
        <time>2019-03-09T09:11:46Z</time>
      </trkpt>
      <trkpt lat="44.37168" lon="6.90852">
        <ele>2266.45</ele>
        <time>2019-03-09T09:12:01Z</time>
      </trkpt>
      <trkpt lat="44.3717" lon="6.90845">
        <ele>2268.37</ele>
        <time>2019-03-09T09:12:20Z</time>
      </trkpt>
      <trkpt lat="44.37174" lon="6.9084">
        <ele>2269.81</ele>
        <time>2019-03-09T09:12:36Z</time>
      </trkpt>
      <trkpt lat="44.37176" lon="6.90835">
        <ele>2271.73</ele>
        <time>2019-03-09T09:12:51Z</time>
      </trkpt>
      <trkpt lat="44.37177" lon="6.9083">
        <ele>2273.17</ele>
        <time>2019-03-09T09:13:06Z</time>
      </trkpt>
      <trkpt lat="44.37167" lon="6.90828">
        <ele>2275.1</ele>
        <time>2019-03-09T09:13:22Z</time>
      </trkpt>
      <trkpt lat="44.37163" lon="6.90824">
        <ele>2276.06</ele>
        <time>2019-03-09T09:13:36Z</time>
      </trkpt>
      <trkpt lat="44.37157" lon="6.90824">
        <ele>2277.5</ele>
        <time>2019-03-09T09:13:50Z</time>
      </trkpt>
      <trkpt lat="44.37151" lon="6.90823">
        <ele>2278.94</ele>
        <time>2019-03-09T09:14:06Z</time>
      </trkpt>
      <trkpt lat="44.37147" lon="6.90824">
        <ele>2280.38</ele>
        <time>2019-03-09T09:14:19Z</time>
      </trkpt>
      <trkpt lat="44.37143" lon="6.90825">
        <ele>2281.83</ele>
        <time>2019-03-09T09:14:33Z</time>
      </trkpt>
      <trkpt lat="44.37137" lon="6.90825">
        <ele>2282.79</ele>
        <time>2019-03-09T09:14:46Z</time>
      </trkpt>
      <trkpt lat="44.37133" lon="6.90827">
        <ele>2284.23</ele>
        <time>2019-03-09T09:14:59Z</time>
      </trkpt>
      <trkpt lat="44.3713" lon="6.90829">
        <ele>2285.19</ele>
        <time>2019-03-09T09:15:12Z</time>
      </trkpt>
      <trkpt lat="44.37126" lon="6.90831">
        <ele>2286.63</ele>
        <time>2019-03-09T09:15:26Z</time>
      </trkpt>
      <trkpt lat="44.37121" lon="6.90835">
        <ele>2288.08</ele>
        <time>2019-03-09T09:15:41Z</time>
      </trkpt>
      <trkpt lat="44.37116" lon="6.90838">
        <ele>2289.52</ele>
        <time>2019-03-09T09:15:55Z</time>
      </trkpt>
      <trkpt lat="44.37113" lon="6.90839">
        <ele>2290.48</ele>
        <time>2019-03-09T09:16:10Z</time>
      </trkpt>
      <trkpt lat="44.37108" lon="6.90843">
        <ele>2291.92</ele>
        <time>2019-03-09T09:16:24Z</time>
      </trkpt>
      <trkpt lat="44.37103" lon="6.90845">
        <ele>2293.84</ele>
        <time>2019-03-09T09:16:38Z</time>
      </trkpt>
      <trkpt lat="44.37099" lon="6.90847">
        <ele>2294.8</ele>
        <time>2019-03-09T09:16:51Z</time>
      </trkpt>
      <trkpt lat="44.37094" lon="6.9085">
        <ele>2296.25</ele>
        <time>2019-03-09T09:17:07Z</time>
      </trkpt>
      <trkpt lat="44.3709" lon="6.90849">
        <ele>2297.69</ele>
        <time>2019-03-09T09:17:24Z</time>
      </trkpt>
      <trkpt lat="44.37084" lon="6.90849">
        <ele>2299.13</ele>
        <time>2019-03-09T09:17:37Z</time>
      </trkpt>
      <trkpt lat="44.37078" lon="6.90848">
        <ele>2300.57</ele>
        <time>2019-03-09T09:17:51Z</time>
      </trkpt>
      <trkpt lat="44.37071" lon="6.9085">
        <ele>2302.49</ele>
        <time>2019-03-09T09:18:06Z</time>
      </trkpt>
      <trkpt lat="44.37065" lon="6.90849">
        <ele>2303.94</ele>
        <time>2019-03-09T09:18:22Z</time>
      </trkpt>
      <trkpt lat="44.3706" lon="6.90849">
        <ele>2306.34</ele>
        <time>2019-03-09T09:18:39Z</time>
      </trkpt>
      <trkpt lat="44.37053" lon="6.9085">
        <ele>2307.78</ele>
        <time>2019-03-09T09:18:54Z</time>
      </trkpt>
      <trkpt lat="44.37047" lon="6.9085">
        <ele>2309.7</ele>
        <time>2019-03-09T09:19:09Z</time>
      </trkpt>
      <trkpt lat="44.37042" lon="6.9085">
        <ele>2311.15</ele>
        <time>2019-03-09T09:19:23Z</time>
      </trkpt>
      <trkpt lat="44.37035" lon="6.90849">
        <ele>2313.07</ele>
        <time>2019-03-09T09:19:39Z</time>
      </trkpt>
      <trkpt lat="44.37029" lon="6.9085">
        <ele>2314.51</ele>
        <time>2019-03-09T09:19:53Z</time>
      </trkpt>
      <trkpt lat="44.37023" lon="6.90851">
        <ele>2315.95</ele>
        <time>2019-03-09T09:20:08Z</time>
      </trkpt>
      <trkpt lat="44.37018" lon="6.90851">
        <ele>2317.4</ele>
        <time>2019-03-09T09:20:24Z</time>
      </trkpt>
      <trkpt lat="44.37012" lon="6.9085">
        <ele>2319.32</ele>
        <time>2019-03-09T09:20:39Z</time>
      </trkpt>
      <trkpt lat="44.37006" lon="6.90847">
        <ele>2320.76</ele>
        <time>2019-03-09T09:20:54Z</time>
      </trkpt>
      <trkpt lat="44.37001" lon="6.90842">
        <ele>2322.68</ele>
        <time>2019-03-09T09:21:11Z</time>
      </trkpt>
      <trkpt lat="44.36997" lon="6.90838">
        <ele>2324.12</ele>
        <time>2019-03-09T09:21:26Z</time>
      </trkpt>
      <trkpt lat="44.36992" lon="6.90833">
        <ele>2325.57</ele>
        <time>2019-03-09T09:21:41Z</time>
      </trkpt>
      <trkpt lat="44.36986" lon="6.90833">
        <ele>2327.01</ele>
        <time>2019-03-09T09:21:55Z</time>
      </trkpt>
      <trkpt lat="44.3698" lon="6.90835">
        <ele>2328.93</ele>
        <time>2019-03-09T09:22:12Z</time>
      </trkpt>
      <trkpt lat="44.36976" lon="6.90835">
        <ele>2330.85</ele>
        <time>2019-03-09T09:22:27Z</time>
      </trkpt>
      <trkpt lat="44.36972" lon="6.90831">
        <ele>2332.3</ele>
        <time>2019-03-09T09:22:42Z</time>
      </trkpt>
      <trkpt lat="44.36971" lon="6.90826">
        <ele>2333.74</ele>
        <time>2019-03-09T09:22:54Z</time>
      </trkpt>
      <trkpt lat="44.36969" lon="6.90819">
        <ele>2335.18</ele>
        <time>2019-03-09T09:23:08Z</time>
      </trkpt>
      <trkpt lat="44.36964" lon="6.90812">
        <ele>2336.14</ele>
        <time>2019-03-09T09:23:21Z</time>
      </trkpt>
      <trkpt lat="44.36961" lon="6.90805">
        <ele>2337.1</ele>
        <time>2019-03-09T09:23:34Z</time>
      </trkpt>
      <trkpt lat="44.3696" lon="6.90798">
        <ele>2338.06</ele>
        <time>2019-03-09T09:23:48Z</time>
      </trkpt>
      <trkpt lat="44.3696" lon="6.9079">
        <ele>2339.51</ele>
        <time>2019-03-09T09:24:01Z</time>
      </trkpt>
      <trkpt lat="44.36962" lon="6.9078">
        <ele>2341.43</ele>
        <time>2019-03-09T09:24:17Z</time>
      </trkpt>
      <trkpt lat="44.36965" lon="6.90773">
        <ele>2342.87</ele>
        <time>2019-03-09T09:24:33Z</time>
      </trkpt>
      <trkpt lat="44.36968" lon="6.90767">
        <ele>2344.79</ele>
        <time>2019-03-09T09:24:47Z</time>
      </trkpt>
      <trkpt lat="44.36968" lon="6.90758">
        <ele>2346.72</ele>
        <time>2019-03-09T09:25:04Z</time>
      </trkpt>
      <trkpt lat="44.36965" lon="6.90749">
        <ele>2348.16</ele>
        <time>2019-03-09T09:25:18Z</time>
      </trkpt>
      <trkpt lat="44.36963" lon="6.90741">
        <ele>2349.6</ele>
        <time>2019-03-09T09:25:33Z</time>
      </trkpt>
      <trkpt lat="44.36958" lon="6.90731">
        <ele>2351.04</ele>
        <time>2019-03-09T09:25:47Z</time>
      </trkpt>
      <trkpt lat="44.36952" lon="6.90726">
        <ele>2352.48</ele>
        <time>2019-03-09T09:26:04Z</time>
      </trkpt>
      <trkpt lat="44.36943" lon="6.90719">
        <ele>2354.41</ele>
        <time>2019-03-09T09:26:26Z</time>
      </trkpt>
      <trkpt lat="44.36942" lon="6.90715">
        <ele>2353.93</ele>
        <time>2019-03-09T09:26:44Z</time>
      </trkpt>
      <trkpt lat="44.36939" lon="6.90712">
        <ele>2354.41</ele>
        <time>2019-03-09T09:26:49Z</time>
      </trkpt>
      <trkpt lat="44.36927" lon="6.90704">
        <ele>2355.85</ele>
        <time>2019-03-09T09:27:06Z</time>
      </trkpt>
      <trkpt lat="44.36918" lon="6.90698">
        <ele>2355.85</ele>
        <time>2019-03-09T09:27:20Z</time>
      </trkpt>
      <trkpt lat="44.36909" lon="6.90691">
        <ele>2356.81</ele>
        <time>2019-03-09T09:27:34Z</time>
      </trkpt>
      <trkpt lat="44.369" lon="6.90684">
        <ele>2357.29</ele>
        <time>2019-03-09T09:27:48Z</time>
      </trkpt>
      <trkpt lat="44.36891" lon="6.9068">
        <ele>2358.25</ele>
        <time>2019-03-09T09:28:03Z</time>
      </trkpt>
      <trkpt lat="44.3689" lon="6.90679">
        <ele>2357.77</ele>
        <time>2019-03-09T09:28:21Z</time>
      </trkpt>
      <trkpt lat="44.3689" lon="6.90679">
        <ele>2357.77</ele>
        <time>2019-03-09T09:28:24Z</time>
      </trkpt>
      <trkpt lat="44.36881" lon="6.90681">
        <ele>2356.33</ele>
        <time>2019-03-09T09:28:35Z</time>
      </trkpt>
      <trkpt lat="44.3687" lon="6.90672">
        <ele>2355.37</ele>
        <time>2019-03-09T09:28:49Z</time>
      </trkpt>
      <trkpt lat="44.36864" lon="6.90659">
        <ele>2354.89</ele>
        <time>2019-03-09T09:29:04Z</time>
      </trkpt>
      <trkpt lat="44.36856" lon="6.90645">
        <ele>2354.41</ele>
        <time>2019-03-09T09:29:18Z</time>
      </trkpt>
      <trkpt lat="44.36855" lon="6.90641">
        <ele>2353.93</ele>
        <time>2019-03-09T09:29:38Z</time>
      </trkpt>
      <trkpt lat="44.3685" lon="6.90625">
        <ele>2352.96</ele>
        <time>2019-03-09T09:29:59Z</time>
      </trkpt>
      <trkpt lat="44.36843" lon="6.90611">
        <ele>2352.96</ele>
        <time>2019-03-09T09:30:14Z</time>
      </trkpt>
      <trkpt lat="44.36837" lon="6.90596">
        <ele>2352.48</ele>
        <time>2019-03-09T09:30:29Z</time>
      </trkpt>
      <trkpt lat="44.36829" lon="6.90581">
        <ele>2353.44</ele>
        <time>2019-03-09T09:30:46Z</time>
      </trkpt>
      <trkpt lat="44.36822" lon="6.9057">
        <ele>2353.93</ele>
        <time>2019-03-09T09:30:59Z</time>
      </trkpt>
      <trkpt lat="44.36815" lon="6.90558">
        <ele>2354.89</ele>
        <time>2019-03-09T09:31:13Z</time>
      </trkpt>
      <trkpt lat="44.36807" lon="6.90545">
        <ele>2355.37</ele>
        <time>2019-03-09T09:31:27Z</time>
      </trkpt>
      <trkpt lat="44.36801" lon="6.90534">
        <ele>2356.33</ele>
        <time>2019-03-09T09:31:41Z</time>
      </trkpt>
      <trkpt lat="44.36794" lon="6.90522">
        <ele>2356.81</ele>
        <time>2019-03-09T09:31:55Z</time>
      </trkpt>
      <trkpt lat="44.36785" lon="6.9051">
        <ele>2358.25</ele>
        <time>2019-03-09T09:32:11Z</time>
      </trkpt>
      <trkpt lat="44.36776" lon="6.90502">
        <ele>2358.73</ele>
        <time>2019-03-09T09:32:26Z</time>
      </trkpt>
      <trkpt lat="44.36766" lon="6.90493">
        <ele>2359.21</ele>
        <time>2019-03-09T09:32:43Z</time>
      </trkpt>
      <trkpt lat="44.36757" lon="6.90483">
        <ele>2360.17</ele>
        <time>2019-03-09T09:32:58Z</time>
      </trkpt>
      <trkpt lat="44.36749" lon="6.90474">
        <ele>2361.14</ele>
        <time>2019-03-09T09:33:14Z</time>
      </trkpt>
      <trkpt lat="44.3674" lon="6.90466">
        <ele>2362.1</ele>
        <time>2019-03-09T09:33:30Z</time>
      </trkpt>
      <trkpt lat="44.3673" lon="6.90457">
        <ele>2363.06</ele>
        <time>2019-03-09T09:33:45Z</time>
      </trkpt>
      <trkpt lat="44.36721" lon="6.9045">
        <ele>2363.54</ele>
        <time>2019-03-09T09:33:59Z</time>
      </trkpt>
      <trkpt lat="44.36712" lon="6.90443">
        <ele>2364.5</ele>
        <time>2019-03-09T09:34:14Z</time>
      </trkpt>
      <trkpt lat="44.36703" lon="6.90438">
        <ele>2365.94</ele>
        <time>2019-03-09T09:34:28Z</time>
      </trkpt>
      <trkpt lat="44.36696" lon="6.9043">
        <ele>2366.9</ele>
        <time>2019-03-09T09:34:43Z</time>
      </trkpt>
      <trkpt lat="44.36689" lon="6.90425">
        <ele>2368.35</ele>
        <time>2019-03-09T09:34:56Z</time>
      </trkpt>
      <trkpt lat="44.36683" lon="6.90418">
        <ele>2369.79</ele>
        <time>2019-03-09T09:35:10Z</time>
      </trkpt>
      <trkpt lat="44.36674" lon="6.90411">
        <ele>2371.71</ele>
        <time>2019-03-09T09:35:29Z</time>
      </trkpt>
      <trkpt lat="44.36668" lon="6.90404">
        <ele>2373.15</ele>
        <time>2019-03-09T09:35:46Z</time>
      </trkpt>
      <trkpt lat="44.3666" lon="6.90396">
        <ele>2375.07</ele>
        <time>2019-03-09T09:36:03Z</time>
      </trkpt>
      <trkpt lat="44.36654" lon="6.90389">
        <ele>2377</ele>
        <time>2019-03-09T09:36:19Z</time>
      </trkpt>
      <trkpt lat="44.3665" lon="6.90385">
        <ele>2378.44</ele>
        <time>2019-03-09T09:36:35Z</time>
      </trkpt>
      <trkpt lat="44.36647" lon="6.9038">
        <ele>2379.88</ele>
        <time>2019-03-09T09:36:50Z</time>
      </trkpt>
      <trkpt lat="44.36641" lon="6.90375">
        <ele>2381.32</ele>
        <time>2019-03-09T09:37:05Z</time>
      </trkpt>
      <trkpt lat="44.36635" lon="6.90371">
        <ele>2382.76</ele>
        <time>2019-03-09T09:37:21Z</time>
      </trkpt>
      <trkpt lat="44.36629" lon="6.90368">
        <ele>2384.21</ele>
        <time>2019-03-09T09:37:37Z</time>
      </trkpt>
      <trkpt lat="44.36624" lon="6.90364">
        <ele>2385.65</ele>
        <time>2019-03-09T09:37:52Z</time>
      </trkpt>
      <trkpt lat="44.36619" lon="6.90363">
        <ele>2387.09</ele>
        <time>2019-03-09T09:38:07Z</time>
      </trkpt>
      <trkpt lat="44.36614" lon="6.90362">
        <ele>2388.53</ele>
        <time>2019-03-09T09:38:21Z</time>
      </trkpt>
      <trkpt lat="44.3661" lon="6.90359">
        <ele>2389.97</ele>
        <time>2019-03-09T09:38:35Z</time>
      </trkpt>
      <trkpt lat="44.36606" lon="6.90355">
        <ele>2392.38</ele>
        <time>2019-03-09T09:38:48Z</time>
      </trkpt>
      <trkpt lat="44.36602" lon="6.90349">
        <ele>2392.38</ele>
        <time>2019-03-09T09:39:03Z</time>
      </trkpt>
      <trkpt lat="44.36598" lon="6.90343">
        <ele>2393.82</ele>
        <time>2019-03-09T09:39:19Z</time>
      </trkpt>
      <trkpt lat="44.36594" lon="6.90338">
        <ele>2395.26</ele>
        <time>2019-03-09T09:39:31Z</time>
      </trkpt>
      <trkpt lat="44.36589" lon="6.90333">
        <ele>2396.7</ele>
        <time>2019-03-09T09:39:47Z</time>
      </trkpt>
      <trkpt lat="44.36584" lon="6.90331">
        <ele>2398.15</ele>
        <time>2019-03-09T09:40:03Z</time>
      </trkpt>
      <trkpt lat="44.36579" lon="6.90328">
        <ele>2399.59</ele>
        <time>2019-03-09T09:40:18Z</time>
      </trkpt>
      <trkpt lat="44.36575" lon="6.90324">
        <ele>2401.03</ele>
        <time>2019-03-09T09:40:32Z</time>
      </trkpt>
      <trkpt lat="44.36572" lon="6.90319">
        <ele>2401.99</ele>
        <time>2019-03-09T09:40:46Z</time>
      </trkpt>
      <trkpt lat="44.36568" lon="6.90314">
        <ele>2403.43</ele>
        <time>2019-03-09T09:41:00Z</time>
      </trkpt>
      <trkpt lat="44.36562" lon="6.90309">
        <ele>2404.88</ele>
        <time>2019-03-09T09:41:15Z</time>
      </trkpt>
      <trkpt lat="44.36557" lon="6.90303">
        <ele>2406.8</ele>
        <time>2019-03-09T09:41:32Z</time>
      </trkpt>
      <trkpt lat="44.36554" lon="6.90299">
        <ele>2408.24</ele>
        <time>2019-03-09T09:41:48Z</time>
      </trkpt>
      <trkpt lat="44.3655" lon="6.90294">
        <ele>2409.68</ele>
        <time>2019-03-09T09:42:03Z</time>
      </trkpt>
      <trkpt lat="44.36546" lon="6.90288">
        <ele>2411.6</ele>
        <time>2019-03-09T09:42:20Z</time>
      </trkpt>
      <trkpt lat="44.36543" lon="6.90282">
        <ele>2413.05</ele>
        <time>2019-03-09T09:42:34Z</time>
      </trkpt>
      <trkpt lat="44.36541" lon="6.9028">
        <ele>2413.05</ele>
        <time>2019-03-09T09:42:57Z</time>
      </trkpt>
      <trkpt lat="44.36539" lon="6.90274">
        <ele>2414.97</ele>
        <time>2019-03-09T09:43:10Z</time>
      </trkpt>
      <trkpt lat="44.36535" lon="6.90268">
        <ele>2417.37</ele>
        <time>2019-03-09T09:43:26Z</time>
      </trkpt>
      <trkpt lat="44.36532" lon="6.90264">
        <ele>2418.33</ele>
        <time>2019-03-09T09:43:40Z</time>
      </trkpt>
      <trkpt lat="44.36528" lon="6.90259">
        <ele>2420.26</ele>
        <time>2019-03-09T09:43:55Z</time>
      </trkpt>
      <trkpt lat="44.36525" lon="6.90251">
        <ele>2422.18</ele>
        <time>2019-03-09T09:44:11Z</time>
      </trkpt>
      <trkpt lat="44.36521" lon="6.90245">
        <ele>2423.62</ele>
        <time>2019-03-09T09:44:24Z</time>
      </trkpt>
      <trkpt lat="44.36519" lon="6.9024">
        <ele>2425.06</ele>
        <time>2019-03-09T09:44:38Z</time>
      </trkpt>
      <trkpt lat="44.36517" lon="6.90235">
        <ele>2426.5</ele>
        <time>2019-03-09T09:44:54Z</time>
      </trkpt>
      <trkpt lat="44.36514" lon="6.90226">
        <ele>2427.95</ele>
        <time>2019-03-09T09:45:09Z</time>
      </trkpt>
      <trkpt lat="44.36511" lon="6.9022">
        <ele>2429.39</ele>
        <time>2019-03-09T09:45:22Z</time>
      </trkpt>
      <trkpt lat="44.36509" lon="6.90213">
        <ele>2430.83</ele>
        <time>2019-03-09T09:45:36Z</time>
      </trkpt>
      <trkpt lat="44.36505" lon="6.90206">
        <ele>2431.31</ele>
        <time>2019-03-09T09:45:47Z</time>
      </trkpt>
      <trkpt lat="44.36505" lon="6.90201">
        <ele>2432.75</ele>
        <time>2019-03-09T09:46:01Z</time>
      </trkpt>
      <trkpt lat="44.36501" lon="6.9019">
        <ele>2434.68</ele>
        <time>2019-03-09T09:46:18Z</time>
      </trkpt>
      <trkpt lat="44.36497" lon="6.90183">
        <ele>2435.64</ele>
        <time>2019-03-09T09:46:34Z</time>
      </trkpt>
      <trkpt lat="44.36496" lon="6.90174">
        <ele>2437.08</ele>
        <time>2019-03-09T09:46:48Z</time>
      </trkpt>
      <trkpt lat="44.36491" lon="6.90171">
        <ele>2438.52</ele>
        <time>2019-03-09T09:47:03Z</time>
      </trkpt>
      <trkpt lat="44.36488" lon="6.90163">
        <ele>2439.48</ele>
        <time>2019-03-09T09:47:18Z</time>
      </trkpt>
      <trkpt lat="44.36487" lon="6.90157">
        <ele>2440.44</ele>
        <time>2019-03-09T09:47:31Z</time>
      </trkpt>
      <trkpt lat="44.36483" lon="6.90146">
        <ele>2441.89</ele>
        <time>2019-03-09T09:47:46Z</time>
      </trkpt>
      <trkpt lat="44.36482" lon="6.90137">
        <ele>2442.85</ele>
        <time>2019-03-09T09:47:59Z</time>
      </trkpt>
      <trkpt lat="44.36479" lon="6.90129">
        <ele>2443.81</ele>
        <time>2019-03-09T09:48:12Z</time>
      </trkpt>
      <trkpt lat="44.36477" lon="6.90121">
        <ele>2444.77</ele>
        <time>2019-03-09T09:48:26Z</time>
      </trkpt>
      <trkpt lat="44.36473" lon="6.90111">
        <ele>2445.73</ele>
        <time>2019-03-09T09:48:41Z</time>
      </trkpt>
      <trkpt lat="44.36471" lon="6.901">
        <ele>2447.17</ele>
        <time>2019-03-09T09:49:00Z</time>
      </trkpt>
      <trkpt lat="44.36466" lon="6.9009">
        <ele>2448.13</ele>
        <time>2019-03-09T09:49:16Z</time>
      </trkpt>
      <trkpt lat="44.3646" lon="6.9008">
        <ele>2449.58</ele>
        <time>2019-03-09T09:49:33Z</time>
      </trkpt>
      <trkpt lat="44.36454" lon="6.90072">
        <ele>2450.54</ele>
        <time>2019-03-09T09:49:47Z</time>
      </trkpt>
      <trkpt lat="44.3645" lon="6.90063">
        <ele>2451.98</ele>
        <time>2019-03-09T09:50:04Z</time>
      </trkpt>
      <trkpt lat="44.36443" lon="6.90055">
        <ele>2453.42</ele>
        <time>2019-03-09T09:50:21Z</time>
      </trkpt>
      <trkpt lat="44.36437" lon="6.90046">
        <ele>2454.86</ele>
        <time>2019-03-09T09:50:39Z</time>
      </trkpt>
      <trkpt lat="44.36431" lon="6.90038">
        <ele>2455.82</ele>
        <time>2019-03-09T09:50:53Z</time>
      </trkpt>
      <trkpt lat="44.36424" lon="6.90032">
        <ele>2456.79</ele>
        <time>2019-03-09T09:51:07Z</time>
      </trkpt>
      <trkpt lat="44.36422" lon="6.90027">
        <ele>2457.75</ele>
        <time>2019-03-09T09:51:22Z</time>
      </trkpt>
      <trkpt lat="44.36414" lon="6.90018">
        <ele>2459.67</ele>
        <time>2019-03-09T09:51:40Z</time>
      </trkpt>
      <trkpt lat="44.3641" lon="6.90011">
        <ele>2461.11</ele>
        <time>2019-03-09T09:51:55Z</time>
      </trkpt>
      <trkpt lat="44.36406" lon="6.90004">
        <ele>2462.07</ele>
        <time>2019-03-09T09:52:08Z</time>
      </trkpt>
      <trkpt lat="44.36402" lon="6.89998">
        <ele>2462.55</ele>
        <time>2019-03-09T09:52:22Z</time>
      </trkpt>
      <trkpt lat="44.36398" lon="6.89988">
        <ele>2464</ele>
        <time>2019-03-09T09:52:39Z</time>
      </trkpt>
      <trkpt lat="44.36395" lon="6.89981">
        <ele>2464.48</ele>
        <time>2019-03-09T09:52:53Z</time>
      </trkpt>
      <trkpt lat="44.36393" lon="6.89974">
        <ele>2464.96</ele>
        <time>2019-03-09T09:53:04Z</time>
      </trkpt>
      <trkpt lat="44.36388" lon="6.89965">
        <ele>2466.4</ele>
        <time>2019-03-09T09:53:20Z</time>
      </trkpt>
      <trkpt lat="44.36384" lon="6.89958">
        <ele>2467.84</ele>
        <time>2019-03-09T09:53:34Z</time>
      </trkpt>
      <trkpt lat="44.3638" lon="6.89953">
        <ele>2468.8</ele>
        <time>2019-03-09T09:53:49Z</time>
      </trkpt>
      <trkpt lat="44.36376" lon="6.89946">
        <ele>2470.24</ele>
        <time>2019-03-09T09:54:04Z</time>
      </trkpt>
      <trkpt lat="44.36374" lon="6.89939">
        <ele>2471.21</ele>
        <time>2019-03-09T09:54:18Z</time>
      </trkpt>
      <trkpt lat="44.3637" lon="6.89932">
        <ele>2472.65</ele>
        <time>2019-03-09T09:54:32Z</time>
      </trkpt>
      <trkpt lat="44.36367" lon="6.89926">
        <ele>2473.61</ele>
        <time>2019-03-09T09:54:47Z</time>
      </trkpt>
      <trkpt lat="44.36363" lon="6.89921">
        <ele>2475.53</ele>
        <time>2019-03-09T09:55:02Z</time>
      </trkpt>
      <trkpt lat="44.3636" lon="6.89917">
        <ele>2476.49</ele>
        <time>2019-03-09T09:55:16Z</time>
      </trkpt>
      <trkpt lat="44.36355" lon="6.89912">
        <ele>2477.94</ele>
        <time>2019-03-09T09:55:31Z</time>
      </trkpt>
      <trkpt lat="44.36351" lon="6.89906">
        <ele>2478.9</ele>
        <time>2019-03-09T09:55:45Z</time>
      </trkpt>
      <trkpt lat="44.36347" lon="6.89902">
        <ele>2480.34</ele>
        <time>2019-03-09T09:56:00Z</time>
      </trkpt>
      <trkpt lat="44.36344" lon="6.89897">
        <ele>2481.3</ele>
        <time>2019-03-09T09:56:12Z</time>
      </trkpt>
      <trkpt lat="44.36341" lon="6.89893">
        <ele>2482.74</ele>
        <time>2019-03-09T09:56:25Z</time>
      </trkpt>
      <trkpt lat="44.36339" lon="6.89888">
        <ele>2483.22</ele>
        <time>2019-03-09T09:56:38Z</time>
      </trkpt>
      <trkpt lat="44.36339" lon="6.89883">
        <ele>2485.15</ele>
        <time>2019-03-09T09:56:52Z</time>
      </trkpt>
      <trkpt lat="44.36337" lon="6.89877">
        <ele>2485.63</ele>
        <time>2019-03-09T09:57:05Z</time>
      </trkpt>
      <trkpt lat="44.36337" lon="6.89869">
        <ele>2487.07</ele>
        <time>2019-03-09T09:57:17Z</time>
      </trkpt>
      <trkpt lat="44.36335" lon="6.89862">
        <ele>2488.03</ele>
        <time>2019-03-09T09:57:29Z</time>
      </trkpt>
      <trkpt lat="44.36334" lon="6.89858">
        <ele>2488.99</ele>
        <time>2019-03-09T09:57:43Z</time>
      </trkpt>
      <trkpt lat="44.36334" lon="6.89853">
        <ele>2489.95</ele>
        <time>2019-03-09T09:58:00Z</time>
      </trkpt>
      <trkpt lat="44.36334" lon="6.89845">
        <ele>2491.87</ele>
        <time>2019-03-09T09:58:19Z</time>
      </trkpt>
      <trkpt lat="44.36333" lon="6.89837">
        <ele>2492.84</ele>
        <time>2019-03-09T09:58:36Z</time>
      </trkpt>
      <trkpt lat="44.36333" lon="6.89831">
        <ele>2493.8</ele>
        <time>2019-03-09T09:58:52Z</time>
      </trkpt>
      <trkpt lat="44.36334" lon="6.89819">
        <ele>2495.72</ele>
        <time>2019-03-09T09:59:10Z</time>
      </trkpt>
      <trkpt lat="44.36335" lon="6.89813">
        <ele>2497.16</ele>
        <time>2019-03-09T09:59:24Z</time>
      </trkpt>
      <trkpt lat="44.36337" lon="6.89806">
        <ele>2499.57</ele>
        <time>2019-03-09T09:59:39Z</time>
      </trkpt>
      <trkpt lat="44.3634" lon="6.898">
        <ele>2499.57</ele>
        <time>2019-03-09T09:59:57Z</time>
      </trkpt>
      <trkpt lat="44.36342" lon="6.89795">
        <ele>2500.05</ele>
        <time>2019-03-09T10:00:10Z</time>
      </trkpt>
      <trkpt lat="44.36344" lon="6.89789">
        <ele>2501.49</ele>
        <time>2019-03-09T10:00:28Z</time>
      </trkpt>
      <trkpt lat="44.36348" lon="6.89779">
        <ele>2503.89</ele>
        <time>2019-03-09T10:00:50Z</time>
      </trkpt>
      <trkpt lat="44.36351" lon="6.89771">
        <ele>2504.85</ele>
        <time>2019-03-09T10:01:05Z</time>
      </trkpt>
      <trkpt lat="44.36354" lon="6.89764">
        <ele>2506.29</ele>
        <time>2019-03-09T10:01:20Z</time>
      </trkpt>
      <trkpt lat="44.36353" lon="6.89756">
        <ele>2508.22</ele>
        <time>2019-03-09T10:01:37Z</time>
      </trkpt>
      <trkpt lat="44.36356" lon="6.89749">
        <ele>2509.18</ele>
        <time>2019-03-09T10:01:52Z</time>
      </trkpt>
      <trkpt lat="44.36358" lon="6.89742">
        <ele>2510.62</ele>
        <time>2019-03-09T10:02:07Z</time>
      </trkpt>
      <trkpt lat="44.36358" lon="6.89733">
        <ele>2512.54</ele>
        <time>2019-03-09T10:02:22Z</time>
      </trkpt>
      <trkpt lat="44.36359" lon="6.89724">
        <ele>2513.98</ele>
        <time>2019-03-09T10:02:40Z</time>
      </trkpt>
      <trkpt lat="44.3636" lon="6.89721">
        <ele>2514.95</ele>
        <time>2019-03-09T10:02:53Z</time>
      </trkpt>
      <trkpt lat="44.36357" lon="6.89715">
        <ele>2515.91</ele>
        <time>2019-03-09T10:03:10Z</time>
      </trkpt>
      <trkpt lat="44.36359" lon="6.89707">
        <ele>2517.35</ele>
        <time>2019-03-09T10:03:23Z</time>
      </trkpt>
      <trkpt lat="44.36358" lon="6.89705">
        <ele>2517.35</ele>
        <time>2019-03-09T10:03:39Z</time>
      </trkpt>
      <trkpt lat="44.3636" lon="6.89699">
        <ele>2517.83</ele>
        <time>2019-03-09T10:03:59Z</time>
      </trkpt>
      <trkpt lat="44.36362" lon="6.89698">
        <ele>2517.83</ele>
        <time>2019-03-09T10:04:15Z</time>
      </trkpt>
      <trkpt lat="44.36368" lon="6.89683">
        <ele>2518.79</ele>
        <time>2019-03-09T10:04:32Z</time>
      </trkpt>
      <trkpt lat="44.36372" lon="6.89671">
        <ele>2518.79</ele>
        <time>2019-03-09T10:04:48Z</time>
      </trkpt>
      <trkpt lat="44.36377" lon="6.89659">
        <ele>2520.23</ele>
        <time>2019-03-09T10:05:02Z</time>
      </trkpt>
      <trkpt lat="44.36378" lon="6.89653">
        <ele>2521.19</ele>
        <time>2019-03-09T10:05:16Z</time>
      </trkpt>
      <trkpt lat="44.3638" lon="6.89651">
        <ele>2522.16</ele>
        <time>2019-03-09T10:05:37Z</time>
      </trkpt>
      <trkpt lat="44.36384" lon="6.8965">
        <ele>2524.08</ele>
        <time>2019-03-09T10:05:53Z</time>
      </trkpt>
      <trkpt lat="44.36388" lon="6.89649">
        <ele>2525.04</ele>
        <time>2019-03-09T10:06:05Z</time>
      </trkpt>
      <trkpt lat="44.36389" lon="6.89643">
        <ele>2526.96</ele>
        <time>2019-03-09T10:06:18Z</time>
      </trkpt>
      <trkpt lat="44.36389" lon="6.89637">
        <ele>2527.92</ele>
        <time>2019-03-09T10:06:32Z</time>
      </trkpt>
      <trkpt lat="44.3639" lon="6.89631">
        <ele>2528.89</ele>
        <time>2019-03-09T10:06:47Z</time>
      </trkpt>
      <trkpt lat="44.36389" lon="6.89623">
        <ele>2531.77</ele>
        <time>2019-03-09T10:07:02Z</time>
      </trkpt>
      <trkpt lat="44.36388" lon="6.89619">
        <ele>2531.29</ele>
        <time>2019-03-09T10:07:15Z</time>
      </trkpt>
      <trkpt lat="44.36386" lon="6.89612">
        <ele>2532.73</ele>
        <time>2019-03-09T10:07:30Z</time>
      </trkpt>
      <trkpt lat="44.36383" lon="6.89607">
        <ele>2533.69</ele>
        <time>2019-03-09T10:07:42Z</time>
      </trkpt>
      <trkpt lat="44.3638" lon="6.89604">
        <ele>2535.13</ele>
        <time>2019-03-09T10:07:56Z</time>
      </trkpt>
      <trkpt lat="44.36384" lon="6.89603">
        <ele>2536.58</ele>
        <time>2019-03-09T10:08:09Z</time>
      </trkpt>
      <trkpt lat="44.36389" lon="6.896">
        <ele>2538.02</ele>
        <time>2019-03-09T10:08:24Z</time>
      </trkpt>
      <trkpt lat="44.36393" lon="6.89598">
        <ele>2539.46</ele>
        <time>2019-03-09T10:08:37Z</time>
      </trkpt>
      <trkpt lat="44.36393" lon="6.89593">
        <ele>2540.9</ele>
        <time>2019-03-09T10:08:49Z</time>
      </trkpt>
      <trkpt lat="44.36394" lon="6.89587">
        <ele>2543.31</ele>
        <time>2019-03-09T10:09:03Z</time>
      </trkpt>
      <trkpt lat="44.36395" lon="6.89581">
        <ele>2543.79</ele>
        <time>2019-03-09T10:09:18Z</time>
      </trkpt>
      <trkpt lat="44.36392" lon="6.89578">
        <ele>2544.75</ele>
        <time>2019-03-09T10:09:32Z</time>
      </trkpt>
      <trkpt lat="44.36391" lon="6.89579">
        <ele>2544.75</ele>
        <time>2019-03-09T10:10:00Z</time>
      </trkpt>
      <trkpt lat="44.36396" lon="6.89569">
        <ele>2546.19</ele>
        <time>2019-03-09T10:10:14Z</time>
      </trkpt>
      <trkpt lat="44.36397" lon="6.89558">
        <ele>2547.63</ele>
        <time>2019-03-09T10:10:29Z</time>
      </trkpt>
      <trkpt lat="44.36399" lon="6.89545">
        <ele>2549.07</ele>
        <time>2019-03-09T10:10:50Z</time>
      </trkpt>
      <trkpt lat="44.36401" lon="6.89533">
        <ele>2550.51</ele>
        <time>2019-03-09T10:11:05Z</time>
      </trkpt>
      <trkpt lat="44.36404" lon="6.89525">
        <ele>2551.48</ele>
        <time>2019-03-09T10:11:20Z</time>
      </trkpt>
      <trkpt lat="44.36405" lon="6.89516">
        <ele>2553.4</ele>
        <time>2019-03-09T10:11:36Z</time>
      </trkpt>
      <trkpt lat="44.36407" lon="6.89509">
        <ele>2554.84</ele>
        <time>2019-03-09T10:11:51Z</time>
      </trkpt>
      <trkpt lat="44.36407" lon="6.89503">
        <ele>2556.28</ele>
        <time>2019-03-09T10:12:07Z</time>
      </trkpt>
      <trkpt lat="44.36407" lon="6.89497">
        <ele>2557.24</ele>
        <time>2019-03-09T10:12:19Z</time>
      </trkpt>
      <trkpt lat="44.36408" lon="6.89491">
        <ele>2558.69</ele>
        <time>2019-03-09T10:12:34Z</time>
      </trkpt>
      <trkpt lat="44.36409" lon="6.89485">
        <ele>2560.13</ele>
        <time>2019-03-09T10:12:47Z</time>
      </trkpt>
      <trkpt lat="44.36409" lon="6.8948">
        <ele>2561.57</ele>
        <time>2019-03-09T10:13:02Z</time>
      </trkpt>
      <trkpt lat="44.36413" lon="6.89474">
        <ele>2562.53</ele>
        <time>2019-03-09T10:13:17Z</time>
      </trkpt>
      <trkpt lat="44.36412" lon="6.89467">
        <ele>2563.97</ele>
        <time>2019-03-09T10:13:33Z</time>
      </trkpt>
      <trkpt lat="44.36413" lon="6.8946">
        <ele>2565.42</ele>
        <time>2019-03-09T10:13:48Z</time>
      </trkpt>
      <trkpt lat="44.36413" lon="6.89453">
        <ele>2566.38</ele>
        <time>2019-03-09T10:14:05Z</time>
      </trkpt>
      <trkpt lat="44.36415" lon="6.89446">
        <ele>2567.82</ele>
        <time>2019-03-09T10:14:19Z</time>
      </trkpt>
      <trkpt lat="44.36416" lon="6.89439">
        <ele>2569.26</ele>
        <time>2019-03-09T10:14:37Z</time>
      </trkpt>
      <trkpt lat="44.36417" lon="6.89434">
        <ele>2570.7</ele>
        <time>2019-03-09T10:14:52Z</time>
      </trkpt>
      <trkpt lat="44.36418" lon="6.89426">
        <ele>2572.14</ele>
        <time>2019-03-09T10:15:08Z</time>
      </trkpt>
      <trkpt lat="44.36417" lon="6.89421">
        <ele>2573.11</ele>
        <time>2019-03-09T10:15:22Z</time>
      </trkpt>
      <trkpt lat="44.36418" lon="6.89419">
        <ele>2574.55</ele>
        <time>2019-03-09T10:15:37Z</time>
      </trkpt>
      <trkpt lat="44.36421" lon="6.89421">
        <ele>2575.03</ele>
        <time>2019-03-09T10:15:50Z</time>
      </trkpt>
      <trkpt lat="44.36425" lon="6.89421">
        <ele>2576.47</ele>
        <time>2019-03-09T10:16:03Z</time>
      </trkpt>
      <trkpt lat="44.36427" lon="6.89425">
        <ele>2577.91</ele>
        <time>2019-03-09T10:16:17Z</time>
      </trkpt>
      <trkpt lat="44.36429" lon="6.89426">
        <ele>2578.87</ele>
        <time>2019-03-09T10:16:31Z</time>
      </trkpt>
      <trkpt lat="44.36433" lon="6.89429">
        <ele>2579.84</ele>
        <time>2019-03-09T10:16:44Z</time>
      </trkpt>
      <trkpt lat="44.36435" lon="6.8943">
        <ele>2580.8</ele>
        <time>2019-03-09T10:16:55Z</time>
      </trkpt>
      <trkpt lat="44.36437" lon="6.89424">
        <ele>2582.24</ele>
        <time>2019-03-09T10:17:09Z</time>
      </trkpt>
      <trkpt lat="44.36438" lon="6.89419">
        <ele>2583.2</ele>
        <time>2019-03-09T10:17:22Z</time>
      </trkpt>
      <trkpt lat="44.36438" lon="6.89415">
        <ele>2584.16</ele>
        <time>2019-03-09T10:17:36Z</time>
      </trkpt>
      <trkpt lat="44.36439" lon="6.8941">
        <ele>2585.12</ele>
        <time>2019-03-09T10:17:49Z</time>
      </trkpt>
      <trkpt lat="44.36439" lon="6.89405">
        <ele>2586.08</ele>
        <time>2019-03-09T10:18:02Z</time>
      </trkpt>
      <trkpt lat="44.3644" lon="6.89401">
        <ele>2587.53</ele>
        <time>2019-03-09T10:18:16Z</time>
      </trkpt>
      <trkpt lat="44.36436" lon="6.89396">
        <ele>2588.49</ele>
        <time>2019-03-09T10:18:29Z</time>
      </trkpt>
      <trkpt lat="44.36434" lon="6.89391">
        <ele>2589.93</ele>
        <time>2019-03-09T10:18:42Z</time>
      </trkpt>
      <trkpt lat="44.36431" lon="6.89386">
        <ele>2591.37</ele>
        <time>2019-03-09T10:18:55Z</time>
      </trkpt>
      <trkpt lat="44.36429" lon="6.89382">
        <ele>2593.29</ele>
        <time>2019-03-09T10:19:08Z</time>
      </trkpt>
      <trkpt lat="44.36426" lon="6.89379">
        <ele>2593.29</ele>
        <time>2019-03-09T10:19:21Z</time>
      </trkpt>
      <trkpt lat="44.36422" lon="6.89376">
        <ele>2594.25</ele>
        <time>2019-03-09T10:19:35Z</time>
      </trkpt>
      <trkpt lat="44.3642" lon="6.89372">
        <ele>2595.7</ele>
        <time>2019-03-09T10:19:51Z</time>
      </trkpt>
      <trkpt lat="44.36416" lon="6.89367">
        <ele>2597.14</ele>
        <time>2019-03-09T10:20:05Z</time>
      </trkpt>
      <trkpt lat="44.36414" lon="6.89363">
        <ele>2598.58</ele>
        <time>2019-03-09T10:20:18Z</time>
      </trkpt>
      <trkpt lat="44.36413" lon="6.89358">
        <ele>2599.54</ele>
        <time>2019-03-09T10:20:30Z</time>
      </trkpt>
      <trkpt lat="44.36414" lon="6.89353">
        <ele>2601.46</ele>
        <time>2019-03-09T10:20:44Z</time>
      </trkpt>
      <trkpt lat="44.36416" lon="6.89346">
        <ele>2602.91</ele>
        <time>2019-03-09T10:20:59Z</time>
      </trkpt>
      <trkpt lat="44.36418" lon="6.8934">
        <ele>2604.35</ele>
        <time>2019-03-09T10:21:13Z</time>
      </trkpt>
      <trkpt lat="44.36419" lon="6.89335">
        <ele>2605.31</ele>
        <time>2019-03-09T10:21:25Z</time>
      </trkpt>
      <trkpt lat="44.3642" lon="6.89329">
        <ele>2606.75</ele>
        <time>2019-03-09T10:21:40Z</time>
      </trkpt>
      <trkpt lat="44.36423" lon="6.89321">
        <ele>2608.19</ele>
        <time>2019-03-09T10:21:55Z</time>
      </trkpt>
      <trkpt lat="44.36422" lon="6.89317">
        <ele>2608.67</ele>
        <time>2019-03-09T10:22:10Z</time>
      </trkpt>
      <trkpt lat="44.36425" lon="6.89314">
        <ele>2608.67</ele>
        <time>2019-03-09T10:22:29Z</time>
      </trkpt>
      <trkpt lat="44.36426" lon="6.89301">
        <ele>2609.16</ele>
        <time>2019-03-09T10:22:45Z</time>
      </trkpt>
      <trkpt lat="44.36426" lon="6.8929">
        <ele>2610.12</ele>
        <time>2019-03-09T10:22:59Z</time>
      </trkpt>
      <trkpt lat="44.36429" lon="6.89275">
        <ele>2611.56</ele>
        <time>2019-03-09T10:23:19Z</time>
      </trkpt>
      <trkpt lat="44.36432" lon="6.8926">
        <ele>2612.04</ele>
        <time>2019-03-09T10:23:40Z</time>
      </trkpt>
      <trkpt lat="44.36436" lon="6.89248">
        <ele>2613</ele>
        <time>2019-03-09T10:24:00Z</time>
      </trkpt>
      <trkpt lat="44.36437" lon="6.89238">
        <ele>2614.44</ele>
        <time>2019-03-09T10:24:16Z</time>
      </trkpt>
      <trkpt lat="44.36438" lon="6.89227">
        <ele>2615.88</ele>
        <time>2019-03-09T10:24:30Z</time>
      </trkpt>
      <trkpt lat="44.36436" lon="6.89217">
        <ele>2616.85</ele>
        <time>2019-03-09T10:24:46Z</time>
      </trkpt>
      <trkpt lat="44.36432" lon="6.8921">
        <ele>2618.29</ele>
        <time>2019-03-09T10:25:03Z</time>
      </trkpt>
      <trkpt lat="44.36431" lon="6.89199">
        <ele>2619.25</ele>
        <time>2019-03-09T10:25:18Z</time>
      </trkpt>
      <trkpt lat="44.36431" lon="6.8919">
        <ele>2620.69</ele>
        <time>2019-03-09T10:25:33Z</time>
      </trkpt>
      <trkpt lat="44.36433" lon="6.89183">
        <ele>2621.65</ele>
        <time>2019-03-09T10:25:48Z</time>
      </trkpt>
      <trkpt lat="44.36434" lon="6.89173">
        <ele>2622.13</ele>
        <time>2019-03-09T10:26:02Z</time>
      </trkpt>
      <trkpt lat="44.36435" lon="6.89162">
        <ele>2623.58</ele>
        <time>2019-03-09T10:26:19Z</time>
      </trkpt>
      <trkpt lat="44.36436" lon="6.89153">
        <ele>2624.54</ele>
        <time>2019-03-09T10:26:33Z</time>
      </trkpt>
      <trkpt lat="44.36436" lon="6.89146">
        <ele>2625.98</ele>
        <time>2019-03-09T10:26:47Z</time>
      </trkpt>
      <trkpt lat="44.36435" lon="6.89138">
        <ele>2626.94</ele>
        <time>2019-03-09T10:27:02Z</time>
      </trkpt>
      <trkpt lat="44.36433" lon="6.8913">
        <ele>2628.38</ele>
        <time>2019-03-09T10:27:16Z</time>
      </trkpt>
      <trkpt lat="44.36432" lon="6.89124">
        <ele>2629.34</ele>
        <time>2019-03-09T10:27:30Z</time>
      </trkpt>
      <trkpt lat="44.3643" lon="6.89117">
        <ele>2630.3</ele>
        <time>2019-03-09T10:27:45Z</time>
      </trkpt>
      <trkpt lat="44.36429" lon="6.89111">
        <ele>2631.27</ele>
        <time>2019-03-09T10:27:56Z</time>
      </trkpt>
      <trkpt lat="44.36428" lon="6.89105">
        <ele>2632.23</ele>
        <time>2019-03-09T10:28:09Z</time>
      </trkpt>
      <trkpt lat="44.36428" lon="6.891">
        <ele>2633.19</ele>
        <time>2019-03-09T10:28:22Z</time>
      </trkpt>
      <trkpt lat="44.36427" lon="6.89094">
        <ele>2634.15</ele>
        <time>2019-03-09T10:28:34Z</time>
      </trkpt>
      <trkpt lat="44.36426" lon="6.89086">
        <ele>2635.59</ele>
        <time>2019-03-09T10:28:48Z</time>
      </trkpt>
      <trkpt lat="44.36426" lon="6.8908">
        <ele>2636.55</ele>
        <time>2019-03-09T10:29:02Z</time>
      </trkpt>
      <trkpt lat="44.36424" lon="6.89073">
        <ele>2637.51</ele>
        <time>2019-03-09T10:29:15Z</time>
      </trkpt>
      <trkpt lat="44.36421" lon="6.89068">
        <ele>2638.48</ele>
        <time>2019-03-09T10:29:29Z</time>
      </trkpt>
      <trkpt lat="44.3642" lon="6.89061">
        <ele>2639.44</ele>
        <time>2019-03-09T10:29:43Z</time>
      </trkpt>
      <trkpt lat="44.36418" lon="6.89055">
        <ele>2640.88</ele>
        <time>2019-03-09T10:29:56Z</time>
      </trkpt>
      <trkpt lat="44.36417" lon="6.89047">
        <ele>2641.84</ele>
        <time>2019-03-09T10:30:09Z</time>
      </trkpt>
      <trkpt lat="44.36413" lon="6.89041">
        <ele>2643.28</ele>
        <time>2019-03-09T10:30:25Z</time>
      </trkpt>
      <trkpt lat="44.36411" lon="6.89035">
        <ele>2644.24</ele>
        <time>2019-03-09T10:30:37Z</time>
      </trkpt>
      <trkpt lat="44.36408" lon="6.89028">
        <ele>2645.21</ele>
        <time>2019-03-09T10:30:50Z</time>
      </trkpt>
      <trkpt lat="44.36404" lon="6.89022">
        <ele>2646.65</ele>
        <time>2019-03-09T10:31:06Z</time>
      </trkpt>
      <trkpt lat="44.364" lon="6.89017">
        <ele>2648.09</ele>
        <time>2019-03-09T10:31:21Z</time>
      </trkpt>
      <trkpt lat="44.36396" lon="6.89012">
        <ele>2649.05</ele>
        <time>2019-03-09T10:31:36Z</time>
      </trkpt>
      <trkpt lat="44.36394" lon="6.89006">
        <ele>2650.97</ele>
        <time>2019-03-09T10:31:51Z</time>
      </trkpt>
      <trkpt lat="44.36392" lon="6.89">
        <ele>2651.93</ele>
        <time>2019-03-09T10:32:05Z</time>
      </trkpt>
      <trkpt lat="44.3639" lon="6.88995">
        <ele>2652.9</ele>
        <time>2019-03-09T10:32:19Z</time>
      </trkpt>
      <trkpt lat="44.36387" lon="6.88989">
        <ele>2654.34</ele>
        <time>2019-03-09T10:32:33Z</time>
      </trkpt>
      <trkpt lat="44.36385" lon="6.88984">
        <ele>2655.78</ele>
        <time>2019-03-09T10:32:48Z</time>
      </trkpt>
      <trkpt lat="44.36384" lon="6.88978">
        <ele>2656.74</ele>
        <time>2019-03-09T10:33:02Z</time>
      </trkpt>
      <trkpt lat="44.36383" lon="6.88971">
        <ele>2658.66</ele>
        <time>2019-03-09T10:33:18Z</time>
      </trkpt>
      <trkpt lat="44.36383" lon="6.88964">
        <ele>2659.62</ele>
        <time>2019-03-09T10:33:34Z</time>
      </trkpt>
      <trkpt lat="44.36382" lon="6.88958">
        <ele>2661.55</ele>
        <time>2019-03-09T10:33:50Z</time>
      </trkpt>
      <trkpt lat="44.36383" lon="6.88951">
        <ele>2662.99</ele>
        <time>2019-03-09T10:34:07Z</time>
      </trkpt>
      <trkpt lat="44.36385" lon="6.88944">
        <ele>2664.43</ele>
        <time>2019-03-09T10:34:23Z</time>
      </trkpt>
      <trkpt lat="44.36385" lon="6.88936">
        <ele>2665.39</ele>
        <time>2019-03-09T10:34:39Z</time>
      </trkpt>
      <trkpt lat="44.36383" lon="6.88931">
        <ele>2666.83</ele>
        <time>2019-03-09T10:34:54Z</time>
      </trkpt>
      <trkpt lat="44.36378" lon="6.8893">
        <ele>2668.28</ele>
        <time>2019-03-09T10:35:09Z</time>
      </trkpt>
      <trkpt lat="44.36378" lon="6.88927">
        <ele>2667.31</ele>
        <time>2019-03-09T10:35:27Z</time>
      </trkpt>
      <trkpt lat="44.36372" lon="6.88932">
        <ele>2667.31</ele>
        <time>2019-03-09T10:35:52Z</time>
      </trkpt>
      <trkpt lat="44.36372" lon="6.88933">
        <ele>2667.31</ele>
        <time>2019-03-09T10:36:24Z</time>
      </trkpt>
      <trkpt lat="44.36368" lon="6.88932">
        <ele>2667.31</ele>
        <time>2019-03-09T10:36:55Z</time>
      </trkpt>
      <trkpt lat="44.3637" lon="6.88929">
        <ele>2667.8</ele>
        <time>2019-03-09T10:37:20Z</time>
      </trkpt>
      <trkpt lat="44.36373" lon="6.8893">
        <ele>2667.8</ele>
        <time>2019-03-09T10:37:51Z</time>
      </trkpt>
      <trkpt lat="44.36373" lon="6.88929">
        <ele>2667.8</ele>
        <time>2019-03-09T10:38:21Z</time>
      </trkpt>
      <trkpt lat="44.36373" lon="6.88922">
        <ele>2668.28</ele>
        <time>2019-03-09T10:38:42Z</time>
      </trkpt>
      <trkpt lat="44.36371" lon="6.88922">
        <ele>2668.76</ele>
        <time>2019-03-09T10:38:53Z</time>
      </trkpt>
      <trkpt lat="44.36377" lon="6.8893">
        <ele>2669.24</ele>
        <time>2019-03-09T10:39:08Z</time>
      </trkpt>
      <trkpt lat="44.36381" lon="6.88927">
        <ele>2670.2</ele>
        <time>2019-03-09T10:39:21Z</time>
      </trkpt>
      <trkpt lat="44.36384" lon="6.88927">
        <ele>2670.68</ele>
        <time>2019-03-09T10:39:35Z</time>
      </trkpt>
      <trkpt lat="44.36389" lon="6.88925">
        <ele>2672.6</ele>
        <time>2019-03-09T10:39:51Z</time>
      </trkpt>
      <trkpt lat="44.36394" lon="6.88927">
        <ele>2673.56</ele>
        <time>2019-03-09T10:40:06Z</time>
      </trkpt>
      <trkpt lat="44.36395" lon="6.88928">
        <ele>2674.52</ele>
        <time>2019-03-09T10:40:22Z</time>
      </trkpt>
      <trkpt lat="44.36399" lon="6.88929">
        <ele>2675.49</ele>
        <time>2019-03-09T10:40:35Z</time>
      </trkpt>
      <trkpt lat="44.36403" lon="6.88933">
        <ele>2676.45</ele>
        <time>2019-03-09T10:40:50Z</time>
      </trkpt>
      <trkpt lat="44.36406" lon="6.88935">
        <ele>2677.89</ele>
        <time>2019-03-09T10:41:04Z</time>
      </trkpt>
      <trkpt lat="44.3641" lon="6.88936">
        <ele>2679.33</ele>
        <time>2019-03-09T10:41:17Z</time>
      </trkpt>
      <trkpt lat="44.36413" lon="6.88938">
        <ele>2679.81</ele>
        <time>2019-03-09T10:41:31Z</time>
      </trkpt>
      <trkpt lat="44.36417" lon="6.88938">
        <ele>2680.77</ele>
        <time>2019-03-09T10:41:45Z</time>
      </trkpt>
      <trkpt lat="44.3642" lon="6.88941">
        <ele>2681.73</ele>
        <time>2019-03-09T10:42:01Z</time>
      </trkpt>
      <trkpt lat="44.36424" lon="6.88942">
        <ele>2682.7</ele>
        <time>2019-03-09T10:42:15Z</time>
      </trkpt>
      <trkpt lat="44.36428" lon="6.88943">
        <ele>2683.66</ele>
        <time>2019-03-09T10:42:30Z</time>
      </trkpt>
      <trkpt lat="44.36432" lon="6.88944">
        <ele>2684.62</ele>
        <time>2019-03-09T10:42:44Z</time>
      </trkpt>
      <trkpt lat="44.36435" lon="6.88945">
        <ele>2685.58</ele>
        <time>2019-03-09T10:42:58Z</time>
      </trkpt>
      <trkpt lat="44.36439" lon="6.88943">
        <ele>2686.54</ele>
        <time>2019-03-09T10:43:13Z</time>
      </trkpt>
      <trkpt lat="44.36435" lon="6.88937">
        <ele>2687.98</ele>
        <time>2019-03-09T10:43:29Z</time>
      </trkpt>
      <trkpt lat="44.36433" lon="6.88932">
        <ele>2689.43</ele>
        <time>2019-03-09T10:43:43Z</time>
      </trkpt>
      <trkpt lat="44.36431" lon="6.88928">
        <ele>2690.39</ele>
        <time>2019-03-09T10:43:58Z</time>
      </trkpt>
      <trkpt lat="44.36433" lon="6.88922">
        <ele>2691.35</ele>
        <time>2019-03-09T10:44:09Z</time>
      </trkpt>
      <trkpt lat="44.36434" lon="6.88919">
        <ele>2692.31</ele>
        <time>2019-03-09T10:44:20Z</time>
      </trkpt>
      <trkpt lat="44.36435" lon="6.88916">
        <ele>2693.75</ele>
        <time>2019-03-09T10:44:31Z</time>
      </trkpt>
      <trkpt lat="44.36436" lon="6.88912">
        <ele>2694.71</ele>
        <time>2019-03-09T10:44:41Z</time>
      </trkpt>
      <trkpt lat="44.36436" lon="6.88907">
        <ele>2695.67</ele>
        <time>2019-03-09T10:44:52Z</time>
      </trkpt>
      <trkpt lat="44.36434" lon="6.88903">
        <ele>2696.64</ele>
        <time>2019-03-09T10:45:04Z</time>
      </trkpt>
      <trkpt lat="44.36434" lon="6.88899">
        <ele>2697.6</ele>
        <time>2019-03-09T10:45:15Z</time>
      </trkpt>
      <trkpt lat="44.36434" lon="6.88894">
        <ele>2697.6</ele>
        <time>2019-03-09T10:45:28Z</time>
      </trkpt>
      <trkpt lat="44.36433" lon="6.8889">
        <ele>2699.04</ele>
        <time>2019-03-09T10:45:40Z</time>
      </trkpt>
      <trkpt lat="44.36435" lon="6.88886">
        <ele>2699.52</ele>
        <time>2019-03-09T10:45:51Z</time>
      </trkpt>
      <trkpt lat="44.36436" lon="6.88884">
        <ele>2700.48</ele>
        <time>2019-03-09T10:45:57Z</time>
      </trkpt>
      <trkpt lat="44.36436" lon="6.88879">
        <ele>2701.44</ele>
        <time>2019-03-09T10:46:08Z</time>
      </trkpt>
      <trkpt lat="44.36434" lon="6.88875">
        <ele>2701.92</ele>
        <time>2019-03-09T10:46:19Z</time>
      </trkpt>
      <trkpt lat="44.36434" lon="6.88871">
        <ele>2702.88</ele>
        <time>2019-03-09T10:46:29Z</time>
      </trkpt>
      <trkpt lat="44.36434" lon="6.88866">
        <ele>2703.85</ele>
        <time>2019-03-09T10:46:41Z</time>
      </trkpt>
      <trkpt lat="44.36437" lon="6.88862">
        <ele>2705.29</ele>
        <time>2019-03-09T10:46:55Z</time>
      </trkpt>
      <trkpt lat="44.36437" lon="6.88857">
        <ele>2706.25</ele>
        <time>2019-03-09T10:47:10Z</time>
      </trkpt>
      <trkpt lat="44.36435" lon="6.88854">
        <ele>2707.69</ele>
        <time>2019-03-09T10:47:22Z</time>
      </trkpt>
      <trkpt lat="44.36436" lon="6.88848">
        <ele>2709.61</ele>
        <time>2019-03-09T10:47:38Z</time>
      </trkpt>
      <trkpt lat="44.36434" lon="6.88843">
        <ele>2710.09</ele>
        <time>2019-03-09T10:47:54Z</time>
      </trkpt>
      <trkpt lat="44.36436" lon="6.88837">
        <ele>2711.54</ele>
        <time>2019-03-09T10:48:12Z</time>
      </trkpt>
      <trkpt lat="44.36433" lon="6.88831">
        <ele>2712.98</ele>
        <time>2019-03-09T10:48:27Z</time>
      </trkpt>
      <trkpt lat="44.36431" lon="6.88826">
        <ele>2713.94</ele>
        <time>2019-03-09T10:48:42Z</time>
      </trkpt>
      <trkpt lat="44.36428" lon="6.88821">
        <ele>2715.86</ele>
        <time>2019-03-09T10:48:57Z</time>
      </trkpt>
      <trkpt lat="44.36422" lon="6.88815">
        <ele>2716.82</ele>
        <time>2019-03-09T10:49:13Z</time>
      </trkpt>
      <trkpt lat="44.36419" lon="6.88812">
        <ele>2718.27</ele>
        <time>2019-03-09T10:49:28Z</time>
      </trkpt>
      <trkpt lat="44.3642" lon="6.88808">
        <ele>2719.71</ele>
        <time>2019-03-09T10:49:44Z</time>
      </trkpt>
      <trkpt lat="44.36423" lon="6.88798">
        <ele>2721.63</ele>
        <time>2019-03-09T10:50:04Z</time>
      </trkpt>
      <trkpt lat="44.36423" lon="6.88795">
        <ele>2722.11</ele>
        <time>2019-03-09T10:50:22Z</time>
      </trkpt>
      <trkpt lat="44.36422" lon="6.88799">
        <ele>2723.55</ele>
        <time>2019-03-09T10:50:41Z</time>
      </trkpt>
      <trkpt lat="44.36426" lon="6.88799">
        <ele>2724.03</ele>
        <time>2019-03-09T10:50:54Z</time>
      </trkpt>
      <trkpt lat="44.3643" lon="6.888">
        <ele>2724.51</ele>
        <time>2019-03-09T10:51:06Z</time>
      </trkpt>
      <trkpt lat="44.36433" lon="6.888">
        <ele>2725.48</ele>
        <time>2019-03-09T10:51:20Z</time>
      </trkpt>
      <trkpt lat="44.36437" lon="6.88801">
        <ele>2726.44</ele>
        <time>2019-03-09T10:51:34Z</time>
      </trkpt>
      <trkpt lat="44.36439" lon="6.88803">
        <ele>2727.4</ele>
        <time>2019-03-09T10:51:47Z</time>
      </trkpt>
      <trkpt lat="44.36442" lon="6.88805">
        <ele>2728.36</ele>
        <time>2019-03-09T10:52:01Z</time>
      </trkpt>
      <trkpt lat="44.36448" lon="6.88804">
        <ele>2729.32</ele>
        <time>2019-03-09T10:52:15Z</time>
      </trkpt>
      <trkpt lat="44.3645" lon="6.88807">
        <ele>2730.28</ele>
        <time>2019-03-09T10:52:30Z</time>
      </trkpt>
      <trkpt lat="44.36454" lon="6.88809">
        <ele>2731.24</ele>
        <time>2019-03-09T10:52:45Z</time>
      </trkpt>
      <trkpt lat="44.36459" lon="6.88811">
        <ele>2732.2</ele>
        <time>2019-03-09T10:52:59Z</time>
      </trkpt>
      <trkpt lat="44.36463" lon="6.88815">
        <ele>2733.65</ele>
        <time>2019-03-09T10:53:14Z</time>
      </trkpt>
      <trkpt lat="44.36466" lon="6.88818">
        <ele>2734.61</ele>
        <time>2019-03-09T10:53:29Z</time>
      </trkpt>
      <trkpt lat="44.36468" lon="6.88821">
        <ele>2735.09</ele>
        <time>2019-03-09T10:53:43Z</time>
      </trkpt>
      <trkpt lat="44.36471" lon="6.88823">
        <ele>2736.53</ele>
        <time>2019-03-09T10:53:57Z</time>
      </trkpt>
      <trkpt lat="44.36475" lon="6.88826">
        <ele>2737.01</ele>
        <time>2019-03-09T10:54:10Z</time>
      </trkpt>
      <trkpt lat="44.36478" lon="6.88829">
        <ele>2737.97</ele>
        <time>2019-03-09T10:54:23Z</time>
      </trkpt>
      <trkpt lat="44.36482" lon="6.88834">
        <ele>2738.93</ele>
        <time>2019-03-09T10:54:40Z</time>
      </trkpt>
      <trkpt lat="44.36485" lon="6.88834">
        <ele>2740.38</ele>
        <time>2019-03-09T10:54:54Z</time>
      </trkpt>
      <trkpt lat="44.36488" lon="6.88837">
        <ele>2741.82</ele>
        <time>2019-03-09T10:55:08Z</time>
      </trkpt>
      <trkpt lat="44.36492" lon="6.8884">
        <ele>2744.22</ele>
        <time>2019-03-09T10:55:25Z</time>
      </trkpt>
      <trkpt lat="44.36495" lon="6.88842">
        <ele>2744.22</ele>
        <time>2019-03-09T10:55:42Z</time>
      </trkpt>
      <trkpt lat="44.36499" lon="6.88845">
        <ele>2745.18</ele>
        <time>2019-03-09T10:55:57Z</time>
      </trkpt>
      <trkpt lat="44.36501" lon="6.88848">
        <ele>2746.14</ele>
        <time>2019-03-09T10:56:09Z</time>
      </trkpt>
      <trkpt lat="44.36504" lon="6.88851">
        <ele>2747.1</ele>
        <time>2019-03-09T10:56:22Z</time>
      </trkpt>
      <trkpt lat="44.36507" lon="6.88856">
        <ele>2747.59</ele>
        <time>2019-03-09T10:56:33Z</time>
      </trkpt>
      <trkpt lat="44.36509" lon="6.88861">
        <ele>2748.55</ele>
        <time>2019-03-09T10:56:46Z</time>
      </trkpt>
      <trkpt lat="44.36512" lon="6.88864">
        <ele>2749.51</ele>
        <time>2019-03-09T10:57:00Z</time>
      </trkpt>
      <trkpt lat="44.36514" lon="6.88866">
        <ele>2750.47</ele>
        <time>2019-03-09T10:57:14Z</time>
      </trkpt>
      <trkpt lat="44.36517" lon="6.8887">
        <ele>2751.43</ele>
        <time>2019-03-09T10:57:28Z</time>
      </trkpt>
      <trkpt lat="44.36519" lon="6.88875">
        <ele>2751.91</ele>
        <time>2019-03-09T10:57:43Z</time>
      </trkpt>
      <trkpt lat="44.36521" lon="6.88879">
        <ele>2752.87</ele>
        <time>2019-03-09T10:57:59Z</time>
      </trkpt>
      <trkpt lat="44.36524" lon="6.88884">
        <ele>2754.31</ele>
        <time>2019-03-09T10:58:15Z</time>
      </trkpt>
      <trkpt lat="44.36526" lon="6.88889">
        <ele>2754.8</ele>
        <time>2019-03-09T10:58:30Z</time>
      </trkpt>
      <trkpt lat="44.36527" lon="6.88895">
        <ele>2755.76</ele>
        <time>2019-03-09T10:58:44Z</time>
      </trkpt>
      <trkpt lat="44.36529" lon="6.88898">
        <ele>2756.72</ele>
        <time>2019-03-09T10:58:58Z</time>
      </trkpt>
      <trkpt lat="44.36531" lon="6.88899">
        <ele>2758.16</ele>
        <time>2019-03-09T10:59:14Z</time>
      </trkpt>
      <trkpt lat="44.36534" lon="6.88904">
        <ele>2759.6</ele>
        <time>2019-03-09T10:59:29Z</time>
      </trkpt>
      <trkpt lat="44.36536" lon="6.88908">
        <ele>2760.56</ele>
        <time>2019-03-09T10:59:43Z</time>
      </trkpt>
      <trkpt lat="44.36537" lon="6.88912">
        <ele>2761.52</ele>
        <time>2019-03-09T10:59:57Z</time>
      </trkpt>
      <trkpt lat="44.3654" lon="6.88916">
        <ele>2762.49</ele>
        <time>2019-03-09T11:00:11Z</time>
      </trkpt>
      <trkpt lat="44.36542" lon="6.8892">
        <ele>2763.45</ele>
        <time>2019-03-09T11:00:26Z</time>
      </trkpt>
      <trkpt lat="44.36544" lon="6.88924">
        <ele>2765.37</ele>
        <time>2019-03-09T11:00:40Z</time>
      </trkpt>
      <trkpt lat="44.36547" lon="6.88926">
        <ele>2765.85</ele>
        <time>2019-03-09T11:00:54Z</time>
      </trkpt>
      <trkpt lat="44.36549" lon="6.8893">
        <ele>2766.81</ele>
        <time>2019-03-09T11:01:07Z</time>
      </trkpt>
      <trkpt lat="44.36551" lon="6.88934">
        <ele>2767.77</ele>
        <time>2019-03-09T11:01:22Z</time>
      </trkpt>
      <trkpt lat="44.36554" lon="6.88938">
        <ele>2768.73</ele>
        <time>2019-03-09T11:01:35Z</time>
      </trkpt>
      <trkpt lat="44.36557" lon="6.88943">
        <ele>2770.18</ele>
        <time>2019-03-09T11:01:51Z</time>
      </trkpt>
      <trkpt lat="44.3656" lon="6.88949">
        <ele>2772.1</ele>
        <time>2019-03-09T11:02:08Z</time>
      </trkpt>
      <trkpt lat="44.36562" lon="6.88952">
        <ele>2773.54</ele>
        <time>2019-03-09T11:02:25Z</time>
      </trkpt>
      <trkpt lat="44.36566" lon="6.88954">
        <ele>2774.02</ele>
        <time>2019-03-09T11:02:41Z</time>
      </trkpt>
      <trkpt lat="44.3657" lon="6.88957">
        <ele>2775.46</ele>
        <time>2019-03-09T11:02:57Z</time>
      </trkpt>
      <trkpt lat="44.36573" lon="6.88958">
        <ele>2776.42</ele>
        <time>2019-03-09T11:03:12Z</time>
      </trkpt>
      <trkpt lat="44.36576" lon="6.8896">
        <ele>2777.87</ele>
        <time>2019-03-09T11:03:28Z</time>
      </trkpt>
      <trkpt lat="44.3658" lon="6.88962">
        <ele>2778.83</ele>
        <time>2019-03-09T11:03:43Z</time>
      </trkpt>
      <trkpt lat="44.36583" lon="6.88964">
        <ele>2779.79</ele>
        <time>2019-03-09T11:03:59Z</time>
      </trkpt>
      <trkpt lat="44.36586" lon="6.88967">
        <ele>2781.23</ele>
        <time>2019-03-09T11:04:14Z</time>
      </trkpt>
      <trkpt lat="44.36589" lon="6.88968">
        <ele>2782.67</ele>
        <time>2019-03-09T11:04:30Z</time>
      </trkpt>
      <trkpt lat="44.36593" lon="6.88971">
        <ele>2784.12</ele>
        <time>2019-03-09T11:04:46Z</time>
      </trkpt>
      <trkpt lat="44.36596" lon="6.88974">
        <ele>2785.56</ele>
        <time>2019-03-09T11:05:03Z</time>
      </trkpt>
      <trkpt lat="44.366" lon="6.88978">
        <ele>2787</ele>
        <time>2019-03-09T11:05:20Z</time>
      </trkpt>
      <trkpt lat="44.36604" lon="6.88981">
        <ele>2788.44</ele>
        <time>2019-03-09T11:05:38Z</time>
      </trkpt>
      <trkpt lat="44.36607" lon="6.88983">
        <ele>2790.36</ele>
        <time>2019-03-09T11:05:55Z</time>
      </trkpt>
      <trkpt lat="44.3661" lon="6.88986">
        <ele>2791.81</ele>
        <time>2019-03-09T11:06:11Z</time>
      </trkpt>
      <trkpt lat="44.36611" lon="6.88987">
        <ele>2792.29</ele>
        <time>2019-03-09T11:06:21Z</time>
      </trkpt>
      <trkpt lat="44.36614" lon="6.88988">
        <ele>2793.73</ele>
        <time>2019-03-09T11:06:37Z</time>
      </trkpt>
      <trkpt lat="44.36616" lon="6.88989">
        <ele>2793.73</ele>
        <time>2019-03-09T11:06:50Z</time>
      </trkpt>
      <trkpt lat="44.36618" lon="6.88993">
        <ele>2794.69</ele>
        <time>2019-03-09T11:07:05Z</time>
      </trkpt>
      <trkpt lat="44.36624" lon="6.88996">
        <ele>2795.65</ele>
        <time>2019-03-09T11:07:19Z</time>
      </trkpt>
      <trkpt lat="44.3663" lon="6.89001">
        <ele>2797.09</ele>
        <time>2019-03-09T11:07:34Z</time>
      </trkpt>
      <trkpt lat="44.36636" lon="6.89004">
        <ele>2798.05</ele>
        <time>2019-03-09T11:07:52Z</time>
      </trkpt>
      <trkpt lat="44.36641" lon="6.89006">
        <ele>2799.02</ele>
        <time>2019-03-09T11:08:07Z</time>
      </trkpt>
      <trkpt lat="44.36646" lon="6.89011">
        <ele>2799.5</ele>
        <time>2019-03-09T11:08:20Z</time>
      </trkpt>
      <trkpt lat="44.36652" lon="6.89017">
        <ele>2800.46</ele>
        <time>2019-03-09T11:08:36Z</time>
      </trkpt>
      <trkpt lat="44.36657" lon="6.89021">
        <ele>2800.94</ele>
        <time>2019-03-09T11:08:50Z</time>
      </trkpt>
      <trkpt lat="44.36663" lon="6.89025">
        <ele>2801.9</ele>
        <time>2019-03-09T11:09:05Z</time>
      </trkpt>
      <trkpt lat="44.36669" lon="6.89029">
        <ele>2802.86</ele>
        <time>2019-03-09T11:09:22Z</time>
      </trkpt>
      <trkpt lat="44.36674" lon="6.89032">
        <ele>2803.82</ele>
        <time>2019-03-09T11:09:38Z</time>
      </trkpt>
      <trkpt lat="44.3668" lon="6.89036">
        <ele>2804.78</ele>
        <time>2019-03-09T11:09:54Z</time>
      </trkpt>
      <trkpt lat="44.36686" lon="6.8904">
        <ele>2805.75</ele>
        <time>2019-03-09T11:10:07Z</time>
      </trkpt>
      <trkpt lat="44.36691" lon="6.89043">
        <ele>2807.19</ele>
        <time>2019-03-09T11:10:22Z</time>
      </trkpt>
      <trkpt lat="44.36695" lon="6.89046">
        <ele>2808.15</ele>
        <time>2019-03-09T11:10:37Z</time>
      </trkpt>
      <trkpt lat="44.36699" lon="6.89048">
        <ele>2809.59</ele>
        <time>2019-03-09T11:10:53Z</time>
      </trkpt>
      <trkpt lat="44.36703" lon="6.89052">
        <ele>2810.55</ele>
        <time>2019-03-09T11:11:08Z</time>
      </trkpt>
      <trkpt lat="44.36707" lon="6.89053">
        <ele>2811.99</ele>
        <time>2019-03-09T11:11:24Z</time>
      </trkpt>
      <trkpt lat="44.36711" lon="6.89057">
        <ele>2813.44</ele>
        <time>2019-03-09T11:11:41Z</time>
      </trkpt>
      <trkpt lat="44.36714" lon="6.8906">
        <ele>2814.4</ele>
        <time>2019-03-09T11:11:56Z</time>
      </trkpt>
      <trkpt lat="44.36718" lon="6.89062">
        <ele>2815.36</ele>
        <time>2019-03-09T11:12:12Z</time>
      </trkpt>
      <trkpt lat="44.36721" lon="6.89064">
        <ele>2817.76</ele>
        <time>2019-03-09T11:12:27Z</time>
      </trkpt>
      <trkpt lat="44.36726" lon="6.89067">
        <ele>2817.76</ele>
        <time>2019-03-09T11:12:43Z</time>
      </trkpt>
      <trkpt lat="44.36728" lon="6.89071">
        <ele>2818.72</ele>
        <time>2019-03-09T11:13:01Z</time>
      </trkpt>
      <trkpt lat="44.36733" lon="6.89072">
        <ele>2820.16</ele>
        <time>2019-03-09T11:13:18Z</time>
      </trkpt>
      <trkpt lat="44.36737" lon="6.89075">
        <ele>2821.61</ele>
        <time>2019-03-09T11:13:36Z</time>
      </trkpt>
      <trkpt lat="44.36741" lon="6.89077">
        <ele>2823.05</ele>
        <time>2019-03-09T11:13:52Z</time>
      </trkpt>
      <trkpt lat="44.36744" lon="6.89079">
        <ele>2824.97</ele>
        <time>2019-03-09T11:14:07Z</time>
      </trkpt>
      <trkpt lat="44.36749" lon="6.8908">
        <ele>2825.93</ele>
        <time>2019-03-09T11:14:23Z</time>
      </trkpt>
      <trkpt lat="44.36753" lon="6.89082">
        <ele>2827.37</ele>
        <time>2019-03-09T11:14:39Z</time>
      </trkpt>
      <trkpt lat="44.36757" lon="6.89084">
        <ele>2828.82</ele>
        <time>2019-03-09T11:14:55Z</time>
      </trkpt>
      <trkpt lat="44.36761" lon="6.89085">
        <ele>2829.78</ele>
        <time>2019-03-09T11:15:11Z</time>
      </trkpt>
      <trkpt lat="44.36765" lon="6.89085">
        <ele>2831.22</ele>
        <time>2019-03-09T11:15:27Z</time>
      </trkpt>
      <trkpt lat="44.36769" lon="6.89085">
        <ele>2832.18</ele>
        <time>2019-03-09T11:15:42Z</time>
      </trkpt>
      <trkpt lat="44.36772" lon="6.89085">
        <ele>2833.14</ele>
        <time>2019-03-09T11:15:57Z</time>
      </trkpt>
      <trkpt lat="44.36774" lon="6.89086">
        <ele>2834.1</ele>
        <time>2019-03-09T11:16:12Z</time>
      </trkpt>
      <trkpt lat="44.36777" lon="6.89086">
        <ele>2835.55</ele>
        <time>2019-03-09T11:16:26Z</time>
      </trkpt>
      <trkpt lat="44.36778" lon="6.89083">
        <ele>2836.51</ele>
        <time>2019-03-09T11:16:41Z</time>
      </trkpt>
      <trkpt lat="44.36777" lon="6.89081">
        <ele>2836.99</ele>
        <time>2019-03-09T11:16:59Z</time>
      </trkpt>
      <trkpt lat="44.36778" lon="6.89076">
        <ele>2838.43</ele>
        <time>2019-03-09T11:17:12Z</time>
      </trkpt>
      <trkpt lat="44.36778" lon="6.89072">
        <ele>2839.39</ele>
        <time>2019-03-09T11:17:28Z</time>
      </trkpt>
      <trkpt lat="44.36778" lon="6.89068">
        <ele>2840.83</ele>
        <time>2019-03-09T11:17:42Z</time>
      </trkpt>
      <trkpt lat="44.36777" lon="6.89064">
        <ele>2842.28</ele>
        <time>2019-03-09T11:17:55Z</time>
      </trkpt>
      <trkpt lat="44.36777" lon="6.8906">
        <ele>2843.72</ele>
        <time>2019-03-09T11:18:10Z</time>
      </trkpt>
      <trkpt lat="44.3678" lon="6.89062">
        <ele>2844.2</ele>
        <time>2019-03-09T11:18:24Z</time>
      </trkpt>
      <trkpt lat="44.36783" lon="6.89064">
        <ele>2845.16</ele>
        <time>2019-03-09T11:18:37Z</time>
      </trkpt>
      <trkpt lat="44.36787" lon="6.89064">
        <ele>2846.6</ele>
        <time>2019-03-09T11:18:53Z</time>
      </trkpt>
      <trkpt lat="44.36789" lon="6.89066">
        <ele>2848.04</ele>
        <time>2019-03-09T11:19:07Z</time>
      </trkpt>
      <trkpt lat="44.36791" lon="6.89066">
        <ele>2849</ele>
        <time>2019-03-09T11:19:21Z</time>
      </trkpt>
      <trkpt lat="44.36795" lon="6.89067">
        <ele>2849.97</ele>
        <time>2019-03-09T11:19:36Z</time>
      </trkpt>
      <trkpt lat="44.36798" lon="6.89068">
        <ele>2851.89</ele>
        <time>2019-03-09T11:19:53Z</time>
      </trkpt>
      <trkpt lat="44.36798" lon="6.89065">
        <ele>2851.41</ele>
        <time>2019-03-09T11:20:10Z</time>
      </trkpt>
      <trkpt lat="44.36797" lon="6.89067">
        <ele>2850.93</ele>
        <time>2019-03-09T11:20:40Z</time>
      </trkpt>
      <trkpt lat="44.36797" lon="6.89067">
        <ele>2851.41</ele>
        <time>2019-03-09T11:21:05Z</time>
      </trkpt>
      <trkpt lat="44.36798" lon="6.8907">
        <ele>2851.89</ele>
        <time>2019-03-09T11:21:17Z</time>
      </trkpt>
      <trkpt lat="44.36799" lon="6.89068">
        <ele>2851.89</ele>
        <time>2019-03-09T11:21:40Z</time>
      </trkpt>
      <trkpt lat="44.36796" lon="6.89059">
        <ele>2853.33</ele>
        <time>2019-03-09T11:21:52Z</time>
      </trkpt>
      <trkpt lat="44.36793" lon="6.89052">
        <ele>2855.73</ele>
        <time>2019-03-09T11:22:07Z</time>
      </trkpt>
      <trkpt lat="44.36791" lon="6.89047">
        <ele>2857.18</ele>
        <time>2019-03-09T11:22:22Z</time>
      </trkpt>
      <trkpt lat="44.36789" lon="6.89042">
        <ele>2858.14</ele>
        <time>2019-03-09T11:22:35Z</time>
      </trkpt>
      <trkpt lat="44.36789" lon="6.89038">
        <ele>2859.1</ele>
        <time>2019-03-09T11:22:48Z</time>
      </trkpt>
      <trkpt lat="44.36786" lon="6.89033">
        <ele>2860.54</ele>
        <time>2019-03-09T11:23:01Z</time>
      </trkpt>
      <trkpt lat="44.36785" lon="6.8903">
        <ele>2861.98</ele>
        <time>2019-03-09T11:23:14Z</time>
      </trkpt>
      <trkpt lat="44.36783" lon="6.89025">
        <ele>2862.94</ele>
        <time>2019-03-09T11:23:27Z</time>
      </trkpt>
      <trkpt lat="44.36781" lon="6.89021">
        <ele>2863.9</ele>
        <time>2019-03-09T11:23:41Z</time>
      </trkpt>
      <trkpt lat="44.36782" lon="6.8902">
        <ele>2864.39</ele>
        <time>2019-03-09T11:23:55Z</time>
      </trkpt>
      <trkpt lat="44.36786" lon="6.89024">
        <ele>2864.39</ele>
        <time>2019-03-09T11:24:08Z</time>
      </trkpt>
      <trkpt lat="44.3679" lon="6.89026">
        <ele>2866.31</ele>
        <time>2019-03-09T11:24:23Z</time>
      </trkpt>
      <trkpt lat="44.36793" lon="6.89025">
        <ele>2867.27</ele>
        <time>2019-03-09T11:24:38Z</time>
      </trkpt>
      <trkpt lat="44.36797" lon="6.89028">
        <ele>2868.71</ele>
        <time>2019-03-09T11:24:54Z</time>
      </trkpt>
      <trkpt lat="44.36796" lon="6.89024">
        <ele>2869.67</ele>
        <time>2019-03-09T11:25:09Z</time>
      </trkpt>
      <trkpt lat="44.36793" lon="6.89018">
        <ele>2870.63</ele>
        <time>2019-03-09T11:25:25Z</time>
      </trkpt>
      <trkpt lat="44.3679" lon="6.89014">
        <ele>2871.6</ele>
        <time>2019-03-09T11:25:36Z</time>
      </trkpt>
      <trkpt lat="44.36786" lon="6.89009">
        <ele>2872.56</ele>
        <time>2019-03-09T11:25:49Z</time>
      </trkpt>
      <trkpt lat="44.36785" lon="6.89008">
        <ele>2872.56</ele>
        <time>2019-03-09T11:26:07Z</time>
      </trkpt>
      <trkpt lat="44.36781" lon="6.89004">
        <ele>2873.52</ele>
        <time>2019-03-09T11:26:21Z</time>
      </trkpt>
      <trkpt lat="44.36778" lon="6.89001">
        <ele>2874</ele>
        <time>2019-03-09T11:26:45Z</time>
      </trkpt>
      <trkpt lat="44.36773" lon="6.88998">
        <ele>2874.96</ele>
        <time>2019-03-09T11:27:00Z</time>
      </trkpt>
      <trkpt lat="44.36769" lon="6.88994">
        <ele>2875.92</ele>
        <time>2019-03-09T11:27:12Z</time>
      </trkpt>
      <trkpt lat="44.36767" lon="6.88988">
        <ele>2877.84</ele>
        <time>2019-03-09T11:27:26Z</time>
      </trkpt>
      <trkpt lat="44.36769" lon="6.88987">
        <ele>2878.32</ele>
        <time>2019-03-09T11:27:39Z</time>
      </trkpt>
      <trkpt lat="44.36773" lon="6.8899">
        <ele>2879.77</ele>
        <time>2019-03-09T11:27:52Z</time>
      </trkpt>
      <trkpt lat="44.36777" lon="6.88988">
        <ele>2881.21</ele>
        <time>2019-03-09T11:28:07Z</time>
      </trkpt>
      <trkpt lat="44.36779" lon="6.88989">
        <ele>2881.21</ele>
        <time>2019-03-09T11:28:25Z</time>
      </trkpt>
      <trkpt lat="44.3678" lon="6.88989">
        <ele>2882.17</ele>
        <time>2019-03-09T11:28:38Z</time>
      </trkpt>
      <trkpt lat="44.36781" lon="6.88988">
        <ele>2883.13</ele>
        <time>2019-03-09T11:28:58Z</time>
      </trkpt>
      <trkpt lat="44.36785" lon="6.88989">
        <ele>2885.05</ele>
        <time>2019-03-09T11:29:14Z</time>
      </trkpt>
      <trkpt lat="44.36789" lon="6.88988">
        <ele>2886.5</ele>
        <time>2019-03-09T11:29:29Z</time>
      </trkpt>
      <trkpt lat="44.36785" lon="6.88985">
        <ele>2886.5</ele>
        <time>2019-03-09T11:29:45Z</time>
      </trkpt>
      <trkpt lat="44.36782" lon="6.88982">
        <ele>2887.46</ele>
        <time>2019-03-09T11:30:00Z</time>
      </trkpt>
      <trkpt lat="44.36781" lon="6.8898">
        <ele>2887.46</ele>
        <time>2019-03-09T11:30:20Z</time>
      </trkpt>
      <trkpt lat="44.3678" lon="6.88981">
        <ele>2886.98</ele>
        <time>2019-03-09T11:30:40Z</time>
      </trkpt>
      <trkpt lat="44.36776" lon="6.88979">
        <ele>2886.98</ele>
        <time>2019-03-09T11:30:57Z</time>
      </trkpt>
      <trkpt lat="44.36773" lon="6.88979">
        <ele>2886.5</ele>
        <time>2019-03-09T11:31:15Z</time>
      </trkpt>
      <trkpt lat="44.36774" lon="6.88977">
        <ele>2887.46</ele>
        <time>2019-03-09T11:31:31Z</time>
      </trkpt>
      <trkpt lat="44.36774" lon="6.88979">
        <ele>2886.5</ele>
        <time>2019-03-09T11:31:51Z</time>
      </trkpt>
      <trkpt lat="44.36776" lon="6.88979">
        <ele>2886.5</ele>
        <time>2019-03-09T11:32:07Z</time>
      </trkpt>
      <trkpt lat="44.36777" lon="6.8898">
        <ele>2885.53</ele>
        <time>2019-03-09T11:32:34Z</time>
      </trkpt>
      <trkpt lat="44.36777" lon="6.88981">
        <ele>2886.02</ele>
        <time>2019-03-09T11:33:11Z</time>
      </trkpt>
      <trkpt lat="44.36778" lon="6.88981">
        <ele>2886.5</ele>
        <time>2019-03-09T11:33:51Z</time>
      </trkpt>
      <trkpt lat="44.36778" lon="6.88981">
        <ele>2886.5</ele>
        <time>2019-03-09T11:34:18Z</time>
      </trkpt>
      <trkpt lat="44.36778" lon="6.88981">
        <ele>2886.5</ele>
        <time>2019-03-09T11:34:49Z</time>
      </trkpt>
      <trkpt lat="44.36778" lon="6.88982">
        <ele>2886.5</ele>
        <time>2019-03-09T11:35:17Z</time>
      </trkpt>
      <trkpt lat="44.36777" lon="6.88981">
        <ele>2886.02</ele>
        <time>2019-03-09T11:35:42Z</time>
      </trkpt>
      <trkpt lat="44.36777" lon="6.88981">
        <ele>2886.02</ele>
        <time>2019-03-09T11:36:11Z</time>
      </trkpt>
      <trkpt lat="44.36777" lon="6.88981">
        <ele>2886.5</ele>
        <time>2019-03-09T11:36:36Z</time>
      </trkpt>
      <trkpt lat="44.36777" lon="6.88983">
        <ele>2886.02</ele>
        <time>2019-03-09T11:37:15Z</time>
      </trkpt>
      <trkpt lat="44.36779" lon="6.88983">
        <ele>2886.5</ele>
        <time>2019-03-09T11:37:57Z</time>
      </trkpt>
      <trkpt lat="44.36776" lon="6.88982">
        <ele>2886.98</ele>
        <time>2019-03-09T11:38:22Z</time>
      </trkpt>
      <trkpt lat="44.36776" lon="6.8898">
        <ele>2886.5</ele>
        <time>2019-03-09T11:38:42Z</time>
      </trkpt>
      <trkpt lat="44.36778" lon="6.8898">
        <ele>2886.98</ele>
        <time>2019-03-09T11:39:05Z</time>
      </trkpt>
      <trkpt lat="44.36777" lon="6.8898">
        <ele>2886.98</ele>
        <time>2019-03-09T11:39:32Z</time>
      </trkpt>
      <trkpt lat="44.36776" lon="6.8898">
        <ele>2885.05</ele>
        <time>2019-03-09T11:39:51Z</time>
      </trkpt>
      <trkpt lat="44.36777" lon="6.88981">
        <ele>2890.82</ele>
        <time>2019-03-09T11:39:54Z</time>
      </trkpt>
      <trkpt lat="44.36777" lon="6.88981">
        <ele>2886.98</ele>
        <time>2019-03-09T11:39:55Z</time>
      </trkpt>
      <trkpt lat="44.36779" lon="6.88982">
        <ele>2886.98</ele>
        <time>2019-03-09T11:40:41Z</time>
      </trkpt>
      <trkpt lat="44.36778" lon="6.8898">
        <ele>2887.46</ele>
        <time>2019-03-09T11:41:37Z</time>
      </trkpt>
      <trkpt lat="44.36779" lon="6.8898">
        <ele>2887.94</ele>
        <time>2019-03-09T11:42:31Z</time>
      </trkpt>
      <trkpt lat="44.36778" lon="6.88982">
        <ele>2886.98</ele>
        <time>2019-03-09T11:42:52Z</time>
      </trkpt>
      <trkpt lat="44.36778" lon="6.88982">
        <ele>2891.3</ele>
        <time>2019-03-09T11:42:53Z</time>
      </trkpt>
      <trkpt lat="44.36779" lon="6.8898">
        <ele>2889.38</ele>
        <time>2019-03-09T11:43:19Z</time>
      </trkpt>
      <trkpt lat="44.36783" lon="6.8898">
        <ele>2890.82</ele>
        <time>2019-03-09T11:43:35Z</time>
      </trkpt>
      <trkpt lat="44.36788" lon="6.88977">
        <ele>2892.74</ele>
        <time>2019-03-09T11:43:55Z</time>
      </trkpt>
      <trkpt lat="44.3679" lon="6.88977">
        <ele>2894.19</ele>
        <time>2019-03-09T11:44:11Z</time>
      </trkpt>
      <trkpt lat="44.36789" lon="6.88976">
        <ele>2895.63</ele>
        <time>2019-03-09T11:44:32Z</time>
      </trkpt>
      <trkpt lat="44.36789" lon="6.88975">
        <ele>2897.07</ele>
        <time>2019-03-09T11:44:46Z</time>
      </trkpt>
      <trkpt lat="44.3679" lon="6.88973">
        <ele>2898.03</ele>
        <time>2019-03-09T11:45:04Z</time>
      </trkpt>
      <trkpt lat="44.36791" lon="6.88972">
        <ele>2899.47</ele>
        <time>2019-03-09T11:45:17Z</time>
      </trkpt>
      <trkpt lat="44.3679" lon="6.88971">
        <ele>2899.95</ele>
        <time>2019-03-09T11:45:32Z</time>
      </trkpt>
      <trkpt lat="44.36791" lon="6.8897">
        <ele>2901.4</ele>
        <time>2019-03-09T11:45:45Z</time>
      </trkpt>
      <trkpt lat="44.36792" lon="6.88971">
        <ele>2902.36</ele>
        <time>2019-03-09T11:46:09Z</time>
      </trkpt>
      <trkpt lat="44.36793" lon="6.88969">
        <ele>2904.28</ele>
        <time>2019-03-09T11:46:23Z</time>
      </trkpt>
      <trkpt lat="44.36791" lon="6.88967">
        <ele>2904.28</ele>
        <time>2019-03-09T11:46:32Z</time>
      </trkpt>
      <trkpt lat="44.36792" lon="6.88968">
        <ele>2905.24</ele>
        <time>2019-03-09T11:46:43Z</time>
      </trkpt>
      <trkpt lat="44.36793" lon="6.88965">
        <ele>2905.72</ele>
        <time>2019-03-09T11:46:54Z</time>
      </trkpt>
      <trkpt lat="44.36789" lon="6.88958">
        <ele>2906.68</ele>
        <time>2019-03-09T11:47:09Z</time>
      </trkpt>
      <trkpt lat="44.3679" lon="6.88954">
        <ele>2906.68</ele>
        <time>2019-03-09T11:47:22Z</time>
      </trkpt>
      <trkpt lat="44.36791" lon="6.88955">
        <ele>2908.13</ele>
        <time>2019-03-09T11:47:25Z</time>
      </trkpt>
      <trkpt lat="44.36796" lon="6.88948">
        <ele>2908.61</ele>
        <time>2019-03-09T11:47:39Z</time>
      </trkpt>
      <trkpt lat="44.36795" lon="6.8895">
        <ele>2910.05</ele>
        <time>2019-03-09T11:47:56Z</time>
      </trkpt>
      <trkpt lat="44.36795" lon="6.88951">
        <ele>2912.45</ele>
        <time>2019-03-09T11:48:00Z</time>
      </trkpt>
      <trkpt lat="44.36795" lon="6.88951">
        <ele>2910.53</ele>
        <time>2019-03-09T11:48:08Z</time>
      </trkpt>
      <trkpt lat="44.36795" lon="6.88951">
        <ele>2911.97</ele>
        <time>2019-03-09T11:48:24Z</time>
      </trkpt>
      <trkpt lat="44.36795" lon="6.88951">
        <ele>2911.97</ele>
        <time>2019-03-09T11:48:38Z</time>
      </trkpt>
      <trkpt lat="44.36792" lon="6.88945">
        <ele>2911.49</ele>
        <time>2019-03-09T11:48:55Z</time>
      </trkpt>
      <trkpt lat="44.36787" lon="6.88944">
        <ele>2914.37</ele>
        <time>2019-03-09T11:49:11Z</time>
      </trkpt>
      <trkpt lat="44.36785" lon="6.88938">
        <ele>2917.26</ele>
        <time>2019-03-09T11:49:27Z</time>
      </trkpt>
      <trkpt lat="44.36783" lon="6.88935">
        <ele>2919.18</ele>
        <time>2019-03-09T11:49:40Z</time>
      </trkpt>
      <trkpt lat="44.36782" lon="6.88934">
        <ele>2920.14</ele>
        <time>2019-03-09T11:49:49Z</time>
      </trkpt>
      <trkpt lat="44.36781" lon="6.88932">
        <ele>2915.82</ele>
        <time>2019-03-09T11:49:58Z</time>
      </trkpt>
      <trkpt lat="44.36781" lon="6.88931">
        <ele>2917.74</ele>
        <time>2019-03-09T11:49:59Z</time>
      </trkpt>
      <trkpt lat="44.36781" lon="6.88931">
        <ele>2920.62</ele>
        <time>2019-03-09T11:50:04Z</time>
      </trkpt>
      <trkpt lat="44.36781" lon="6.8893">
        <ele>2917.26</ele>
        <time>2019-03-09T11:50:07Z</time>
      </trkpt>
      <trkpt lat="44.36782" lon="6.8893">
        <ele>2919.18</ele>
        <time>2019-03-09T11:50:08Z</time>
      </trkpt>
      <trkpt lat="44.36781" lon="6.88929">
        <ele>2923.51</ele>
        <time>2019-03-09T11:50:15Z</time>
      </trkpt>
      <trkpt lat="44.36781" lon="6.88929">
        <ele>2922.54</ele>
        <time>2019-03-09T11:50:16Z</time>
      </trkpt>
      <trkpt lat="44.36781" lon="6.88929">
        <ele>2916.78</ele>
        <time>2019-03-09T11:50:20Z</time>
      </trkpt>
      <trkpt lat="44.3678" lon="6.88929">
        <ele>2915.82</ele>
        <time>2019-03-09T11:50:22Z</time>
      </trkpt>
      <trkpt lat="44.3678" lon="6.88929">
        <ele>2918.7</ele>
        <time>2019-03-09T11:50:26Z</time>
      </trkpt>
      <trkpt lat="44.3678" lon="6.8893">
        <ele>2921.1</ele>
        <time>2019-03-09T11:50:35Z</time>
      </trkpt>
      <trkpt lat="44.36778" lon="6.88923">
        <ele>2921.1</ele>
        <time>2019-03-09T11:50:47Z</time>
      </trkpt>
      <trkpt lat="44.36777" lon="6.88919">
        <ele>2920.62</ele>
        <time>2019-03-09T11:50:58Z</time>
      </trkpt>
      <trkpt lat="44.36776" lon="6.88917">
        <ele>2922.06</ele>
        <time>2019-03-09T11:51:02Z</time>
      </trkpt>
      <trkpt lat="44.36774" lon="6.88911">
        <ele>2924.47</ele>
        <time>2019-03-09T11:51:17Z</time>
      </trkpt>
      <trkpt lat="44.36772" lon="6.88905">
        <ele>2924.95</ele>
        <time>2019-03-09T11:51:31Z</time>
      </trkpt>
      <trkpt lat="44.36771" lon="6.88899">
        <ele>2922.06</ele>
        <time>2019-03-09T11:51:46Z</time>
      </trkpt>
      <trkpt lat="44.36771" lon="6.88899">
        <ele>2925.91</ele>
        <time>2019-03-09T11:51:49Z</time>
      </trkpt>
      <trkpt lat="44.3677" lon="6.88899">
        <ele>2926.39</ele>
        <time>2019-03-09T11:51:50Z</time>
      </trkpt>
      <trkpt lat="44.36768" lon="6.88895">
        <ele>2925.91</ele>
        <time>2019-03-09T11:52:06Z</time>
      </trkpt>
      <trkpt lat="44.36763" lon="6.88886">
        <ele>2928.31</ele>
        <time>2019-03-09T11:52:26Z</time>
      </trkpt>
      <trkpt lat="44.36761" lon="6.88877">
        <ele>2927.35</ele>
        <time>2019-03-09T11:52:40Z</time>
      </trkpt>
      <trkpt lat="44.3676" lon="6.88871">
        <ele>2928.31</ele>
        <time>2019-03-09T11:52:54Z</time>
      </trkpt>
      <trkpt lat="44.36762" lon="6.88866">
        <ele>2931.68</ele>
        <time>2019-03-09T11:53:10Z</time>
      </trkpt>
      <trkpt lat="44.36762" lon="6.88862">
        <ele>2934.08</ele>
        <time>2019-03-09T11:53:27Z</time>
      </trkpt>
      <trkpt lat="44.36758" lon="6.8886">
        <ele>2936</ele>
        <time>2019-03-09T11:53:42Z</time>
      </trkpt>
      <trkpt lat="44.36757" lon="6.88855">
        <ele>2939.37</ele>
        <time>2019-03-09T11:53:57Z</time>
      </trkpt>
      <trkpt lat="44.36757" lon="6.88854">
        <ele>2936.97</ele>
        <time>2019-03-09T11:54:02Z</time>
      </trkpt>
      <trkpt lat="44.36758" lon="6.88851">
        <ele>2939.37</ele>
        <time>2019-03-09T11:54:13Z</time>
      </trkpt>
      <trkpt lat="44.36758" lon="6.88851">
        <ele>2934.08</ele>
        <time>2019-03-09T11:54:15Z</time>
      </trkpt>
      <trkpt lat="44.36757" lon="6.8885">
        <ele>2938.89</ele>
        <time>2019-03-09T11:54:21Z</time>
      </trkpt>
      <trkpt lat="44.36757" lon="6.8885">
        <ele>2938.41</ele>
        <time>2019-03-09T11:54:22Z</time>
      </trkpt>
      <trkpt lat="44.36755" lon="6.88846">
        <ele>2938.41</ele>
        <time>2019-03-09T11:54:37Z</time>
      </trkpt>
      <trkpt lat="44.36754" lon="6.88844">
        <ele>2941.77</ele>
        <time>2019-03-09T11:54:44Z</time>
      </trkpt>
      <trkpt lat="44.36753" lon="6.8884">
        <ele>2941.77</ele>
        <time>2019-03-09T11:54:59Z</time>
      </trkpt>
      <trkpt lat="44.36753" lon="6.88838">
        <ele>2938.41</ele>
        <time>2019-03-09T11:55:02Z</time>
      </trkpt>
      <trkpt lat="44.36753" lon="6.88838">
        <ele>2939.85</ele>
        <time>2019-03-09T11:55:03Z</time>
      </trkpt>
      <trkpt lat="44.36752" lon="6.88832">
        <ele>2941.29</ele>
        <time>2019-03-09T11:55:18Z</time>
      </trkpt>
      <trkpt lat="44.36752" lon="6.88832">
        <ele>2942.25</ele>
        <time>2019-03-09T11:55:20Z</time>
      </trkpt>
      <trkpt lat="44.36752" lon="6.88832">
        <ele>2941.77</ele>
        <time>2019-03-09T11:55:25Z</time>
      </trkpt>
      <trkpt lat="44.36749" lon="6.88826">
        <ele>2943.21</ele>
        <time>2019-03-09T11:55:41Z</time>
      </trkpt>
      <trkpt lat="44.36748" lon="6.88822">
        <ele>2943.69</ele>
        <time>2019-03-09T11:55:56Z</time>
      </trkpt>
      <trkpt lat="44.36747" lon="6.88819">
        <ele>2946.58</ele>
        <time>2019-03-09T11:56:10Z</time>
      </trkpt>
      <trkpt lat="44.36746" lon="6.88817">
        <ele>2948.02</ele>
        <time>2019-03-09T11:56:25Z</time>
      </trkpt>
      <trkpt lat="44.36745" lon="6.88815">
        <ele>2948.02</ele>
        <time>2019-03-09T11:56:40Z</time>
      </trkpt>
      <trkpt lat="44.36744" lon="6.88815">
        <ele>2947.06</ele>
        <time>2019-03-09T11:56:43Z</time>
      </trkpt>
      <trkpt lat="44.36742" lon="6.88812">
        <ele>2949.46</ele>
        <time>2019-03-09T11:57:05Z</time>
      </trkpt>
      <trkpt lat="44.3674" lon="6.88807">
        <ele>2950.42</ele>
        <time>2019-03-09T11:57:20Z</time>
      </trkpt>
      <trkpt lat="44.3674" lon="6.88802">
        <ele>2953.31</ele>
        <time>2019-03-09T11:57:37Z</time>
      </trkpt>
      <trkpt lat="44.36737" lon="6.88797">
        <ele>2952.83</ele>
        <time>2019-03-09T11:57:57Z</time>
      </trkpt>
      <trkpt lat="44.36737" lon="6.88797">
        <ele>2954.27</ele>
        <time>2019-03-09T11:58:01Z</time>
      </trkpt>
      <trkpt lat="44.36736" lon="6.88793">
        <ele>2957.63</ele>
        <time>2019-03-09T11:58:15Z</time>
      </trkpt>
      <trkpt lat="44.36733" lon="6.88793">
        <ele>2959.56</ele>
        <time>2019-03-09T11:58:25Z</time>
      </trkpt>
      <trkpt lat="44.36729" lon="6.88796">
        <ele>2959.08</ele>
        <time>2019-03-09T11:58:42Z</time>
      </trkpt>
      <trkpt lat="44.36725" lon="6.88794">
        <ele>2961.48</ele>
        <time>2019-03-09T11:58:58Z</time>
      </trkpt>
      <trkpt lat="44.36723" lon="6.88793">
        <ele>2961.48</ele>
        <time>2019-03-09T11:59:17Z</time>
      </trkpt>
      <trkpt lat="44.36721" lon="6.88791">
        <ele>2964.36</ele>
        <time>2019-03-09T11:59:22Z</time>
      </trkpt>
      <trkpt lat="44.3672" lon="6.88791">
        <ele>2963.4</ele>
        <time>2019-03-09T11:59:38Z</time>
      </trkpt>
      <trkpt lat="44.3672" lon="6.88791">
        <ele>2964.36</ele>
        <time>2019-03-09T11:59:54Z</time>
      </trkpt>
      <trkpt lat="44.36718" lon="6.8879">
        <ele>2963.88</ele>
        <time>2019-03-09T12:00:12Z</time>
      </trkpt>
      <trkpt lat="44.36717" lon="6.8879">
        <ele>2962.92</ele>
        <time>2019-03-09T12:00:29Z</time>
      </trkpt>
      <trkpt lat="44.36715" lon="6.88788">
        <ele>2963.88</ele>
        <time>2019-03-09T12:00:43Z</time>
      </trkpt>
      <trkpt lat="44.3671" lon="6.88785">
        <ele>2963.88</ele>
        <time>2019-03-09T12:00:58Z</time>
      </trkpt>
      <trkpt lat="44.36708" lon="6.88784">
        <ele>2963.88</ele>
        <time>2019-03-09T12:01:09Z</time>
      </trkpt>
      <trkpt lat="44.36706" lon="6.88782">
        <ele>2963.4</ele>
        <time>2019-03-09T12:01:21Z</time>
      </trkpt>
      <trkpt lat="44.36705" lon="6.88781">
        <ele>2962.92</ele>
        <time>2019-03-09T12:01:29Z</time>
      </trkpt>
      <trkpt lat="44.36705" lon="6.88782">
        <ele>2965.8</ele>
        <time>2019-03-09T12:01:32Z</time>
      </trkpt>
      <trkpt lat="44.36706" lon="6.88781">
        <ele>2964.36</ele>
        <time>2019-03-09T12:01:35Z</time>
      </trkpt>
      <trkpt lat="44.36706" lon="6.8878">
        <ele>2965.32</ele>
        <time>2019-03-09T12:01:39Z</time>
      </trkpt>
      <trkpt lat="44.36706" lon="6.8878">
        <ele>2966.29</ele>
        <time>2019-03-09T12:01:46Z</time>
      </trkpt>
      <trkpt lat="44.36706" lon="6.8878">
        <ele>2963.88</ele>
        <time>2019-03-09T12:01:52Z</time>
      </trkpt>
      <trkpt lat="44.36706" lon="6.88781">
        <ele>2963.4</ele>
        <time>2019-03-09T12:01:59Z</time>
      </trkpt>
      <trkpt lat="44.36707" lon="6.88783">
        <ele>2963.88</ele>
        <time>2019-03-09T12:02:16Z</time>
      </trkpt>
      <trkpt lat="44.36707" lon="6.88783">
        <ele>2962.92</ele>
        <time>2019-03-09T12:02:34Z</time>
      </trkpt>
      <trkpt lat="44.36703" lon="6.88782">
        <ele>2964.84</ele>
        <time>2019-03-09T12:02:46Z</time>
      </trkpt>
      <trkpt lat="44.36701" lon="6.88782">
        <ele>2964.36</ele>
        <time>2019-03-09T12:03:03Z</time>
      </trkpt>
      <trkpt lat="44.367" lon="6.88781">
        <ele>2965.8</ele>
        <time>2019-03-09T12:03:22Z</time>
      </trkpt>
      <trkpt lat="44.36697" lon="6.8878">
        <ele>2964.84</ele>
        <time>2019-03-09T12:03:41Z</time>
      </trkpt>
      <trkpt lat="44.36698" lon="6.88779">
        <ele>2963.88</ele>
        <time>2019-03-09T12:03:59Z</time>
      </trkpt>
      <trkpt lat="44.36697" lon="6.88777">
        <ele>2963.4</ele>
        <time>2019-03-09T12:04:21Z</time>
      </trkpt>
      <trkpt lat="44.36696" lon="6.88778">
        <ele>2963.88</ele>
        <time>2019-03-09T12:04:38Z</time>
      </trkpt>
      <trkpt lat="44.36698" lon="6.88779">
        <ele>2965.32</ele>
        <time>2019-03-09T12:04:59Z</time>
      </trkpt>
      <trkpt lat="44.36699" lon="6.88777">
        <ele>2964.36</ele>
        <time>2019-03-09T12:05:23Z</time>
      </trkpt>
      <trkpt lat="44.36696" lon="6.8878">
        <ele>2962.92</ele>
        <time>2019-03-09T12:05:37Z</time>
      </trkpt>
      <trkpt lat="44.36695" lon="6.88781">
        <ele>2963.4</ele>
        <time>2019-03-09T12:06:13Z</time>
      </trkpt>
      <trkpt lat="44.36696" lon="6.88781">
        <ele>2963.88</ele>
        <time>2019-03-09T12:06:31Z</time>
      </trkpt>
      <trkpt lat="44.36694" lon="6.88778">
        <ele>2963.4</ele>
        <time>2019-03-09T12:06:49Z</time>
      </trkpt>
      <trkpt lat="44.36694" lon="6.88779">
        <ele>2963.4</ele>
        <time>2019-03-09T12:07:11Z</time>
      </trkpt>
      <trkpt lat="44.36694" lon="6.88776">
        <ele>2963.88</ele>
        <time>2019-03-09T12:07:29Z</time>
      </trkpt>
      <trkpt lat="44.36695" lon="6.88776">
        <ele>2962.92</ele>
        <time>2019-03-09T12:07:46Z</time>
      </trkpt>
      <trkpt lat="44.36698" lon="6.88777">
        <ele>2961</ele>
        <time>2019-03-09T12:07:59Z</time>
      </trkpt>
      <trkpt lat="44.36701" lon="6.88779">
        <ele>2963.4</ele>
        <time>2019-03-09T12:08:14Z</time>
      </trkpt>
      <trkpt lat="44.36707" lon="6.88782">
        <ele>2963.4</ele>
        <time>2019-03-09T12:08:26Z</time>
      </trkpt>
      <trkpt lat="44.36714" lon="6.88786">
        <ele>2963.4</ele>
        <time>2019-03-09T12:08:39Z</time>
      </trkpt>
      <trkpt lat="44.36714" lon="6.88787">
        <ele>2964.36</ele>
        <time>2019-03-09T12:09:01Z</time>
      </trkpt>
      <trkpt lat="44.36717" lon="6.88789">
        <ele>2962.92</ele>
        <time>2019-03-09T12:09:15Z</time>
      </trkpt>
      <trkpt lat="44.36717" lon="6.88792">
        <ele>2961.48</ele>
        <time>2019-03-09T12:09:28Z</time>
      </trkpt>
      <trkpt lat="44.36719" lon="6.88791">
        <ele>2961.48</ele>
        <time>2019-03-09T12:09:41Z</time>
      </trkpt>
      <trkpt lat="44.36725" lon="6.88791">
        <ele>2960.52</ele>
        <time>2019-03-09T12:09:55Z</time>
      </trkpt>
      <trkpt lat="44.36729" lon="6.88797">
        <ele>2958.59</ele>
        <time>2019-03-09T12:10:06Z</time>
      </trkpt>
      <trkpt lat="44.3673" lon="6.88794">
        <ele>2959.08</ele>
        <time>2019-03-09T12:10:21Z</time>
      </trkpt>
      <trkpt lat="44.36734" lon="6.88792">
        <ele>2957.63</ele>
        <time>2019-03-09T12:10:35Z</time>
      </trkpt>
      <trkpt lat="44.36738" lon="6.88794">
        <ele>2954.27</ele>
        <time>2019-03-09T12:10:50Z</time>
      </trkpt>
      <trkpt lat="44.36741" lon="6.88802">
        <ele>2951.87</ele>
        <time>2019-03-09T12:11:03Z</time>
      </trkpt>
      <trkpt lat="44.36744" lon="6.8881">
        <ele>2948.98</ele>
        <time>2019-03-09T12:11:14Z</time>
      </trkpt>
      <trkpt lat="44.36747" lon="6.88814">
        <ele>2947.54</ele>
        <time>2019-03-09T12:11:32Z</time>
      </trkpt>
      <trkpt lat="44.3675" lon="6.8882">
        <ele>2944.17</ele>
        <time>2019-03-09T12:11:43Z</time>
      </trkpt>
      <trkpt lat="44.36753" lon="6.88831">
        <ele>2942.25</ele>
        <time>2019-03-09T12:11:56Z</time>
      </trkpt>
      <trkpt lat="44.36754" lon="6.88832">
        <ele>2940.81</ele>
        <time>2019-03-09T12:11:59Z</time>
      </trkpt>
      <trkpt lat="44.36755" lon="6.88842">
        <ele>2939.37</ele>
        <time>2019-03-09T12:12:13Z</time>
      </trkpt>
      <trkpt lat="44.36757" lon="6.88851">
        <ele>2936</ele>
        <time>2019-03-09T12:12:27Z</time>
      </trkpt>
      <trkpt lat="44.36758" lon="6.88853">
        <ele>2935.04</ele>
        <time>2019-03-09T12:12:29Z</time>
      </trkpt>
      <trkpt lat="44.36759" lon="6.88857">
        <ele>2934.56</ele>
        <time>2019-03-09T12:12:41Z</time>
      </trkpt>
      <trkpt lat="44.3676" lon="6.88856">
        <ele>2936.48</ele>
        <time>2019-03-09T12:12:45Z</time>
      </trkpt>
      <trkpt lat="44.3676" lon="6.88856">
        <ele>2935.52</ele>
        <time>2019-03-09T12:12:47Z</time>
      </trkpt>
      <trkpt lat="44.36762" lon="6.88859">
        <ele>2932.64</ele>
        <time>2019-03-09T12:12:55Z</time>
      </trkpt>
      <trkpt lat="44.36762" lon="6.88863">
        <ele>2930.24</ele>
        <time>2019-03-09T12:13:11Z</time>
      </trkpt>
      <trkpt lat="44.36763" lon="6.88869">
        <ele>2928.79</ele>
        <time>2019-03-09T12:13:20Z</time>
      </trkpt>
      <trkpt lat="44.36763" lon="6.88881">
        <ele>2927.83</ele>
        <time>2019-03-09T12:13:30Z</time>
      </trkpt>
      <trkpt lat="44.36767" lon="6.88888">
        <ele>2926.87</ele>
        <time>2019-03-09T12:13:38Z</time>
      </trkpt>
      <trkpt lat="44.36769" lon="6.8889">
        <ele>2925.91</ele>
        <time>2019-03-09T12:13:41Z</time>
      </trkpt>
      <trkpt lat="44.36773" lon="6.88902">
        <ele>2927.83</ele>
        <time>2019-03-09T12:13:53Z</time>
      </trkpt>
      <trkpt lat="44.36776" lon="6.8891">
        <ele>2924.95</ele>
        <time>2019-03-09T12:14:01Z</time>
      </trkpt>
      <trkpt lat="44.36778" lon="6.88913">
        <ele>2923.99</ele>
        <time>2019-03-09T12:14:06Z</time>
      </trkpt>
      <trkpt lat="44.36778" lon="6.88915">
        <ele>2925.43</ele>
        <time>2019-03-09T12:14:13Z</time>
      </trkpt>
      <trkpt lat="44.36779" lon="6.88916">
        <ele>2922.06</ele>
        <time>2019-03-09T12:14:17Z</time>
      </trkpt>
      <trkpt lat="44.36779" lon="6.88916">
        <ele>2923.03</ele>
        <time>2019-03-09T12:14:18Z</time>
      </trkpt>
      <trkpt lat="44.36781" lon="6.88924">
        <ele>2922.06</ele>
        <time>2019-03-09T12:14:31Z</time>
      </trkpt>
      <trkpt lat="44.36783" lon="6.8893">
        <ele>2919.66</ele>
        <time>2019-03-09T12:14:39Z</time>
      </trkpt>
      <trkpt lat="44.36787" lon="6.88937">
        <ele>2917.26</ele>
        <time>2019-03-09T12:14:53Z</time>
      </trkpt>
      <trkpt lat="44.36786" lon="6.88938">
        <ele>2919.18</ele>
        <time>2019-03-09T12:15:06Z</time>
      </trkpt>
      <trkpt lat="44.3679" lon="6.88941">
        <ele>2916.3</ele>
        <time>2019-03-09T12:15:21Z</time>
      </trkpt>
      <trkpt lat="44.3679" lon="6.88943">
        <ele>2912.45</ele>
        <time>2019-03-09T12:15:24Z</time>
      </trkpt>
      <trkpt lat="44.3679" lon="6.88942">
        <ele>2909.09</ele>
        <time>2019-03-09T12:15:25Z</time>
      </trkpt>
      <trkpt lat="44.36791" lon="6.88942">
        <ele>2910.53</ele>
        <time>2019-03-09T12:15:26Z</time>
      </trkpt>
      <trkpt lat="44.36793" lon="6.88943">
        <ele>2912.45</ele>
        <time>2019-03-09T12:15:29Z</time>
      </trkpt>
      <trkpt lat="44.36796" lon="6.88948">
        <ele>2912.45</ele>
        <time>2019-03-09T12:15:41Z</time>
      </trkpt>
      <trkpt lat="44.36797" lon="6.88949">
        <ele>2911.01</ele>
        <time>2019-03-09T12:15:44Z</time>
      </trkpt>
      <trkpt lat="44.36798" lon="6.88953">
        <ele>2907.16</ele>
        <time>2019-03-09T12:15:53Z</time>
      </trkpt>
      <trkpt lat="44.36798" lon="6.88954">
        <ele>2910.05</ele>
        <time>2019-03-09T12:16:25Z</time>
      </trkpt>
      <trkpt lat="44.36795" lon="6.88954">
        <ele>2910.05</ele>
        <time>2019-03-09T12:16:30Z</time>
      </trkpt>
      <trkpt lat="44.36791" lon="6.88959">
        <ele>2906.68</ele>
        <time>2019-03-09T12:16:41Z</time>
      </trkpt>
      <trkpt lat="44.36792" lon="6.88961">
        <ele>2906.68</ele>
        <time>2019-03-09T12:16:54Z</time>
      </trkpt>
      <trkpt lat="44.36793" lon="6.88964">
        <ele>2906.2</ele>
        <time>2019-03-09T12:17:07Z</time>
      </trkpt>
      <trkpt lat="44.36793" lon="6.88963">
        <ele>2905.72</ele>
        <time>2019-03-09T12:17:26Z</time>
      </trkpt>
      <trkpt lat="44.36792" lon="6.88964">
        <ele>2905.72</ele>
        <time>2019-03-09T12:17:41Z</time>
      </trkpt>
      <trkpt lat="44.36791" lon="6.88965">
        <ele>2905.24</ele>
        <time>2019-03-09T12:17:53Z</time>
      </trkpt>
      <trkpt lat="44.36792" lon="6.88964">
        <ele>2904.28</ele>
        <time>2019-03-09T12:18:00Z</time>
      </trkpt>
      <trkpt lat="44.36792" lon="6.88964">
        <ele>2906.68</ele>
        <time>2019-03-09T12:18:29Z</time>
      </trkpt>
      <trkpt lat="44.36792" lon="6.88964">
        <ele>2905.72</ele>
        <time>2019-03-09T12:18:40Z</time>
      </trkpt>
      <trkpt lat="44.36793" lon="6.88964">
        <ele>2906.2</ele>
        <time>2019-03-09T12:18:57Z</time>
      </trkpt>
      <trkpt lat="44.36794" lon="6.88964">
        <ele>2906.68</ele>
        <time>2019-03-09T12:19:17Z</time>
      </trkpt>
      <trkpt lat="44.36793" lon="6.88962">
        <ele>2904.76</ele>
        <time>2019-03-09T12:19:37Z</time>
      </trkpt>
      <trkpt lat="44.36793" lon="6.88965">
        <ele>2905.24</ele>
        <time>2019-03-09T12:20:06Z</time>
      </trkpt>
      <trkpt lat="44.36794" lon="6.88964">
        <ele>2905.24</ele>
        <time>2019-03-09T12:20:32Z</time>
      </trkpt>
      <trkpt lat="44.36793" lon="6.88964">
        <ele>2906.2</ele>
        <time>2019-03-09T12:20:58Z</time>
      </trkpt>
      <trkpt lat="44.36794" lon="6.88963">
        <ele>2905.24</ele>
        <time>2019-03-09T12:21:24Z</time>
      </trkpt>
      <trkpt lat="44.36792" lon="6.88966">
        <ele>2904.76</ele>
        <time>2019-03-09T12:21:46Z</time>
      </trkpt>
      <trkpt lat="44.36794" lon="6.88965">
        <ele>2905.24</ele>
        <time>2019-03-09T12:22:13Z</time>
      </trkpt>
      <trkpt lat="44.36796" lon="6.88966">
        <ele>2905.24</ele>
        <time>2019-03-09T12:22:26Z</time>
      </trkpt>
      <trkpt lat="44.36794" lon="6.88968">
        <ele>2904.28</ele>
        <time>2019-03-09T12:22:42Z</time>
      </trkpt>
      <trkpt lat="44.36793" lon="6.88969">
        <ele>2903.8</ele>
        <time>2019-03-09T12:22:54Z</time>
      </trkpt>
      <trkpt lat="44.36793" lon="6.88971">
        <ele>2902.84</ele>
        <time>2019-03-09T12:23:10Z</time>
      </trkpt>
      <trkpt lat="44.36792" lon="6.88972">
        <ele>2901.88</ele>
        <time>2019-03-09T12:23:25Z</time>
      </trkpt>
      <trkpt lat="44.36791" lon="6.88974">
        <ele>2901.4</ele>
        <time>2019-03-09T12:23:41Z</time>
      </trkpt>
      <trkpt lat="44.36792" lon="6.88973">
        <ele>2900.92</ele>
        <time>2019-03-09T12:23:54Z</time>
      </trkpt>
      <trkpt lat="44.36792" lon="6.88974">
        <ele>2900.44</ele>
        <time>2019-03-09T12:24:11Z</time>
      </trkpt>
      <trkpt lat="44.3679" lon="6.88976">
        <ele>2899.47</ele>
        <time>2019-03-09T12:24:25Z</time>
      </trkpt>
      <trkpt lat="44.3679" lon="6.88977">
        <ele>2899.47</ele>
        <time>2019-03-09T12:24:39Z</time>
      </trkpt>
      <trkpt lat="44.36791" lon="6.88977">
        <ele>2898.99</ele>
        <time>2019-03-09T12:24:54Z</time>
      </trkpt>
      <trkpt lat="44.36789" lon="6.88979">
        <ele>2898.03</ele>
        <time>2019-03-09T12:25:14Z</time>
      </trkpt>
      <trkpt lat="44.36788" lon="6.8898">
        <ele>2898.51</ele>
        <time>2019-03-09T12:25:27Z</time>
      </trkpt>
      <trkpt lat="44.36788" lon="6.88981">
        <ele>2897.07</ele>
        <time>2019-03-09T12:25:42Z</time>
      </trkpt>
      <trkpt lat="44.36787" lon="6.88981">
        <ele>2897.07</ele>
        <time>2019-03-09T12:25:43Z</time>
      </trkpt>
      <trkpt lat="44.36787" lon="6.88981">
        <ele>2898.51</ele>
        <time>2019-03-09T12:25:46Z</time>
      </trkpt>
      <trkpt lat="44.36787" lon="6.88981">
        <ele>2896.59</ele>
        <time>2019-03-09T12:25:48Z</time>
      </trkpt>
      <trkpt lat="44.36785" lon="6.88983">
        <ele>2894.67</ele>
        <time>2019-03-09T12:26:00Z</time>
      </trkpt>
      <trkpt lat="44.36782" lon="6.88983">
        <ele>2891.78</ele>
        <time>2019-03-09T12:26:12Z</time>
      </trkpt>
      <trkpt lat="44.36778" lon="6.88984">
        <ele>2890.34</ele>
        <time>2019-03-09T12:26:23Z</time>
      </trkpt>
      <trkpt lat="44.36777" lon="6.88985">
        <ele>2890.34</ele>
        <time>2019-03-09T12:26:33Z</time>
      </trkpt>
      <trkpt lat="44.36776" lon="6.88985">
        <ele>2889.38</ele>
        <time>2019-03-09T12:26:49Z</time>
      </trkpt>
      <trkpt lat="44.36776" lon="6.88984">
        <ele>2889.86</ele>
        <time>2019-03-09T12:27:03Z</time>
      </trkpt>
      <trkpt lat="44.36777" lon="6.88982">
        <ele>2890.34</ele>
        <time>2019-03-09T12:27:19Z</time>
      </trkpt>
      <trkpt lat="44.36777" lon="6.88982">
        <ele>2889.86</ele>
        <time>2019-03-09T12:27:37Z</time>
      </trkpt>
      <trkpt lat="44.36776" lon="6.88983">
        <ele>2889.38</ele>
        <time>2019-03-09T12:27:52Z</time>
      </trkpt>
      <trkpt lat="44.36776" lon="6.88982">
        <ele>2890.34</ele>
        <time>2019-03-09T12:28:09Z</time>
      </trkpt>
      <trkpt lat="44.36778" lon="6.88983">
        <ele>2891.78</ele>
        <time>2019-03-09T12:28:33Z</time>
      </trkpt>
      <trkpt lat="44.36777" lon="6.88983">
        <ele>2890.34</ele>
        <time>2019-03-09T12:28:57Z</time>
      </trkpt>
      <trkpt lat="44.36777" lon="6.88984">
        <ele>2890.82</ele>
        <time>2019-03-09T12:29:15Z</time>
      </trkpt>
      <trkpt lat="44.36776" lon="6.88982">
        <ele>2888.9</ele>
        <time>2019-03-09T12:29:30Z</time>
      </trkpt>
      <trkpt lat="44.36777" lon="6.88983">
        <ele>2890.34</ele>
        <time>2019-03-09T12:29:47Z</time>
      </trkpt>
      <trkpt lat="44.36776" lon="6.88984">
        <ele>2889.38</ele>
        <time>2019-03-09T12:30:12Z</time>
      </trkpt>
      <trkpt lat="44.36778" lon="6.88982">
        <ele>2890.82</ele>
        <time>2019-03-09T12:30:34Z</time>
      </trkpt>
      <trkpt lat="44.36776" lon="6.88983">
        <ele>2889.38</ele>
        <time>2019-03-09T12:30:51Z</time>
      </trkpt>
      <trkpt lat="44.36777" lon="6.88984">
        <ele>2890.34</ele>
        <time>2019-03-09T12:31:09Z</time>
      </trkpt>
      <trkpt lat="44.36777" lon="6.88988">
        <ele>2893.71</ele>
        <time>2019-03-09T12:31:28Z</time>
      </trkpt>
      <trkpt lat="44.36777" lon="6.88987">
        <ele>2890.82</ele>
        <time>2019-03-09T12:31:30Z</time>
      </trkpt>
      <trkpt lat="44.36777" lon="6.88985">
        <ele>2893.23</ele>
        <time>2019-03-09T12:31:48Z</time>
      </trkpt>
      <trkpt lat="44.36777" lon="6.88984">
        <ele>2889.86</ele>
        <time>2019-03-09T12:31:55Z</time>
      </trkpt>
      <trkpt lat="44.36777" lon="6.88984">
        <ele>2892.26</ele>
        <time>2019-03-09T12:32:12Z</time>
      </trkpt>
      <trkpt lat="44.36779" lon="6.8898">
        <ele>2891.3</ele>
        <time>2019-03-09T12:32:31Z</time>
      </trkpt>
      <trkpt lat="44.36778" lon="6.88981">
        <ele>2891.3</ele>
        <time>2019-03-09T12:32:54Z</time>
      </trkpt>
      <trkpt lat="44.36776" lon="6.88982">
        <ele>2890.34</ele>
        <time>2019-03-09T12:33:11Z</time>
      </trkpt>
      <trkpt lat="44.36775" lon="6.88982">
        <ele>2890.34</ele>
        <time>2019-03-09T12:33:30Z</time>
      </trkpt>
      <trkpt lat="44.36773" lon="6.88981">
        <ele>2891.3</ele>
        <time>2019-03-09T12:33:42Z</time>
      </trkpt>
      <trkpt lat="44.3677" lon="6.88984">
        <ele>2890.34</ele>
        <time>2019-03-09T12:33:45Z</time>
      </trkpt>
      <trkpt lat="44.36772" lon="6.88989">
        <ele>2887.46</ele>
        <time>2019-03-09T12:33:47Z</time>
      </trkpt>
      <trkpt lat="44.36772" lon="6.88997">
        <ele>2888.42</ele>
        <time>2019-03-09T12:33:50Z</time>
      </trkpt>
      <trkpt lat="44.36768" lon="6.88996">
        <ele>2886.98</ele>
        <time>2019-03-09T12:33:51Z</time>
      </trkpt>
      <trkpt lat="44.36766" lon="6.88995">
        <ele>2883.61</ele>
        <time>2019-03-09T12:33:53Z</time>
      </trkpt>
      <trkpt lat="44.36766" lon="6.88994">
        <ele>2883.61</ele>
        <time>2019-03-09T12:33:54Z</time>
      </trkpt>
      <trkpt lat="44.36764" lon="6.88995">
        <ele>2882.65</ele>
        <time>2019-03-09T12:34:04Z</time>
      </trkpt>
      <trkpt lat="44.36764" lon="6.88994">
        <ele>2881.69</ele>
        <time>2019-03-09T12:34:22Z</time>
      </trkpt>
      <trkpt lat="44.36765" lon="6.88995">
        <ele>2881.21</ele>
        <time>2019-03-09T12:34:45Z</time>
      </trkpt>
      <trkpt lat="44.36766" lon="6.88994">
        <ele>2883.13</ele>
        <time>2019-03-09T12:34:48Z</time>
      </trkpt>
      <trkpt lat="44.36766" lon="6.88994">
        <ele>2880.73</ele>
        <time>2019-03-09T12:34:52Z</time>
      </trkpt>
      <trkpt lat="44.36765" lon="6.88994">
        <ele>2882.17</ele>
        <time>2019-03-09T12:34:57Z</time>
      </trkpt>
      <trkpt lat="44.36764" lon="6.88996">
        <ele>2878.81</ele>
        <time>2019-03-09T12:35:09Z</time>
      </trkpt>
      <trkpt lat="44.36763" lon="6.88999">
        <ele>2880.73</ele>
        <time>2019-03-09T12:35:10Z</time>
      </trkpt>
      <trkpt lat="44.36765" lon="6.89001">
        <ele>2881.21</ele>
        <time>2019-03-09T12:35:12Z</time>
      </trkpt>
      <trkpt lat="44.36767" lon="6.89">
        <ele>2881.69</ele>
        <time>2019-03-09T12:35:17Z</time>
      </trkpt>
      <trkpt lat="44.36767" lon="6.88999">
        <ele>2878.32</ele>
        <time>2019-03-09T12:35:28Z</time>
      </trkpt>
      <trkpt lat="44.36764" lon="6.88998">
        <ele>2878.81</ele>
        <time>2019-03-09T12:35:59Z</time>
      </trkpt>
      <trkpt lat="44.3677" lon="6.89001">
        <ele>2879.29</ele>
        <time>2019-03-09T12:36:27Z</time>
      </trkpt>
      <trkpt lat="44.36769" lon="6.89">
        <ele>2879.77</ele>
        <time>2019-03-09T12:36:46Z</time>
      </trkpt>
      <trkpt lat="44.36764" lon="6.88998">
        <ele>2878.81</ele>
        <time>2019-03-09T12:37:11Z</time>
      </trkpt>
      <trkpt lat="44.36769" lon="6.89">
        <ele>2877.84</ele>
        <time>2019-03-09T12:37:35Z</time>
      </trkpt>
      <trkpt lat="44.36772" lon="6.88999">
        <ele>2877.84</ele>
        <time>2019-03-09T12:38:01Z</time>
      </trkpt>
      <trkpt lat="44.36767" lon="6.89">
        <ele>2878.32</ele>
        <time>2019-03-09T12:38:24Z</time>
      </trkpt>
      <trkpt lat="44.36767" lon="6.89">
        <ele>2878.81</ele>
        <time>2019-03-09T12:38:45Z</time>
      </trkpt>
      <trkpt lat="44.36768" lon="6.89001">
        <ele>2878.32</ele>
        <time>2019-03-09T12:38:52Z</time>
      </trkpt>
      <trkpt lat="44.36769" lon="6.89003">
        <ele>2878.32</ele>
        <time>2019-03-09T12:38:53Z</time>
      </trkpt>
      <trkpt lat="44.36772" lon="6.89009">
        <ele>2875.92</ele>
        <time>2019-03-09T12:38:56Z</time>
      </trkpt>
      <trkpt lat="44.36766" lon="6.89012">
        <ele>2873.04</ele>
        <time>2019-03-09T12:38:58Z</time>
      </trkpt>
      <trkpt lat="44.36764" lon="6.89013">
        <ele>2872.56</ele>
        <time>2019-03-09T12:38:59Z</time>
      </trkpt>
      <trkpt lat="44.36765" lon="6.89018">
        <ele>2868.71</ele>
        <time>2019-03-09T12:39:01Z</time>
      </trkpt>
      <trkpt lat="44.36763" lon="6.89021">
        <ele>2867.75</ele>
        <time>2019-03-09T12:39:03Z</time>
      </trkpt>
      <trkpt lat="44.36762" lon="6.89032">
        <ele>2861.02</ele>
        <time>2019-03-09T12:39:07Z</time>
      </trkpt>
      <trkpt lat="44.36762" lon="6.89037">
        <ele>2857.18</ele>
        <time>2019-03-09T12:39:09Z</time>
      </trkpt>
      <trkpt lat="44.36761" lon="6.89043">
        <ele>2853.33</ele>
        <time>2019-03-09T12:39:12Z</time>
      </trkpt>
      <trkpt lat="44.36758" lon="6.89049">
        <ele>2849.48</ele>
        <time>2019-03-09T12:39:14Z</time>
      </trkpt>
      <trkpt lat="44.36757" lon="6.89058">
        <ele>2844.2</ele>
        <time>2019-03-09T12:39:17Z</time>
      </trkpt>
      <trkpt lat="44.36756" lon="6.89061">
        <ele>2844.2</ele>
        <time>2019-03-09T12:39:18Z</time>
      </trkpt>
      <trkpt lat="44.36753" lon="6.89072">
        <ele>2839.39</ele>
        <time>2019-03-09T12:39:21Z</time>
      </trkpt>
      <trkpt lat="44.36753" lon="6.89083">
        <ele>2838.43</ele>
        <time>2019-03-09T12:39:24Z</time>
      </trkpt>
      <trkpt lat="44.36753" lon="6.89084">
        <ele>2832.66</ele>
        <time>2019-03-09T12:39:30Z</time>
      </trkpt>
      <trkpt lat="44.36753" lon="6.89084">
        <ele>2833.62</ele>
        <time>2019-03-09T12:39:31Z</time>
      </trkpt>
      <trkpt lat="44.36753" lon="6.89083">
        <ele>2832.66</ele>
        <time>2019-03-09T12:39:46Z</time>
      </trkpt>
      <trkpt lat="44.36754" lon="6.89081">
        <ele>2832.66</ele>
        <time>2019-03-09T12:40:06Z</time>
      </trkpt>
      <trkpt lat="44.36754" lon="6.89081">
        <ele>2832.66</ele>
        <time>2019-03-09T12:40:07Z</time>
      </trkpt>
      <trkpt lat="44.36752" lon="6.89084">
        <ele>2832.66</ele>
        <time>2019-03-09T12:40:28Z</time>
      </trkpt>
      <trkpt lat="44.36752" lon="6.89084">
        <ele>2834.58</ele>
        <time>2019-03-09T12:40:48Z</time>
      </trkpt>
      <trkpt lat="44.36752" lon="6.89085">
        <ele>2834.58</ele>
        <time>2019-03-09T12:40:56Z</time>
      </trkpt>
      <trkpt lat="44.36746" lon="6.8908">
        <ele>2829.78</ele>
        <time>2019-03-09T12:41:01Z</time>
      </trkpt>
      <trkpt lat="44.36746" lon="6.8908">
        <ele>2829.78</ele>
        <time>2019-03-09T12:41:02Z</time>
      </trkpt>
      <trkpt lat="44.36745" lon="6.89081">
        <ele>2831.22</ele>
        <time>2019-03-09T12:41:29Z</time>
      </trkpt>
      <trkpt lat="44.36742" lon="6.89081">
        <ele>2831.22</ele>
        <time>2019-03-09T12:41:55Z</time>
      </trkpt>
      <trkpt lat="44.36741" lon="6.89081">
        <ele>2831.22</ele>
        <time>2019-03-09T12:42:18Z</time>
      </trkpt>
      <trkpt lat="44.36743" lon="6.89081">
        <ele>2832.18</ele>
        <time>2019-03-09T12:42:39Z</time>
      </trkpt>
      <trkpt lat="44.36742" lon="6.89081">
        <ele>2832.18</ele>
        <time>2019-03-09T12:42:41Z</time>
      </trkpt>
      <trkpt lat="44.36734" lon="6.89074">
        <ele>2829.78</ele>
        <time>2019-03-09T12:42:45Z</time>
      </trkpt>
      <trkpt lat="44.36725" lon="6.89064">
        <ele>2828.82</ele>
        <time>2019-03-09T12:42:48Z</time>
      </trkpt>
      <trkpt lat="44.36715" lon="6.89053">
        <ele>2826.89</ele>
        <time>2019-03-09T12:42:51Z</time>
      </trkpt>
      <trkpt lat="44.36711" lon="6.89048">
        <ele>2825.93</ele>
        <time>2019-03-09T12:42:52Z</time>
      </trkpt>
      <trkpt lat="44.36697" lon="6.89027">
        <ele>2822.57</ele>
        <time>2019-03-09T12:42:55Z</time>
      </trkpt>
      <trkpt lat="44.36689" lon="6.89017">
        <ele>2821.61</ele>
        <time>2019-03-09T12:42:57Z</time>
      </trkpt>
      <trkpt lat="44.36681" lon="6.8901">
        <ele>2823.53</ele>
        <time>2019-03-09T12:43:00Z</time>
      </trkpt>
      <trkpt lat="44.36661" lon="6.88992">
        <ele>2820.16</ele>
        <time>2019-03-09T12:43:07Z</time>
      </trkpt>
      <trkpt lat="44.36658" lon="6.88991">
        <ele>2819.2</ele>
        <time>2019-03-09T12:43:08Z</time>
      </trkpt>
      <trkpt lat="44.36655" lon="6.88993">
        <ele>2819.68</ele>
        <time>2019-03-09T12:43:09Z</time>
      </trkpt>
      <trkpt lat="44.36652" lon="6.88995">
        <ele>2818.72</ele>
        <time>2019-03-09T12:43:10Z</time>
      </trkpt>
      <trkpt lat="44.36649" lon="6.88995">
        <ele>2815.36</ele>
        <time>2019-03-09T12:43:11Z</time>
      </trkpt>
      <trkpt lat="44.36645" lon="6.88991">
        <ele>2813.92</ele>
        <time>2019-03-09T12:43:12Z</time>
      </trkpt>
      <trkpt lat="44.36643" lon="6.88987">
        <ele>2813.44</ele>
        <time>2019-03-09T12:43:13Z</time>
      </trkpt>
      <trkpt lat="44.3664" lon="6.88987">
        <ele>2813.92</ele>
        <time>2019-03-09T12:43:14Z</time>
      </trkpt>
      <trkpt lat="44.36637" lon="6.88991">
        <ele>2813.92</ele>
        <time>2019-03-09T12:43:15Z</time>
      </trkpt>
      <trkpt lat="44.36635" lon="6.88991">
        <ele>2812.47</ele>
        <time>2019-03-09T12:43:16Z</time>
      </trkpt>
      <trkpt lat="44.36632" lon="6.8899">
        <ele>2809.11</ele>
        <time>2019-03-09T12:43:17Z</time>
      </trkpt>
      <trkpt lat="44.3663" lon="6.88992">
        <ele>2808.63</ele>
        <time>2019-03-09T12:43:18Z</time>
      </trkpt>
      <trkpt lat="44.36631" lon="6.88996">
        <ele>2808.63</ele>
        <time>2019-03-09T12:43:19Z</time>
      </trkpt>
      <trkpt lat="44.36633" lon="6.88998">
        <ele>2807.19</ele>
        <time>2019-03-09T12:43:20Z</time>
      </trkpt>
      <trkpt lat="44.36634" lon="6.88997">
        <ele>2807.67</ele>
        <time>2019-03-09T12:43:34Z</time>
      </trkpt>
      <trkpt lat="44.36634" lon="6.88995">
        <ele>2806.71</ele>
        <time>2019-03-09T12:43:54Z</time>
      </trkpt>
      <trkpt lat="44.36634" lon="6.88995">
        <ele>2806.71</ele>
        <time>2019-03-09T12:44:14Z</time>
      </trkpt>
      <trkpt lat="44.36635" lon="6.88994">
        <ele>2806.71</ele>
        <time>2019-03-09T12:44:32Z</time>
      </trkpt>
      <trkpt lat="44.36634" lon="6.88993">
        <ele>2806.71</ele>
        <time>2019-03-09T12:44:48Z</time>
      </trkpt>
      <trkpt lat="44.36634" lon="6.88994">
        <ele>2806.71</ele>
        <time>2019-03-09T12:44:51Z</time>
      </trkpt>
      <trkpt lat="44.36633" lon="6.88996">
        <ele>2807.19</ele>
        <time>2019-03-09T12:44:52Z</time>
      </trkpt>
      <trkpt lat="44.3663" lon="6.89">
        <ele>2806.71</ele>
        <time>2019-03-09T12:44:53Z</time>
      </trkpt>
      <trkpt lat="44.36626" lon="6.89002">
        <ele>2805.75</ele>
        <time>2019-03-09T12:44:54Z</time>
      </trkpt>
      <trkpt lat="44.36624" lon="6.89001">
        <ele>2804.3</ele>
        <time>2019-03-09T12:45:00Z</time>
      </trkpt>
      <trkpt lat="44.36626" lon="6.88998">
        <ele>2805.75</ele>
        <time>2019-03-09T12:45:21Z</time>
      </trkpt>
      <trkpt lat="44.36626" lon="6.88995">
        <ele>2804.78</ele>
        <time>2019-03-09T12:45:36Z</time>
      </trkpt>
      <trkpt lat="44.36627" lon="6.88994">
        <ele>2804.3</ele>
        <time>2019-03-09T12:46:00Z</time>
      </trkpt>
      <trkpt lat="44.36629" lon="6.88992">
        <ele>2800.94</ele>
        <time>2019-03-09T12:46:30Z</time>
      </trkpt>
      <trkpt lat="44.36628" lon="6.88993">
        <ele>2801.9</ele>
        <time>2019-03-09T12:46:49Z</time>
      </trkpt>
      <trkpt lat="44.36624" lon="6.88991">
        <ele>2800.94</ele>
        <time>2019-03-09T12:47:07Z</time>
      </trkpt>
      <trkpt lat="44.36622" lon="6.88989">
        <ele>2800.46</ele>
        <time>2019-03-09T12:47:09Z</time>
      </trkpt>
      <trkpt lat="44.36621" lon="6.88986">
        <ele>2799.98</ele>
        <time>2019-03-09T12:47:10Z</time>
      </trkpt>
      <trkpt lat="44.36616" lon="6.88977">
        <ele>2799.5</ele>
        <time>2019-03-09T12:47:12Z</time>
      </trkpt>
      <trkpt lat="44.36613" lon="6.88972">
        <ele>2798.05</ele>
        <time>2019-03-09T12:47:13Z</time>
      </trkpt>
      <trkpt lat="44.3661" lon="6.88966">
        <ele>2797.09</ele>
        <time>2019-03-09T12:47:14Z</time>
      </trkpt>
      <trkpt lat="44.36594" lon="6.88944">
        <ele>2794.21</ele>
        <time>2019-03-09T12:47:18Z</time>
      </trkpt>
      <trkpt lat="44.3658" lon="6.8892">
        <ele>2791.81</ele>
        <time>2019-03-09T12:47:23Z</time>
      </trkpt>
      <trkpt lat="44.3656" lon="6.88884">
        <ele>2788.44</ele>
        <time>2019-03-09T12:47:32Z</time>
      </trkpt>
      <trkpt lat="44.36551" lon="6.88868">
        <ele>2787.48</ele>
        <time>2019-03-09T12:47:41Z</time>
      </trkpt>
      <trkpt lat="44.3655" lon="6.88869">
        <ele>2787.48</ele>
        <time>2019-03-09T12:47:47Z</time>
      </trkpt>
      <trkpt lat="44.36541" lon="6.88851">
        <ele>2784.6</ele>
        <time>2019-03-09T12:47:53Z</time>
      </trkpt>
      <trkpt lat="44.36529" lon="6.8883">
        <ele>2781.23</ele>
        <time>2019-03-09T12:47:58Z</time>
      </trkpt>
      <trkpt lat="44.36517" lon="6.88809">
        <ele>2777.87</ele>
        <time>2019-03-09T12:48:04Z</time>
      </trkpt>
      <trkpt lat="44.36513" lon="6.88804">
        <ele>2777.39</ele>
        <time>2019-03-09T12:48:11Z</time>
      </trkpt>
      <trkpt lat="44.36511" lon="6.88803">
        <ele>2776.91</ele>
        <time>2019-03-09T12:48:12Z</time>
      </trkpt>
      <trkpt lat="44.365" lon="6.88787">
        <ele>2774.02</ele>
        <time>2019-03-09T12:48:21Z</time>
      </trkpt>
      <trkpt lat="44.36488" lon="6.8878">
        <ele>2772.1</ele>
        <time>2019-03-09T12:48:31Z</time>
      </trkpt>
      <trkpt lat="44.36489" lon="6.88781">
        <ele>2773.54</ele>
        <time>2019-03-09T12:48:56Z</time>
      </trkpt>
      <trkpt lat="44.36482" lon="6.88772">
        <ele>2769.7</ele>
        <time>2019-03-09T12:49:01Z</time>
      </trkpt>
      <trkpt lat="44.36478" lon="6.88764">
        <ele>2767.77</ele>
        <time>2019-03-09T12:49:02Z</time>
      </trkpt>
      <trkpt lat="44.36474" lon="6.88761">
        <ele>2767.77</ele>
        <time>2019-03-09T12:49:03Z</time>
      </trkpt>
      <trkpt lat="44.36448" lon="6.88751">
        <ele>2764.89</ele>
        <time>2019-03-09T12:49:13Z</time>
      </trkpt>
      <trkpt lat="44.36446" lon="6.88752">
        <ele>2764.41</ele>
        <time>2019-03-09T12:49:33Z</time>
      </trkpt>
      <trkpt lat="44.36429" lon="6.88744">
        <ele>2761.52</ele>
        <time>2019-03-09T12:49:38Z</time>
      </trkpt>
      <trkpt lat="44.3641" lon="6.8874">
        <ele>2758.64</ele>
        <time>2019-03-09T12:49:47Z</time>
      </trkpt>
      <trkpt lat="44.36417" lon="6.88731">
        <ele>2758.16</ele>
        <time>2019-03-09T12:50:12Z</time>
      </trkpt>
      <trkpt lat="44.36394" lon="6.88735">
        <ele>2754.8</ele>
        <time>2019-03-09T12:50:23Z</time>
      </trkpt>
      <trkpt lat="44.36381" lon="6.88739">
        <ele>2752.87</ele>
        <time>2019-03-09T12:50:26Z</time>
      </trkpt>
      <trkpt lat="44.36366" lon="6.88746">
        <ele>2749.51</ele>
        <time>2019-03-09T12:50:30Z</time>
      </trkpt>
      <trkpt lat="44.36352" lon="6.88756">
        <ele>2746.14</ele>
        <time>2019-03-09T12:50:35Z</time>
      </trkpt>
      <trkpt lat="44.36347" lon="6.88759">
        <ele>2744.7</ele>
        <time>2019-03-09T12:50:38Z</time>
      </trkpt>
      <trkpt lat="44.36336" lon="6.88772">
        <ele>2741.82</ele>
        <time>2019-03-09T12:50:43Z</time>
      </trkpt>
      <trkpt lat="44.36325" lon="6.88795">
        <ele>2737.97</ele>
        <time>2019-03-09T12:50:51Z</time>
      </trkpt>
      <trkpt lat="44.36325" lon="6.88797">
        <ele>2737.01</ele>
        <time>2019-03-09T12:50:52Z</time>
      </trkpt>
      <trkpt lat="44.36326" lon="6.88799">
        <ele>2735.57</ele>
        <time>2019-03-09T12:50:53Z</time>
      </trkpt>
      <trkpt lat="44.36328" lon="6.888">
        <ele>2734.13</ele>
        <time>2019-03-09T12:50:54Z</time>
      </trkpt>
      <trkpt lat="44.3633" lon="6.88801">
        <ele>2733.17</ele>
        <time>2019-03-09T12:50:55Z</time>
      </trkpt>
      <trkpt lat="44.36331" lon="6.88805">
        <ele>2732.2</ele>
        <time>2019-03-09T12:50:56Z</time>
      </trkpt>
      <trkpt lat="44.3633" lon="6.8881">
        <ele>2731.24</ele>
        <time>2019-03-09T12:50:57Z</time>
      </trkpt>
      <trkpt lat="44.36328" lon="6.88814">
        <ele>2730.28</ele>
        <time>2019-03-09T12:50:58Z</time>
      </trkpt>
      <trkpt lat="44.36328" lon="6.88818">
        <ele>2727.88</ele>
        <time>2019-03-09T12:50:59Z</time>
      </trkpt>
      <trkpt lat="44.36329" lon="6.88821">
        <ele>2725.48</ele>
        <time>2019-03-09T12:51:00Z</time>
      </trkpt>
      <trkpt lat="44.36332" lon="6.88822">
        <ele>2724.03</ele>
        <time>2019-03-09T12:51:01Z</time>
      </trkpt>
      <trkpt lat="44.36333" lon="6.88825">
        <ele>2721.63</ele>
        <time>2019-03-09T12:51:02Z</time>
      </trkpt>
      <trkpt lat="44.36332" lon="6.88831">
        <ele>2720.67</ele>
        <time>2019-03-09T12:51:03Z</time>
      </trkpt>
      <trkpt lat="44.3633" lon="6.88837">
        <ele>2719.71</ele>
        <time>2019-03-09T12:51:04Z</time>
      </trkpt>
      <trkpt lat="44.36328" lon="6.88843">
        <ele>2718.27</ele>
        <time>2019-03-09T12:51:05Z</time>
      </trkpt>
      <trkpt lat="44.36326" lon="6.88848">
        <ele>2717.3</ele>
        <time>2019-03-09T12:51:06Z</time>
      </trkpt>
      <trkpt lat="44.36327" lon="6.88851">
        <ele>2714.42</ele>
        <time>2019-03-09T12:51:07Z</time>
      </trkpt>
      <trkpt lat="44.3633" lon="6.88852">
        <ele>2712.98</ele>
        <time>2019-03-09T12:51:08Z</time>
      </trkpt>
      <trkpt lat="44.36331" lon="6.88862">
        <ele>2709.61</ele>
        <time>2019-03-09T12:51:10Z</time>
      </trkpt>
      <trkpt lat="44.36329" lon="6.8887">
        <ele>2705.77</ele>
        <time>2019-03-09T12:51:12Z</time>
      </trkpt>
      <trkpt lat="44.36331" lon="6.88874">
        <ele>2703.36</ele>
        <time>2019-03-09T12:51:13Z</time>
      </trkpt>
      <trkpt lat="44.36333" lon="6.88879">
        <ele>2701.44</ele>
        <time>2019-03-09T12:51:14Z</time>
      </trkpt>
      <trkpt lat="44.36334" lon="6.88883">
        <ele>2700</ele>
        <time>2019-03-09T12:51:15Z</time>
      </trkpt>
      <trkpt lat="44.36336" lon="6.88886">
        <ele>2697.6</ele>
        <time>2019-03-09T12:51:16Z</time>
      </trkpt>
      <trkpt lat="44.36335" lon="6.88889">
        <ele>2695.67</ele>
        <time>2019-03-09T12:51:19Z</time>
      </trkpt>
      <trkpt lat="44.36334" lon="6.88889">
        <ele>2695.67</ele>
        <time>2019-03-09T12:51:24Z</time>
      </trkpt>
      <trkpt lat="44.36334" lon="6.88893">
        <ele>2694.71</ele>
        <time>2019-03-09T12:51:27Z</time>
      </trkpt>
      <trkpt lat="44.36338" lon="6.88893">
        <ele>2693.27</ele>
        <time>2019-03-09T12:51:30Z</time>
      </trkpt>
      <trkpt lat="44.36337" lon="6.88893">
        <ele>2693.75</ele>
        <time>2019-03-09T12:51:53Z</time>
      </trkpt>
      <trkpt lat="44.36338" lon="6.88892">
        <ele>2693.27</ele>
        <time>2019-03-09T12:52:13Z</time>
      </trkpt>
      <trkpt lat="44.36338" lon="6.88894">
        <ele>2693.75</ele>
        <time>2019-03-09T12:52:35Z</time>
      </trkpt>
      <trkpt lat="44.36347" lon="6.88894">
        <ele>2691.35</ele>
        <time>2019-03-09T12:52:54Z</time>
      </trkpt>
      <trkpt lat="44.36351" lon="6.88893">
        <ele>2690.39</ele>
        <time>2019-03-09T12:52:55Z</time>
      </trkpt>
      <trkpt lat="44.36355" lon="6.88893">
        <ele>2689.43</ele>
        <time>2019-03-09T12:52:56Z</time>
      </trkpt>
      <trkpt lat="44.36359" lon="6.889">
        <ele>2686.54</ele>
        <time>2019-03-09T12:52:58Z</time>
      </trkpt>
      <trkpt lat="44.36356" lon="6.88904">
        <ele>2684.62</ele>
        <time>2019-03-09T12:52:59Z</time>
      </trkpt>
      <trkpt lat="44.36353" lon="6.88905">
        <ele>2684.62</ele>
        <time>2019-03-09T12:53:00Z</time>
      </trkpt>
      <trkpt lat="44.36351" lon="6.88907">
        <ele>2684.14</ele>
        <time>2019-03-09T12:53:01Z</time>
      </trkpt>
      <trkpt lat="44.36351" lon="6.88911">
        <ele>2682.22</ele>
        <time>2019-03-09T12:53:02Z</time>
      </trkpt>
      <trkpt lat="44.36359" lon="6.88917">
        <ele>2679.33</ele>
        <time>2019-03-09T12:53:04Z</time>
      </trkpt>
      <trkpt lat="44.36383" lon="6.88928">
        <ele>2674.04</ele>
        <time>2019-03-09T12:53:08Z</time>
      </trkpt>
      <trkpt lat="44.36396" lon="6.88953">
        <ele>2669.72</ele>
        <time>2019-03-09T12:53:11Z</time>
      </trkpt>
      <trkpt lat="44.36399" lon="6.8896">
        <ele>2669.24</ele>
        <time>2019-03-09T12:53:12Z</time>
      </trkpt>
      <trkpt lat="44.36412" lon="6.88977">
        <ele>2667.8</ele>
        <time>2019-03-09T12:53:16Z</time>
      </trkpt>
      <trkpt lat="44.36418" lon="6.88982">
        <ele>2668.76</ele>
        <time>2019-03-09T12:53:19Z</time>
      </trkpt>
      <trkpt lat="44.36418" lon="6.88989">
        <ele>2663.47</ele>
        <time>2019-03-09T12:53:21Z</time>
      </trkpt>
      <trkpt lat="44.36423" lon="6.88998">
        <ele>2662.99</ele>
        <time>2019-03-09T12:53:23Z</time>
      </trkpt>
      <trkpt lat="44.36429" lon="6.89009">
        <ele>2661.07</ele>
        <time>2019-03-09T12:53:25Z</time>
      </trkpt>
      <trkpt lat="44.36437" lon="6.89025">
        <ele>2659.14</ele>
        <time>2019-03-09T12:53:28Z</time>
      </trkpt>
      <trkpt lat="44.3643" lon="6.89039">
        <ele>2653.86</ele>
        <time>2019-03-09T12:53:32Z</time>
      </trkpt>
      <trkpt lat="44.36431" lon="6.89051">
        <ele>2650.97</ele>
        <time>2019-03-09T12:53:34Z</time>
      </trkpt>
      <trkpt lat="44.36439" lon="6.89081">
        <ele>2647.13</ele>
        <time>2019-03-09T12:53:39Z</time>
      </trkpt>
      <trkpt lat="44.36448" lon="6.89116">
        <ele>2644.24</ele>
        <time>2019-03-09T12:53:45Z</time>
      </trkpt>
      <trkpt lat="44.36451" lon="6.89129">
        <ele>2643.76</ele>
        <time>2019-03-09T12:53:47Z</time>
      </trkpt>
      <trkpt lat="44.36459" lon="6.89156">
        <ele>2640.4</ele>
        <time>2019-03-09T12:53:51Z</time>
      </trkpt>
      <trkpt lat="44.36467" lon="6.89185">
        <ele>2637.99</ele>
        <time>2019-03-09T12:53:55Z</time>
      </trkpt>
      <trkpt lat="44.36469" lon="6.89193">
        <ele>2637.03</ele>
        <time>2019-03-09T12:53:57Z</time>
      </trkpt>
      <trkpt lat="44.36466" lon="6.89193">
        <ele>2634.15</ele>
        <time>2019-03-09T12:54:01Z</time>
      </trkpt>
      <trkpt lat="44.36466" lon="6.89191">
        <ele>2634.63</ele>
        <time>2019-03-09T12:54:03Z</time>
      </trkpt>
      <trkpt lat="44.36466" lon="6.89189">
        <ele>2634.63</ele>
        <time>2019-03-09T12:54:20Z</time>
      </trkpt>
      <trkpt lat="44.36465" lon="6.89188">
        <ele>2634.15</ele>
        <time>2019-03-09T12:54:48Z</time>
      </trkpt>
      <trkpt lat="44.36464" lon="6.89189">
        <ele>2634.15</ele>
        <time>2019-03-09T12:55:11Z</time>
      </trkpt>
      <trkpt lat="44.36463" lon="6.89189">
        <ele>2634.15</ele>
        <time>2019-03-09T12:55:25Z</time>
      </trkpt>
      <trkpt lat="44.36461" lon="6.89211">
        <ele>2630.3</ele>
        <time>2019-03-09T12:55:30Z</time>
      </trkpt>
      <trkpt lat="44.3647" lon="6.89253">
        <ele>2626.46</ele>
        <time>2019-03-09T12:55:37Z</time>
      </trkpt>
      <trkpt lat="44.36474" lon="6.89269">
        <ele>2624.54</ele>
        <time>2019-03-09T12:55:40Z</time>
      </trkpt>
      <trkpt lat="44.36465" lon="6.8928">
        <ele>2619.73</ele>
        <time>2019-03-09T12:55:44Z</time>
      </trkpt>
      <trkpt lat="44.36461" lon="6.89285">
        <ele>2619.73</ele>
        <time>2019-03-09T12:55:45Z</time>
      </trkpt>
      <trkpt lat="44.36449" lon="6.89291">
        <ele>2615.4</ele>
        <time>2019-03-09T12:55:47Z</time>
      </trkpt>
      <trkpt lat="44.36444" lon="6.89297">
        <ele>2615.88</ele>
        <time>2019-03-09T12:55:48Z</time>
      </trkpt>
      <trkpt lat="44.36434" lon="6.89311">
        <ele>2613.96</ele>
        <time>2019-03-09T12:55:50Z</time>
      </trkpt>
      <trkpt lat="44.36425" lon="6.8932">
        <ele>2612.04</ele>
        <time>2019-03-09T12:55:52Z</time>
      </trkpt>
      <trkpt lat="44.36407" lon="6.89329">
        <ele>2610.12</ele>
        <time>2019-03-09T12:55:58Z</time>
      </trkpt>
      <trkpt lat="44.36409" lon="6.89342">
        <ele>2608.67</ele>
        <time>2019-03-09T12:56:01Z</time>
      </trkpt>
      <trkpt lat="44.36427" lon="6.89355">
        <ele>2606.27</ele>
        <time>2019-03-09T12:56:08Z</time>
      </trkpt>
      <trkpt lat="44.36427" lon="6.89356">
        <ele>2605.79</ele>
        <time>2019-03-09T12:56:23Z</time>
      </trkpt>
      <trkpt lat="44.36428" lon="6.89354">
        <ele>2606.27</ele>
        <time>2019-03-09T12:56:42Z</time>
      </trkpt>
      <trkpt lat="44.36428" lon="6.89355">
        <ele>2605.31</ele>
        <time>2019-03-09T12:57:07Z</time>
      </trkpt>
      <trkpt lat="44.36428" lon="6.89355">
        <ele>2605.31</ele>
        <time>2019-03-09T12:57:10Z</time>
      </trkpt>
      <trkpt lat="44.36419" lon="6.89364">
        <ele>2600.02</ele>
        <time>2019-03-09T12:57:14Z</time>
      </trkpt>
      <trkpt lat="44.36401" lon="6.89363">
        <ele>2599.54</ele>
        <time>2019-03-09T12:57:19Z</time>
      </trkpt>
      <trkpt lat="44.36389" lon="6.8937">
        <ele>2599.06</ele>
        <time>2019-03-09T12:57:30Z</time>
      </trkpt>
      <trkpt lat="44.36389" lon="6.8937">
        <ele>2599.06</ele>
        <time>2019-03-09T12:57:33Z</time>
      </trkpt>
      <trkpt lat="44.36397" lon="6.89385">
        <ele>2593.77</ele>
        <time>2019-03-09T12:57:38Z</time>
      </trkpt>
      <trkpt lat="44.3639" lon="6.89394">
        <ele>2588.97</ele>
        <time>2019-03-09T12:57:40Z</time>
      </trkpt>
      <trkpt lat="44.36397" lon="6.89403">
        <ele>2585.12</ele>
        <time>2019-03-09T12:57:43Z</time>
      </trkpt>
      <trkpt lat="44.36409" lon="6.89406">
        <ele>2581.76</ele>
        <time>2019-03-09T12:57:45Z</time>
      </trkpt>
      <trkpt lat="44.36421" lon="6.89421">
        <ele>2578.39</ele>
        <time>2019-03-09T12:57:48Z</time>
      </trkpt>
      <trkpt lat="44.36422" lon="6.89429">
        <ele>2577.43</ele>
        <time>2019-03-09T12:57:49Z</time>
      </trkpt>
      <trkpt lat="44.36427" lon="6.8947">
        <ele>2574.07</ele>
        <time>2019-03-09T12:57:54Z</time>
      </trkpt>
      <trkpt lat="44.3643" lon="6.89492">
        <ele>2572.14</ele>
        <time>2019-03-09T12:57:57Z</time>
      </trkpt>
      <trkpt lat="44.36432" lon="6.8952">
        <ele>2569.74</ele>
        <time>2019-03-09T12:58:01Z</time>
      </trkpt>
      <trkpt lat="44.36433" lon="6.89555">
        <ele>2567.82</ele>
        <time>2019-03-09T12:58:07Z</time>
      </trkpt>
      <trkpt lat="44.36424" lon="6.89563">
        <ele>2562.53</ele>
        <time>2019-03-09T12:58:11Z</time>
      </trkpt>
      <trkpt lat="44.36422" lon="6.89577">
        <ele>2561.09</ele>
        <time>2019-03-09T12:58:14Z</time>
      </trkpt>
      <trkpt lat="44.36422" lon="6.89581">
        <ele>2560.61</ele>
        <time>2019-03-09T12:58:15Z</time>
      </trkpt>
      <trkpt lat="44.36427" lon="6.89613">
        <ele>2556.76</ele>
        <time>2019-03-09T12:58:24Z</time>
      </trkpt>
      <trkpt lat="44.36428" lon="6.89612">
        <ele>2557.24</ele>
        <time>2019-03-09T12:58:32Z</time>
      </trkpt>
      <trkpt lat="44.36426" lon="6.89614">
        <ele>2554.84</ele>
        <time>2019-03-09T12:58:37Z</time>
      </trkpt>
      <trkpt lat="44.36424" lon="6.89612">
        <ele>2554.84</ele>
        <time>2019-03-09T12:58:59Z</time>
      </trkpt>
      <trkpt lat="44.36424" lon="6.89613">
        <ele>2554.36</ele>
        <time>2019-03-09T12:59:18Z</time>
      </trkpt>
      <trkpt lat="44.36424" lon="6.89612">
        <ele>2553.88</ele>
        <time>2019-03-09T12:59:38Z</time>
      </trkpt>
      <trkpt lat="44.36423" lon="6.89614">
        <ele>2554.84</ele>
        <time>2019-03-09T13:00:00Z</time>
      </trkpt>
      <trkpt lat="44.36423" lon="6.89613">
        <ele>2554.36</ele>
        <time>2019-03-09T13:00:25Z</time>
      </trkpt>
      <trkpt lat="44.36423" lon="6.89614">
        <ele>2554.36</ele>
        <time>2019-03-09T13:00:29Z</time>
      </trkpt>
      <trkpt lat="44.36424" lon="6.89626">
        <ele>2550.03</ele>
        <time>2019-03-09T13:00:33Z</time>
      </trkpt>
      <trkpt lat="44.36426" lon="6.89631">
        <ele>2550.03</ele>
        <time>2019-03-09T13:00:34Z</time>
      </trkpt>
      <trkpt lat="44.36429" lon="6.89637">
        <ele>2549.07</ele>
        <time>2019-03-09T13:00:35Z</time>
      </trkpt>
      <trkpt lat="44.36445" lon="6.89659">
        <ele>2544.75</ele>
        <time>2019-03-09T13:00:39Z</time>
      </trkpt>
      <trkpt lat="44.36453" lon="6.89672">
        <ele>2541.86</ele>
        <time>2019-03-09T13:00:41Z</time>
      </trkpt>
      <trkpt lat="44.36476" lon="6.89724">
        <ele>2538.5</ele>
        <time>2019-03-09T13:00:51Z</time>
      </trkpt>
      <trkpt lat="44.3648" lon="6.89737">
        <ele>2537.06</ele>
        <time>2019-03-09T13:00:53Z</time>
      </trkpt>
      <trkpt lat="44.36476" lon="6.89767">
        <ele>2534.65</ele>
        <time>2019-03-09T13:00:57Z</time>
      </trkpt>
      <trkpt lat="44.36472" lon="6.89773">
        <ele>2533.21</ele>
        <time>2019-03-09T13:00:58Z</time>
      </trkpt>
      <trkpt lat="44.36463" lon="6.89785">
        <ele>2534.17</ele>
        <time>2019-03-09T13:01:02Z</time>
      </trkpt>
      <trkpt lat="44.3645" lon="6.89792">
        <ele>2530.81</ele>
        <time>2019-03-09T13:01:05Z</time>
      </trkpt>
      <trkpt lat="44.36444" lon="6.89793">
        <ele>2531.29</ele>
        <time>2019-03-09T13:01:06Z</time>
      </trkpt>
      <trkpt lat="44.36439" lon="6.89795">
        <ele>2527.92</ele>
        <time>2019-03-09T13:01:07Z</time>
      </trkpt>
      <trkpt lat="44.36434" lon="6.89798">
        <ele>2527.92</ele>
        <time>2019-03-09T13:01:08Z</time>
      </trkpt>
      <trkpt lat="44.36425" lon="6.89801">
        <ele>2524.08</ele>
        <time>2019-03-09T13:01:10Z</time>
      </trkpt>
      <trkpt lat="44.36424" lon="6.89805">
        <ele>2524.08</ele>
        <time>2019-03-09T13:01:11Z</time>
      </trkpt>
      <trkpt lat="44.36419" lon="6.89805">
        <ele>2523.6</ele>
        <time>2019-03-09T13:01:17Z</time>
      </trkpt>
      <trkpt lat="44.36419" lon="6.89806">
        <ele>2522.64</ele>
        <time>2019-03-09T13:01:19Z</time>
      </trkpt>
      <trkpt lat="44.36419" lon="6.89806">
        <ele>2523.12</ele>
        <time>2019-03-09T13:01:39Z</time>
      </trkpt>
      <trkpt lat="44.36419" lon="6.89806">
        <ele>2523.12</ele>
        <time>2019-03-09T13:02:02Z</time>
      </trkpt>
      <trkpt lat="44.36419" lon="6.89807">
        <ele>2522.64</ele>
        <time>2019-03-09T13:02:09Z</time>
      </trkpt>
      <trkpt lat="44.36419" lon="6.89807">
        <ele>2523.6</ele>
        <time>2019-03-09T13:02:25Z</time>
      </trkpt>
      <trkpt lat="44.36419" lon="6.89806">
        <ele>2523.12</ele>
        <time>2019-03-09T13:02:46Z</time>
      </trkpt>
      <trkpt lat="44.36419" lon="6.89807">
        <ele>2523.6</ele>
        <time>2019-03-09T13:03:07Z</time>
      </trkpt>
      <trkpt lat="44.36422" lon="6.89816">
        <ele>2522.64</ele>
        <time>2019-03-09T13:03:11Z</time>
      </trkpt>
      <trkpt lat="44.3645" lon="6.89837">
        <ele>2518.31</ele>
        <time>2019-03-09T13:03:19Z</time>
      </trkpt>
      <trkpt lat="44.36456" lon="6.89841">
        <ele>2517.35</ele>
        <time>2019-03-09T13:03:20Z</time>
      </trkpt>
      <trkpt lat="44.36469" lon="6.89856">
        <ele>2514.47</ele>
        <time>2019-03-09T13:03:23Z</time>
      </trkpt>
      <trkpt lat="44.36473" lon="6.8986">
        <ele>2514.47</ele>
        <time>2019-03-09T13:03:24Z</time>
      </trkpt>
      <trkpt lat="44.36493" lon="6.89891">
        <ele>2510.62</ele>
        <time>2019-03-09T13:03:30Z</time>
      </trkpt>
      <trkpt lat="44.36496" lon="6.89896">
        <ele>2510.14</ele>
        <time>2019-03-09T13:03:31Z</time>
      </trkpt>
      <trkpt lat="44.36504" lon="6.89907">
        <ele>2506.29</ele>
        <time>2019-03-09T13:03:34Z</time>
      </trkpt>
      <trkpt lat="44.36504" lon="6.89909">
        <ele>2504.37</ele>
        <time>2019-03-09T13:03:35Z</time>
      </trkpt>
      <trkpt lat="44.36498" lon="6.89924">
        <ele>2497.64</ele>
        <time>2019-03-09T13:03:38Z</time>
      </trkpt>
      <trkpt lat="44.36491" lon="6.89936">
        <ele>2493.32</ele>
        <time>2019-03-09T13:03:40Z</time>
      </trkpt>
      <trkpt lat="44.3648" lon="6.89949">
        <ele>2488.99</ele>
        <time>2019-03-09T13:03:42Z</time>
      </trkpt>
      <trkpt lat="44.36476" lon="6.89956">
        <ele>2485.63</ele>
        <time>2019-03-09T13:03:43Z</time>
      </trkpt>
      <trkpt lat="44.3648" lon="6.8997">
        <ele>2482.74</ele>
        <time>2019-03-09T13:03:45Z</time>
      </trkpt>
      <trkpt lat="44.36485" lon="6.89977">
        <ele>2480.82</ele>
        <time>2019-03-09T13:03:46Z</time>
      </trkpt>
      <trkpt lat="44.36515" lon="6.90021">
        <ele>2476.49</ele>
        <time>2019-03-09T13:03:53Z</time>
      </trkpt>
      <trkpt lat="44.36535" lon="6.90052">
        <ele>2473.61</ele>
        <time>2019-03-09T13:03:58Z</time>
      </trkpt>
      <trkpt lat="44.36547" lon="6.90069">
        <ele>2472.17</ele>
        <time>2019-03-09T13:04:01Z</time>
      </trkpt>
      <trkpt lat="44.36552" lon="6.90086">
        <ele>2467.36</ele>
        <time>2019-03-09T13:04:04Z</time>
      </trkpt>
      <trkpt lat="44.36549" lon="6.90092">
        <ele>2464.48</ele>
        <time>2019-03-09T13:04:05Z</time>
      </trkpt>
      <trkpt lat="44.36542" lon="6.90105">
        <ele>2460.15</ele>
        <time>2019-03-09T13:04:07Z</time>
      </trkpt>
      <trkpt lat="44.36535" lon="6.90121">
        <ele>2456.79</ele>
        <time>2019-03-09T13:04:09Z</time>
      </trkpt>
      <trkpt lat="44.36527" lon="6.90136">
        <ele>2450.54</ele>
        <time>2019-03-09T13:04:11Z</time>
      </trkpt>
      <trkpt lat="44.36521" lon="6.90148">
        <ele>2445.73</ele>
        <time>2019-03-09T13:04:13Z</time>
      </trkpt>
      <trkpt lat="44.36519" lon="6.90153">
        <ele>2446.21</ele>
        <time>2019-03-09T13:04:14Z</time>
      </trkpt>
      <trkpt lat="44.36515" lon="6.90173">
        <ele>2444.29</ele>
        <time>2019-03-09T13:04:19Z</time>
      </trkpt>
      <trkpt lat="44.36515" lon="6.90172">
        <ele>2443.33</ele>
        <time>2019-03-09T13:04:21Z</time>
      </trkpt>
      <trkpt lat="44.36515" lon="6.90171">
        <ele>2445.25</ele>
        <time>2019-03-09T13:04:32Z</time>
      </trkpt>
      <trkpt lat="44.36515" lon="6.9017">
        <ele>2443.81</ele>
        <time>2019-03-09T13:04:54Z</time>
      </trkpt>
      <trkpt lat="44.36515" lon="6.90171">
        <ele>2443.81</ele>
        <time>2019-03-09T13:05:16Z</time>
      </trkpt>
      <trkpt lat="44.36514" lon="6.9017">
        <ele>2443.33</ele>
        <time>2019-03-09T13:05:42Z</time>
      </trkpt>
      <trkpt lat="44.36514" lon="6.9017">
        <ele>2443.33</ele>
        <time>2019-03-09T13:06:04Z</time>
      </trkpt>
      <trkpt lat="44.36515" lon="6.9017">
        <ele>2443.81</ele>
        <time>2019-03-09T13:06:25Z</time>
      </trkpt>
      <trkpt lat="44.36509" lon="6.90182">
        <ele>2440.92</ele>
        <time>2019-03-09T13:06:42Z</time>
      </trkpt>
      <trkpt lat="44.36512" lon="6.90192">
        <ele>2440.92</ele>
        <time>2019-03-09T13:06:48Z</time>
      </trkpt>
      <trkpt lat="44.36514" lon="6.90189">
        <ele>2440.92</ele>
        <time>2019-03-09T13:07:05Z</time>
      </trkpt>
      <trkpt lat="44.36513" lon="6.90191">
        <ele>2440.44</ele>
        <time>2019-03-09T13:07:25Z</time>
      </trkpt>
      <trkpt lat="44.36513" lon="6.90191">
        <ele>2440.44</ele>
        <time>2019-03-09T13:07:45Z</time>
      </trkpt>
      <trkpt lat="44.36514" lon="6.90191">
        <ele>2440.44</ele>
        <time>2019-03-09T13:07:49Z</time>
      </trkpt>
      <trkpt lat="44.36517" lon="6.90216">
        <ele>2436.6</ele>
        <time>2019-03-09T13:07:55Z</time>
      </trkpt>
      <trkpt lat="44.36524" lon="6.90224">
        <ele>2434.68</ele>
        <time>2019-03-09T13:07:57Z</time>
      </trkpt>
      <trkpt lat="44.36535" lon="6.90241">
        <ele>2428.91</ele>
        <time>2019-03-09T13:08:01Z</time>
      </trkpt>
      <trkpt lat="44.36546" lon="6.90254">
        <ele>2425.06</ele>
        <time>2019-03-09T13:08:05Z</time>
      </trkpt>
      <trkpt lat="44.36554" lon="6.90263">
        <ele>2421.22</ele>
        <time>2019-03-09T13:08:08Z</time>
      </trkpt>
      <trkpt lat="44.36573" lon="6.90274">
        <ele>2417.37</ele>
        <time>2019-03-09T13:08:13Z</time>
      </trkpt>
      <trkpt lat="44.36569" lon="6.90287">
        <ele>2413.53</ele>
        <time>2019-03-09T13:08:15Z</time>
      </trkpt>
      <trkpt lat="44.36584" lon="6.90294">
        <ele>2410.64</ele>
        <time>2019-03-09T13:08:19Z</time>
      </trkpt>
      <trkpt lat="44.36583" lon="6.90304">
        <ele>2407.28</ele>
        <time>2019-03-09T13:08:22Z</time>
      </trkpt>
      <trkpt lat="44.36585" lon="6.90299">
        <ele>2407.28</ele>
        <time>2019-03-09T13:08:34Z</time>
      </trkpt>
      <trkpt lat="44.36585" lon="6.90301">
        <ele>2407.28</ele>
        <time>2019-03-09T13:08:49Z</time>
      </trkpt>
      <trkpt lat="44.36585" lon="6.90302">
        <ele>2407.28</ele>
        <time>2019-03-09T13:08:50Z</time>
      </trkpt>
      <trkpt lat="44.36594" lon="6.90308">
        <ele>2405.36</ele>
        <time>2019-03-09T13:08:54Z</time>
      </trkpt>
      <trkpt lat="44.36607" lon="6.90319">
        <ele>2401.03</ele>
        <time>2019-03-09T13:08:58Z</time>
      </trkpt>
      <trkpt lat="44.36618" lon="6.90327">
        <ele>2397.67</ele>
        <time>2019-03-09T13:09:01Z</time>
      </trkpt>
      <trkpt lat="44.36623" lon="6.90338">
        <ele>2393.82</ele>
        <time>2019-03-09T13:09:03Z</time>
      </trkpt>
      <trkpt lat="44.36637" lon="6.90355">
        <ele>2389.01</ele>
        <time>2019-03-09T13:09:07Z</time>
      </trkpt>
      <trkpt lat="44.36659" lon="6.90369">
        <ele>2385.17</ele>
        <time>2019-03-09T13:09:12Z</time>
      </trkpt>
      <trkpt lat="44.36662" lon="6.90382">
        <ele>2381.32</ele>
        <time>2019-03-09T13:09:14Z</time>
      </trkpt>
      <trkpt lat="44.3667" lon="6.90395">
        <ele>2379.4</ele>
        <time>2019-03-09T13:09:16Z</time>
      </trkpt>
      <trkpt lat="44.36688" lon="6.90416">
        <ele>2373.63</ele>
        <time>2019-03-09T13:09:19Z</time>
      </trkpt>
      <trkpt lat="44.36708" lon="6.90439">
        <ele>2369.31</ele>
        <time>2019-03-09T13:09:22Z</time>
      </trkpt>
      <trkpt lat="44.36714" lon="6.90446">
        <ele>2368.35</ele>
        <time>2019-03-09T13:09:23Z</time>
      </trkpt>
      <trkpt lat="44.36757" lon="6.90482">
        <ele>2365.46</ele>
        <time>2019-03-09T13:09:30Z</time>
      </trkpt>
      <trkpt lat="44.36776" lon="6.90502">
        <ele>2363.06</ele>
        <time>2019-03-09T13:09:34Z</time>
      </trkpt>
      <trkpt lat="44.36789" lon="6.90514">
        <ele>2362.1</ele>
        <time>2019-03-09T13:09:37Z</time>
      </trkpt>
      <trkpt lat="44.36804" lon="6.90537">
        <ele>2360.65</ele>
        <time>2019-03-09T13:09:41Z</time>
      </trkpt>
      <trkpt lat="44.36829" lon="6.90582">
        <ele>2358.25</ele>
        <time>2019-03-09T13:09:49Z</time>
      </trkpt>
      <trkpt lat="44.36846" lon="6.90621">
        <ele>2356.81</ele>
        <time>2019-03-09T13:10:00Z</time>
      </trkpt>
      <trkpt lat="44.36851" lon="6.9063">
        <ele>2356.81</ele>
        <time>2019-03-09T13:10:12Z</time>
      </trkpt>
      <trkpt lat="44.36855" lon="6.9064">
        <ele>2357.77</ele>
        <time>2019-03-09T13:10:25Z</time>
      </trkpt>
      <trkpt lat="44.3686" lon="6.90647">
        <ele>2358.25</ele>
        <time>2019-03-09T13:10:37Z</time>
      </trkpt>
      <trkpt lat="44.36862" lon="6.90656">
        <ele>2358.73</ele>
        <time>2019-03-09T13:10:49Z</time>
      </trkpt>
      <trkpt lat="44.36865" lon="6.90665">
        <ele>2359.21</ele>
        <time>2019-03-09T13:11:01Z</time>
      </trkpt>
      <trkpt lat="44.36868" lon="6.9067">
        <ele>2359.21</ele>
        <time>2019-03-09T13:11:07Z</time>
      </trkpt>
      <trkpt lat="44.36873" lon="6.90681">
        <ele>2359.21</ele>
        <time>2019-03-09T13:11:19Z</time>
      </trkpt>
      <trkpt lat="44.36874" lon="6.90687">
        <ele>2359.21</ele>
        <time>2019-03-09T13:11:26Z</time>
      </trkpt>
      <trkpt lat="44.36879" lon="6.90705">
        <ele>2359.21</ele>
        <time>2019-03-09T13:11:41Z</time>
      </trkpt>
      <trkpt lat="44.36883" lon="6.90718">
        <ele>2358.73</ele>
        <time>2019-03-09T13:11:54Z</time>
      </trkpt>
      <trkpt lat="44.36888" lon="6.90732">
        <ele>2358.73</ele>
        <time>2019-03-09T13:12:08Z</time>
      </trkpt>
      <trkpt lat="44.36891" lon="6.90736">
        <ele>2358.73</ele>
        <time>2019-03-09T13:12:23Z</time>
      </trkpt>
      <trkpt lat="44.36888" lon="6.90735">
        <ele>2357.77</ele>
        <time>2019-03-09T13:12:38Z</time>
      </trkpt>
      <trkpt lat="44.36888" lon="6.90737">
        <ele>2357.77</ele>
        <time>2019-03-09T13:13:18Z</time>
      </trkpt>
      <trkpt lat="44.36885" lon="6.90737">
        <ele>2358.25</ele>
        <time>2019-03-09T13:13:58Z</time>
      </trkpt>
      <trkpt lat="44.36884" lon="6.90739">
        <ele>2358.73</ele>
        <time>2019-03-09T13:14:28Z</time>
      </trkpt>
      <trkpt lat="44.3689" lon="6.90737">
        <ele>2358.73</ele>
        <time>2019-03-09T13:14:47Z</time>
      </trkpt>
      <trkpt lat="44.3689" lon="6.90734">
        <ele>2359.69</ele>
        <time>2019-03-09T13:15:04Z</time>
      </trkpt>
      <trkpt lat="44.36893" lon="6.90733">
        <ele>2359.21</ele>
        <time>2019-03-09T13:15:24Z</time>
      </trkpt>
      <trkpt lat="44.36893" lon="6.90733">
        <ele>2359.21</ele>
        <time>2019-03-09T13:15:44Z</time>
      </trkpt>
      <trkpt lat="44.36894" lon="6.90731">
        <ele>2359.69</ele>
        <time>2019-03-09T13:15:52Z</time>
      </trkpt>
      <trkpt lat="44.36896" lon="6.90735">
        <ele>2359.21</ele>
        <time>2019-03-09T13:16:07Z</time>
      </trkpt>
      <trkpt lat="44.36895" lon="6.90739">
        <ele>2360.17</ele>
        <time>2019-03-09T13:16:23Z</time>
      </trkpt>
      <trkpt lat="44.36896" lon="6.90743">
        <ele>2360.17</ele>
        <time>2019-03-09T13:16:42Z</time>
      </trkpt>
      <trkpt lat="44.36893" lon="6.90746">
        <ele>2362.1</ele>
        <time>2019-03-09T13:17:03Z</time>
      </trkpt>
      <trkpt lat="44.36893" lon="6.90744">
        <ele>2359.69</ele>
        <time>2019-03-09T13:17:23Z</time>
      </trkpt>
      <trkpt lat="44.36894" lon="6.90746">
        <ele>2360.17</ele>
        <time>2019-03-09T13:17:43Z</time>
      </trkpt>
      <trkpt lat="44.369" lon="6.90749">
        <ele>2361.62</ele>
        <time>2019-03-09T13:18:00Z</time>
      </trkpt>
      <trkpt lat="44.36903" lon="6.90751">
        <ele>2359.21</ele>
        <time>2019-03-09T13:18:03Z</time>
      </trkpt>
      <trkpt lat="44.36916" lon="6.90759">
        <ele>2356.33</ele>
        <time>2019-03-09T13:18:09Z</time>
      </trkpt>
      <trkpt lat="44.36932" lon="6.90768">
        <ele>2355.85</ele>
        <time>2019-03-09T13:18:14Z</time>
      </trkpt>
      <trkpt lat="44.36935" lon="6.90767">
        <ele>2356.33</ele>
        <time>2019-03-09T13:18:28Z</time>
      </trkpt>
      <trkpt lat="44.36935" lon="6.90766">
        <ele>2355.37</ele>
        <time>2019-03-09T13:18:47Z</time>
      </trkpt>
      <trkpt lat="44.36942" lon="6.90783">
        <ele>2352.48</ele>
        <time>2019-03-09T13:18:52Z</time>
      </trkpt>
      <trkpt lat="44.36958" lon="6.90807">
        <ele>2346.72</ele>
        <time>2019-03-09T13:18:57Z</time>
      </trkpt>
      <trkpt lat="44.3696" lon="6.90813">
        <ele>2343.35</ele>
        <time>2019-03-09T13:18:58Z</time>
      </trkpt>
      <trkpt lat="44.3698" lon="6.90829">
        <ele>2340.95</ele>
        <time>2019-03-09T13:19:03Z</time>
      </trkpt>
      <trkpt lat="44.36985" lon="6.90827">
        <ele>2337.58</ele>
        <time>2019-03-09T13:19:04Z</time>
      </trkpt>
      <trkpt lat="44.36999" lon="6.90824">
        <ele>2333.74</ele>
        <time>2019-03-09T13:19:07Z</time>
      </trkpt>
      <trkpt lat="44.37015" lon="6.90822">
        <ele>2332.78</ele>
        <time>2019-03-09T13:19:12Z</time>
      </trkpt>
      <trkpt lat="44.37018" lon="6.9082">
        <ele>2331.81</ele>
        <time>2019-03-09T13:19:13Z</time>
      </trkpt>
      <trkpt lat="44.37025" lon="6.90826">
        <ele>2328.93</ele>
        <time>2019-03-09T13:19:16Z</time>
      </trkpt>
      <trkpt lat="44.37032" lon="6.90832">
        <ele>2325.57</ele>
        <time>2019-03-09T13:19:18Z</time>
      </trkpt>
      <trkpt lat="44.37046" lon="6.9083">
        <ele>2322.2</ele>
        <time>2019-03-09T13:19:22Z</time>
      </trkpt>
      <trkpt lat="44.37052" lon="6.90837">
        <ele>2319.32</ele>
        <time>2019-03-09T13:19:24Z</time>
      </trkpt>
      <trkpt lat="44.37057" lon="6.90852">
        <ele>2314.51</ele>
        <time>2019-03-09T13:19:27Z</time>
      </trkpt>
      <trkpt lat="44.37059" lon="6.90856">
        <ele>2314.51</ele>
        <time>2019-03-09T13:19:28Z</time>
      </trkpt>
      <trkpt lat="44.37064" lon="6.90865">
        <ele>2311.15</ele>
        <time>2019-03-09T13:19:30Z</time>
      </trkpt>
      <trkpt lat="44.37069" lon="6.90875">
        <ele>2307.78</ele>
        <time>2019-03-09T13:19:32Z</time>
      </trkpt>
      <trkpt lat="44.37073" lon="6.90888">
        <ele>2303.46</ele>
        <time>2019-03-09T13:19:34Z</time>
      </trkpt>
      <trkpt lat="44.37076" lon="6.90893">
        <ele>2302.98</ele>
        <time>2019-03-09T13:19:35Z</time>
      </trkpt>
      <trkpt lat="44.37079" lon="6.90903">
        <ele>2299.61</ele>
        <time>2019-03-09T13:19:37Z</time>
      </trkpt>
      <trkpt lat="44.37081" lon="6.90912">
        <ele>2299.13</ele>
        <time>2019-03-09T13:19:39Z</time>
      </trkpt>
      <trkpt lat="44.37079" lon="6.90916">
        <ele>2297.69</ele>
        <time>2019-03-09T13:19:42Z</time>
      </trkpt>
      <trkpt lat="44.37079" lon="6.90916">
        <ele>2297.69</ele>
        <time>2019-03-09T13:20:03Z</time>
      </trkpt>
      <trkpt lat="44.37079" lon="6.90917">
        <ele>2297.69</ele>
        <time>2019-03-09T13:20:37Z</time>
      </trkpt>
      <trkpt lat="44.37078" lon="6.90918">
        <ele>2297.69</ele>
        <time>2019-03-09T13:21:06Z</time>
      </trkpt>
      <trkpt lat="44.37079" lon="6.90922">
        <ele>2296.73</ele>
        <time>2019-03-09T13:21:34Z</time>
      </trkpt>
      <trkpt lat="44.37079" lon="6.90923">
        <ele>2296.73</ele>
        <time>2019-03-09T13:21:44Z</time>
      </trkpt>
      <trkpt lat="44.37082" lon="6.90931">
        <ele>2296.73</ele>
        <time>2019-03-09T13:21:47Z</time>
      </trkpt>
      <trkpt lat="44.37106" lon="6.90933">
        <ele>2290.96</ele>
        <time>2019-03-09T13:21:52Z</time>
      </trkpt>
      <trkpt lat="44.37111" lon="6.90937">
        <ele>2288.56</ele>
        <time>2019-03-09T13:21:53Z</time>
      </trkpt>
      <trkpt lat="44.37132" lon="6.90951">
        <ele>2280.38</ele>
        <time>2019-03-09T13:21:57Z</time>
      </trkpt>
      <trkpt lat="44.37146" lon="6.90957">
        <ele>2277.02</ele>
        <time>2019-03-09T13:21:59Z</time>
      </trkpt>
      <trkpt lat="44.37155" lon="6.90954">
        <ele>2277.98</ele>
        <time>2019-03-09T13:22:01Z</time>
      </trkpt>
      <trkpt lat="44.37171" lon="6.90939">
        <ele>2275.58</ele>
        <time>2019-03-09T13:22:05Z</time>
      </trkpt>
      <trkpt lat="44.37181" lon="6.90929">
        <ele>2273.17</ele>
        <time>2019-03-09T13:22:07Z</time>
      </trkpt>
      <trkpt lat="44.37195" lon="6.90914">
        <ele>2269.81</ele>
        <time>2019-03-09T13:22:10Z</time>
      </trkpt>
      <trkpt lat="44.37213" lon="6.90908">
        <ele>2268.37</ele>
        <time>2019-03-09T13:22:13Z</time>
      </trkpt>
      <trkpt lat="44.37236" lon="6.90898">
        <ele>2264.52</ele>
        <time>2019-03-09T13:22:17Z</time>
      </trkpt>
      <trkpt lat="44.37241" lon="6.90895">
        <ele>2264.04</ele>
        <time>2019-03-09T13:22:18Z</time>
      </trkpt>
      <trkpt lat="44.37257" lon="6.90886">
        <ele>2261.16</ele>
        <time>2019-03-09T13:22:21Z</time>
      </trkpt>
      <trkpt lat="44.37265" lon="6.9088">
        <ele>2259.72</ele>
        <time>2019-03-09T13:22:23Z</time>
      </trkpt>
      <trkpt lat="44.37271" lon="6.90877">
        <ele>2256.83</ele>
        <time>2019-03-09T13:22:25Z</time>
      </trkpt>
      <trkpt lat="44.37266" lon="6.90877">
        <ele>2257.79</ele>
        <time>2019-03-09T13:22:40Z</time>
      </trkpt>
      <trkpt lat="44.37269" lon="6.90869">
        <ele>2256.83</ele>
        <time>2019-03-09T13:22:53Z</time>
      </trkpt>
      <trkpt lat="44.37271" lon="6.90874">
        <ele>2256.35</ele>
        <time>2019-03-09T13:23:04Z</time>
      </trkpt>
      <trkpt lat="44.37271" lon="6.90873">
        <ele>2255.87</ele>
        <time>2019-03-09T13:23:26Z</time>
      </trkpt>
      <trkpt lat="44.3727" lon="6.90875">
        <ele>2255.87</ele>
        <time>2019-03-09T13:23:49Z</time>
      </trkpt>
      <trkpt lat="44.37272" lon="6.90876">
        <ele>2255.87</ele>
        <time>2019-03-09T13:24:05Z</time>
      </trkpt>
      <trkpt lat="44.37291" lon="6.90893">
        <ele>2253.95</ele>
        <time>2019-03-09T13:24:13Z</time>
      </trkpt>
      <trkpt lat="44.37308" lon="6.90915">
        <ele>2249.14</ele>
        <time>2019-03-09T13:24:17Z</time>
      </trkpt>
      <trkpt lat="44.37317" lon="6.90924">
        <ele>2248.66</ele>
        <time>2019-03-09T13:24:19Z</time>
      </trkpt>
      <trkpt lat="44.37325" lon="6.90935">
        <ele>2246.26</ele>
        <time>2019-03-09T13:24:21Z</time>
      </trkpt>
      <trkpt lat="44.37332" lon="6.90945">
        <ele>2244.33</ele>
        <time>2019-03-09T13:24:23Z</time>
      </trkpt>
      <trkpt lat="44.37338" lon="6.90947">
        <ele>2244.82</ele>
        <time>2019-03-09T13:24:24Z</time>
      </trkpt>
      <trkpt lat="44.37345" lon="6.90948">
        <ele>2243.85</ele>
        <time>2019-03-09T13:24:25Z</time>
      </trkpt>
      <trkpt lat="44.37351" lon="6.90951">
        <ele>2242.89</ele>
        <time>2019-03-09T13:24:26Z</time>
      </trkpt>
      <trkpt lat="44.37357" lon="6.90955">
        <ele>2240.49</ele>
        <time>2019-03-09T13:24:27Z</time>
      </trkpt>
      <trkpt lat="44.37362" lon="6.90957">
        <ele>2239.05</ele>
        <time>2019-03-09T13:24:28Z</time>
      </trkpt>
      <trkpt lat="44.37368" lon="6.90957">
        <ele>2239.53</ele>
        <time>2019-03-09T13:24:29Z</time>
      </trkpt>
      <trkpt lat="44.37375" lon="6.90958">
        <ele>2238.57</ele>
        <time>2019-03-09T13:24:30Z</time>
      </trkpt>
      <trkpt lat="44.37383" lon="6.90961">
        <ele>2235.2</ele>
        <time>2019-03-09T13:24:31Z</time>
      </trkpt>
      <trkpt lat="44.37389" lon="6.90961">
        <ele>2234.24</ele>
        <time>2019-03-09T13:24:32Z</time>
      </trkpt>
      <trkpt lat="44.37396" lon="6.9096">
        <ele>2234.24</ele>
        <time>2019-03-09T13:24:33Z</time>
      </trkpt>
      <trkpt lat="44.37403" lon="6.9096">
        <ele>2233.76</ele>
        <time>2019-03-09T13:24:34Z</time>
      </trkpt>
      <trkpt lat="44.37417" lon="6.90961">
        <ele>2231.36</ele>
        <time>2019-03-09T13:24:36Z</time>
      </trkpt>
      <trkpt lat="44.37441" lon="6.90961">
        <ele>2227.03</ele>
        <time>2019-03-09T13:24:39Z</time>
      </trkpt>
      <trkpt lat="44.37449" lon="6.90961">
        <ele>2227.51</ele>
        <time>2019-03-09T13:24:40Z</time>
      </trkpt>
      <trkpt lat="44.37464" lon="6.90962">
        <ele>2223.19</ele>
        <time>2019-03-09T13:24:42Z</time>
      </trkpt>
      <trkpt lat="44.3747" lon="6.90964">
        <ele>2222.22</ele>
        <time>2019-03-09T13:24:43Z</time>
      </trkpt>
      <trkpt lat="44.37479" lon="6.90969">
        <ele>2222.71</ele>
        <time>2019-03-09T13:24:45Z</time>
      </trkpt>
      <trkpt lat="44.37507" lon="6.90994">
        <ele>2219.82</ele>
        <time>2019-03-09T13:24:56Z</time>
      </trkpt>
      <trkpt lat="44.37517" lon="6.91007">
        <ele>2217.9</ele>
        <time>2019-03-09T13:25:00Z</time>
      </trkpt>
      <trkpt lat="44.37525" lon="6.9102">
        <ele>2215.5</ele>
        <time>2019-03-09T13:25:04Z</time>
      </trkpt>
      <trkpt lat="44.37527" lon="6.91022">
        <ele>2215.01</ele>
        <time>2019-03-09T13:25:05Z</time>
      </trkpt>
      <trkpt lat="44.37526" lon="6.91024">
        <ele>2214.05</ele>
        <time>2019-03-09T13:25:13Z</time>
      </trkpt>
      <trkpt lat="44.37527" lon="6.91022">
        <ele>2214.53</ele>
        <time>2019-03-09T13:25:41Z</time>
      </trkpt>
      <trkpt lat="44.37531" lon="6.9101">
        <ele>2214.53</ele>
        <time>2019-03-09T13:26:09Z</time>
      </trkpt>
      <trkpt lat="44.37526" lon="6.91024">
        <ele>2215.01</ele>
        <time>2019-03-09T13:26:42Z</time>
      </trkpt>
      <trkpt lat="44.37526" lon="6.91031">
        <ele>2214.05</ele>
        <time>2019-03-09T13:27:13Z</time>
      </trkpt>
      <trkpt lat="44.37524" lon="6.91033">
        <ele>2214.53</ele>
        <time>2019-03-09T13:27:34Z</time>
      </trkpt>
      <trkpt lat="44.37526" lon="6.91029">
        <ele>2215.01</ele>
        <time>2019-03-09T13:28:07Z</time>
      </trkpt>
      <trkpt lat="44.37529" lon="6.91029">
        <ele>2214.53</ele>
        <time>2019-03-09T13:28:13Z</time>
      </trkpt>
      <trkpt lat="44.37534" lon="6.91025">
        <ele>2214.05</ele>
        <time>2019-03-09T13:28:14Z</time>
      </trkpt>
      <trkpt lat="44.37534" lon="6.91016">
        <ele>2210.21</ele>
        <time>2019-03-09T13:28:16Z</time>
      </trkpt>
      <trkpt lat="44.37537" lon="6.91013">
        <ele>2210.21</ele>
        <time>2019-03-09T13:28:17Z</time>
      </trkpt>
      <trkpt lat="44.37541" lon="6.91012">
        <ele>2209.73</ele>
        <time>2019-03-09T13:28:18Z</time>
      </trkpt>
      <trkpt lat="44.37545" lon="6.91008">
        <ele>2207.32</ele>
        <time>2019-03-09T13:28:19Z</time>
      </trkpt>
      <trkpt lat="44.37552" lon="6.90996">
        <ele>2202.52</ele>
        <time>2019-03-09T13:28:21Z</time>
      </trkpt>
      <trkpt lat="44.37555" lon="6.90995">
        <ele>2202.52</ele>
        <time>2019-03-09T13:28:22Z</time>
      </trkpt>
      <trkpt lat="44.37558" lon="6.90996">
        <ele>2201.56</ele>
        <time>2019-03-09T13:28:23Z</time>
      </trkpt>
      <trkpt lat="44.37562" lon="6.90995">
        <ele>2200.11</ele>
        <time>2019-03-09T13:28:24Z</time>
      </trkpt>
      <trkpt lat="44.37566" lon="6.90994">
        <ele>2196.75</ele>
        <time>2019-03-09T13:28:25Z</time>
      </trkpt>
      <trkpt lat="44.37578" lon="6.90976">
        <ele>2195.79</ele>
        <time>2019-03-09T13:28:34Z</time>
      </trkpt>
      <trkpt lat="44.37558" lon="6.90985">
        <ele>2196.27</ele>
        <time>2019-03-09T13:28:48Z</time>
      </trkpt>
      <trkpt lat="44.37569" lon="6.90976">
        <ele>2195.79</ele>
        <time>2019-03-09T13:29:08Z</time>
      </trkpt>
      <trkpt lat="44.37586" lon="6.90964">
        <ele>2195.79</ele>
        <time>2019-03-09T13:29:27Z</time>
      </trkpt>
      <trkpt lat="44.37586" lon="6.90964">
        <ele>2191.94</ele>
        <time>2019-03-09T13:29:30Z</time>
      </trkpt>
      <trkpt lat="44.37586" lon="6.90963">
        <ele>2191.94</ele>
        <time>2019-03-09T13:29:31Z</time>
      </trkpt>
      <trkpt lat="44.37587" lon="6.90961">
        <ele>2186.18</ele>
        <time>2019-03-09T13:29:36Z</time>
      </trkpt>
      <trkpt lat="44.37589" lon="6.90961">
        <ele>2182.81</ele>
        <time>2019-03-09T13:29:43Z</time>
      </trkpt>
      <trkpt lat="44.37586" lon="6.90948">
        <ele>2177.04</ele>
        <time>2019-03-09T13:29:48Z</time>
      </trkpt>
      <trkpt lat="44.3759" lon="6.90947">
        <ele>2173.2</ele>
        <time>2019-03-09T13:29:50Z</time>
      </trkpt>
      <trkpt lat="44.37592" lon="6.90944">
        <ele>2173.2</ele>
        <time>2019-03-09T13:29:51Z</time>
      </trkpt>
      <trkpt lat="44.3759" lon="6.90943">
        <ele>2173.68</ele>
        <time>2019-03-09T13:29:54Z</time>
      </trkpt>
      <trkpt lat="44.37578" lon="6.90955">
        <ele>2173.68</ele>
        <time>2019-03-09T13:30:07Z</time>
      </trkpt>
      <trkpt lat="44.37574" lon="6.90962">
        <ele>2172.72</ele>
        <time>2019-03-09T13:30:29Z</time>
      </trkpt>
      <trkpt lat="44.37575" lon="6.90957">
        <ele>2172.72</ele>
        <time>2019-03-09T13:30:46Z</time>
      </trkpt>
      <trkpt lat="44.37568" lon="6.90964">
        <ele>2173.2</ele>
        <time>2019-03-09T13:31:02Z</time>
      </trkpt>
      <trkpt lat="44.37572" lon="6.90966">
        <ele>2173.2</ele>
        <time>2019-03-09T13:31:22Z</time>
      </trkpt>
      <trkpt lat="44.37573" lon="6.90964">
        <ele>2173.2</ele>
        <time>2019-03-09T13:31:42Z</time>
      </trkpt>
      <trkpt lat="44.37572" lon="6.90965">
        <ele>2173.2</ele>
        <time>2019-03-09T13:31:59Z</time>
      </trkpt>
      <trkpt lat="44.37572" lon="6.90967">
        <ele>2173.68</ele>
        <time>2019-03-09T13:32:17Z</time>
      </trkpt>
      <trkpt lat="44.3757" lon="6.90969">
        <ele>2173.68</ele>
        <time>2019-03-09T13:32:38Z</time>
      </trkpt>
      <trkpt lat="44.37572" lon="6.90971">
        <ele>2173.68</ele>
        <time>2019-03-09T13:32:53Z</time>
      </trkpt>
      <trkpt lat="44.37576" lon="6.90968">
        <ele>2173.68</ele>
        <time>2019-03-09T13:33:17Z</time>
      </trkpt>
      <trkpt lat="44.37576" lon="6.90969">
        <ele>2174.16</ele>
        <time>2019-03-09T13:33:38Z</time>
      </trkpt>
      <trkpt lat="44.37576" lon="6.90969">
        <ele>2174.16</ele>
        <time>2019-03-09T13:33:55Z</time>
      </trkpt>
      <trkpt lat="44.37575" lon="6.90968">
        <ele>2174.16</ele>
        <time>2019-03-09T13:34:12Z</time>
      </trkpt>
      <trkpt lat="44.37577" lon="6.90967">
        <ele>2174.16</ele>
        <time>2019-03-09T13:34:30Z</time>
      </trkpt>
      <trkpt lat="44.37578" lon="6.90964">
        <ele>2174.16</ele>
        <time>2019-03-09T13:34:52Z</time>
      </trkpt>
      <trkpt lat="44.37578" lon="6.90964">
        <ele>2175.12</ele>
        <time>2019-03-09T13:35:13Z</time>
      </trkpt>
      <trkpt lat="44.37578" lon="6.90964">
        <ele>2173.68</ele>
        <time>2019-03-09T13:35:14Z</time>
      </trkpt>
      <trkpt lat="44.37579" lon="6.90964">
        <ele>2173.2</ele>
        <time>2019-03-09T13:35:45Z</time>
      </trkpt>
      <trkpt lat="44.37571" lon="6.90963">
        <ele>2173.2</ele>
        <time>2019-03-09T13:36:08Z</time>
      </trkpt>
      <trkpt lat="44.37571" lon="6.90965">
        <ele>2173.2</ele>
        <time>2019-03-09T13:36:30Z</time>
      </trkpt>
      <trkpt lat="44.37572" lon="6.90965">
        <ele>2174.16</ele>
        <time>2019-03-09T13:36:50Z</time>
      </trkpt>
      <trkpt lat="44.37573" lon="6.90968">
        <ele>2173.68</ele>
        <time>2019-03-09T13:37:00Z</time>
      </trkpt>
      <trkpt lat="44.37571" lon="6.90973">
        <ele>2172.72</ele>
        <time>2019-03-09T13:37:13Z</time>
      </trkpt>
      <trkpt lat="44.3757" lon="6.90971">
        <ele>2173.2</ele>
        <time>2019-03-09T13:37:33Z</time>
      </trkpt>
      <trkpt lat="44.37569" lon="6.90972">
        <ele>2173.2</ele>
        <time>2019-03-09T13:37:39Z</time>
      </trkpt>
      <trkpt lat="44.37595" lon="6.90969">
        <ele>2170.31</ele>
        <time>2019-03-09T13:37:45Z</time>
      </trkpt>
      <trkpt lat="44.37609" lon="6.90971">
        <ele>2167.91</ele>
        <time>2019-03-09T13:37:48Z</time>
      </trkpt>
      <trkpt lat="44.37624" lon="6.90982">
        <ele>2166.47</ele>
        <time>2019-03-09T13:37:52Z</time>
      </trkpt>
      <trkpt lat="44.3764" lon="6.90995">
        <ele>2163.58</ele>
        <time>2019-03-09T13:37:55Z</time>
      </trkpt>
      <trkpt lat="44.37653" lon="6.91013">
        <ele>2160.7</ele>
        <time>2019-03-09T13:38:01Z</time>
      </trkpt>
      <trkpt lat="44.37657" lon="6.91023">
        <ele>2159.74</ele>
        <time>2019-03-09T13:38:15Z</time>
      </trkpt>
      <trkpt lat="44.37656" lon="6.91024">
        <ele>2159.74</ele>
        <time>2019-03-09T13:38:16Z</time>
      </trkpt>
      <trkpt lat="44.37663" lon="6.91021">
        <ele>2155.41</ele>
        <time>2019-03-09T13:38:21Z</time>
      </trkpt>
      <trkpt lat="44.37681" lon="6.91019">
        <ele>2152.53</ele>
        <time>2019-03-09T13:38:26Z</time>
      </trkpt>
      <trkpt lat="44.37686" lon="6.9102">
        <ele>2152.05</ele>
        <time>2019-03-09T13:38:27Z</time>
      </trkpt>
      <trkpt lat="44.37699" lon="6.91025">
        <ele>2149.65</ele>
        <time>2019-03-09T13:38:30Z</time>
      </trkpt>
      <trkpt lat="44.3773" lon="6.91029">
        <ele>2146.28</ele>
        <time>2019-03-09T13:38:38Z</time>
      </trkpt>
      <trkpt lat="44.37742" lon="6.91022">
        <ele>2141.95</ele>
        <time>2019-03-09T13:38:42Z</time>
      </trkpt>
      <trkpt lat="44.37744" lon="6.9102">
        <ele>2141.95</ele>
        <time>2019-03-09T13:38:43Z</time>
      </trkpt>
      <trkpt lat="44.37753" lon="6.91022">
        <ele>2140.51</ele>
        <time>2019-03-09T13:38:49Z</time>
      </trkpt>
      <trkpt lat="44.37751" lon="6.91038">
        <ele>2137.15</ele>
        <time>2019-03-09T13:38:53Z</time>
      </trkpt>
      <trkpt lat="44.37753" lon="6.91041">
        <ele>2137.15</ele>
        <time>2019-03-09T13:38:54Z</time>
      </trkpt>
      <trkpt lat="44.37756" lon="6.91052">
        <ele>2135.71</ele>
        <time>2019-03-09T13:39:03Z</time>
      </trkpt>
      <trkpt lat="44.37755" lon="6.91053">
        <ele>2135.71</ele>
        <time>2019-03-09T13:39:06Z</time>
      </trkpt>
      <trkpt lat="44.37767" lon="6.91084">
        <ele>2133.78</ele>
        <time>2019-03-09T13:39:14Z</time>
      </trkpt>
      <trkpt lat="44.37769" lon="6.91088">
        <ele>2132.82</ele>
        <time>2019-03-09T13:39:15Z</time>
      </trkpt>
      <trkpt lat="44.37772" lon="6.91093">
        <ele>2132.82</ele>
        <time>2019-03-09T13:39:16Z</time>
      </trkpt>
      <trkpt lat="44.37783" lon="6.91104">
        <ele>2128.02</ele>
        <time>2019-03-09T13:39:19Z</time>
      </trkpt>
      <trkpt lat="44.37787" lon="6.91108">
        <ele>2126.09</ele>
        <time>2019-03-09T13:39:21Z</time>
      </trkpt>
      <trkpt lat="44.37787" lon="6.91103">
        <ele>2124.65</ele>
        <time>2019-03-09T13:39:22Z</time>
      </trkpt>
      <trkpt lat="44.37787" lon="6.91099">
        <ele>2124.65</ele>
        <time>2019-03-09T13:39:23Z</time>
      </trkpt>
      <trkpt lat="44.37783" lon="6.91097">
        <ele>2125.13</ele>
        <time>2019-03-09T13:39:38Z</time>
      </trkpt>
      <trkpt lat="44.37782" lon="6.91098">
        <ele>2124.17</ele>
        <time>2019-03-09T13:39:57Z</time>
      </trkpt>
      <trkpt lat="44.37791" lon="6.91092">
        <ele>2124.17</ele>
        <time>2019-03-09T13:40:14Z</time>
      </trkpt>
      <trkpt lat="44.37796" lon="6.91092">
        <ele>2123.21</ele>
        <time>2019-03-09T13:40:17Z</time>
      </trkpt>
      <trkpt lat="44.37798" lon="6.91097">
        <ele>2119.84</ele>
        <time>2019-03-09T13:40:18Z</time>
      </trkpt>
      <trkpt lat="44.37801" lon="6.91102">
        <ele>2117.44</ele>
        <time>2019-03-09T13:40:19Z</time>
      </trkpt>
      <trkpt lat="44.37803" lon="6.91106">
        <ele>2116.48</ele>
        <time>2019-03-09T13:40:20Z</time>
      </trkpt>
      <trkpt lat="44.37806" lon="6.91111">
        <ele>2116</ele>
        <time>2019-03-09T13:40:21Z</time>
      </trkpt>
      <trkpt lat="44.37807" lon="6.91115">
        <ele>2116</ele>
        <time>2019-03-09T13:40:22Z</time>
      </trkpt>
      <trkpt lat="44.37809" lon="6.91118">
        <ele>2115.52</ele>
        <time>2019-03-09T13:40:23Z</time>
      </trkpt>
      <trkpt lat="44.37813" lon="6.91118">
        <ele>2115.52</ele>
        <time>2019-03-09T13:40:24Z</time>
      </trkpt>
      <trkpt lat="44.37816" lon="6.91115">
        <ele>2114.56</ele>
        <time>2019-03-09T13:40:25Z</time>
      </trkpt>
      <trkpt lat="44.37818" lon="6.91109">
        <ele>2113.6</ele>
        <time>2019-03-09T13:40:26Z</time>
      </trkpt>
      <trkpt lat="44.37821" lon="6.91105">
        <ele>2112.63</ele>
        <time>2019-03-09T13:40:27Z</time>
      </trkpt>
      <trkpt lat="44.37825" lon="6.91106">
        <ele>2110.71</ele>
        <time>2019-03-09T13:40:28Z</time>
      </trkpt>
      <trkpt lat="44.3783" lon="6.91109">
        <ele>2108.79</ele>
        <time>2019-03-09T13:40:29Z</time>
      </trkpt>
      <trkpt lat="44.37834" lon="6.91108">
        <ele>2107.35</ele>
        <time>2019-03-09T13:40:30Z</time>
      </trkpt>
      <trkpt lat="44.37838" lon="6.91104">
        <ele>2106.87</ele>
        <time>2019-03-09T13:40:31Z</time>
      </trkpt>
      <trkpt lat="44.37847" lon="6.91094">
        <ele>2103.98</ele>
        <time>2019-03-09T13:40:33Z</time>
      </trkpt>
      <trkpt lat="44.37872" lon="6.91076">
        <ele>2102.54</ele>
        <time>2019-03-09T13:40:38Z</time>
      </trkpt>
      <trkpt lat="44.37879" lon="6.91071">
        <ele>2102.06</ele>
        <time>2019-03-09T13:40:40Z</time>
      </trkpt>
      <trkpt lat="44.37892" lon="6.91086">
        <ele>2098.7</ele>
        <time>2019-03-09T13:40:45Z</time>
      </trkpt>
      <trkpt lat="44.37908" lon="6.91093">
        <ele>2096.29</ele>
        <time>2019-03-09T13:40:49Z</time>
      </trkpt>
      <trkpt lat="44.37926" lon="6.91096">
        <ele>2092.45</ele>
        <time>2019-03-09T13:40:53Z</time>
      </trkpt>
      <trkpt lat="44.37933" lon="6.91099">
        <ele>2090.04</ele>
        <time>2019-03-09T13:40:55Z</time>
      </trkpt>
      <trkpt lat="44.3793" lon="6.91104">
        <ele>2088.6</ele>
        <time>2019-03-09T13:41:03Z</time>
      </trkpt>
      <trkpt lat="44.3793" lon="6.91105">
        <ele>2088.6</ele>
        <time>2019-03-09T13:41:04Z</time>
      </trkpt>
      <trkpt lat="44.37937" lon="6.9111">
        <ele>2086.68</ele>
        <time>2019-03-09T13:41:12Z</time>
      </trkpt>
      <trkpt lat="44.37955" lon="6.91115">
        <ele>2084.76</ele>
        <time>2019-03-09T13:41:18Z</time>
      </trkpt>
      <trkpt lat="44.37986" lon="6.91111">
        <ele>2082.35</ele>
        <time>2019-03-09T13:41:32Z</time>
      </trkpt>
      <trkpt lat="44.38007" lon="6.91112">
        <ele>2079.95</ele>
        <time>2019-03-09T13:41:41Z</time>
      </trkpt>
      <trkpt lat="44.38025" lon="6.91111">
        <ele>2077.55</ele>
        <time>2019-03-09T13:41:53Z</time>
      </trkpt>
      <trkpt lat="44.38024" lon="6.91112">
        <ele>2077.55</ele>
        <time>2019-03-09T13:41:54Z</time>
      </trkpt>
      <trkpt lat="44.38032" lon="6.91113">
        <ele>2076.59</ele>
        <time>2019-03-09T13:42:03Z</time>
      </trkpt>
      <trkpt lat="44.38039" lon="6.91115">
        <ele>2077.07</ele>
        <time>2019-03-09T13:42:08Z</time>
      </trkpt>
      <trkpt lat="44.38037" lon="6.91119">
        <ele>2073.7</ele>
        <time>2019-03-09T13:42:11Z</time>
      </trkpt>
      <trkpt lat="44.38035" lon="6.9112">
        <ele>2073.7</ele>
        <time>2019-03-09T13:42:12Z</time>
      </trkpt>
      <trkpt lat="44.38035" lon="6.91121">
        <ele>2074.18</ele>
        <time>2019-03-09T13:42:14Z</time>
      </trkpt>
      <trkpt lat="44.38051" lon="6.91124">
        <ele>2071.78</ele>
        <time>2019-03-09T13:42:19Z</time>
      </trkpt>
      <trkpt lat="44.38064" lon="6.91122">
        <ele>2068.89</ele>
        <time>2019-03-09T13:42:27Z</time>
      </trkpt>
      <trkpt lat="44.38064" lon="6.91122">
        <ele>2068.89</ele>
        <time>2019-03-09T13:42:28Z</time>
      </trkpt>
      <trkpt lat="44.38082" lon="6.91119">
        <ele>2065.53</ele>
        <time>2019-03-09T13:42:37Z</time>
      </trkpt>
      <trkpt lat="44.38081" lon="6.91121">
        <ele>2065.53</ele>
        <time>2019-03-09T13:42:50Z</time>
      </trkpt>
      <trkpt lat="44.38096" lon="6.91123">
        <ele>2065.53</ele>
        <time>2019-03-09T13:42:56Z</time>
      </trkpt>
      <trkpt lat="44.3809" lon="6.9113">
        <ele>2061.68</ele>
        <time>2019-03-09T13:42:59Z</time>
      </trkpt>
      <trkpt lat="44.38099" lon="6.91136">
        <ele>2057.84</ele>
        <time>2019-03-09T13:43:02Z</time>
      </trkpt>
      <trkpt lat="44.38103" lon="6.91134">
        <ele>2057.36</ele>
        <time>2019-03-09T13:43:03Z</time>
      </trkpt>
      <trkpt lat="44.38115" lon="6.91132">
        <ele>2054.96</ele>
        <time>2019-03-09T13:43:06Z</time>
      </trkpt>
      <trkpt lat="44.38113" lon="6.91137">
        <ele>2053.03</ele>
        <time>2019-03-09T13:43:07Z</time>
      </trkpt>
      <trkpt lat="44.38121" lon="6.91147">
        <ele>2050.15</ele>
        <time>2019-03-09T13:43:10Z</time>
      </trkpt>
      <trkpt lat="44.38137" lon="6.91145">
        <ele>2049.67</ele>
        <time>2019-03-09T13:43:14Z</time>
      </trkpt>
      <trkpt lat="44.38137" lon="6.91149">
        <ele>2047.26</ele>
        <time>2019-03-09T13:43:15Z</time>
      </trkpt>
      <trkpt lat="44.38133" lon="6.91156">
        <ele>2045.82</ele>
        <time>2019-03-09T13:43:16Z</time>
      </trkpt>
      <trkpt lat="44.3813" lon="6.91158">
        <ele>2045.34</ele>
        <time>2019-03-09T13:43:17Z</time>
      </trkpt>
      <trkpt lat="44.38135" lon="6.91166">
        <ele>2043.42</ele>
        <time>2019-03-09T13:43:21Z</time>
      </trkpt>
      <trkpt lat="44.38149" lon="6.91162">
        <ele>2041.5</ele>
        <time>2019-03-09T13:43:26Z</time>
      </trkpt>
      <trkpt lat="44.38155" lon="6.91171">
        <ele>2037.65</ele>
        <time>2019-03-09T13:43:29Z</time>
      </trkpt>
      <trkpt lat="44.38165" lon="6.91172">
        <ele>2035.25</ele>
        <time>2019-03-09T13:43:31Z</time>
      </trkpt>
      <trkpt lat="44.38167" lon="6.91171">
        <ele>2032.84</ele>
        <time>2019-03-09T13:43:39Z</time>
      </trkpt>
      <trkpt lat="44.38166" lon="6.91174">
        <ele>2033.81</ele>
        <time>2019-03-09T13:43:44Z</time>
      </trkpt>
      <trkpt lat="44.38159" lon="6.91175">
        <ele>2034.77</ele>
        <time>2019-03-09T13:44:08Z</time>
      </trkpt>
      <trkpt lat="44.3816" lon="6.91176">
        <ele>2034.77</ele>
        <time>2019-03-09T13:44:26Z</time>
      </trkpt>
      <trkpt lat="44.3816" lon="6.91175">
        <ele>2034.77</ele>
        <time>2019-03-09T13:44:28Z</time>
      </trkpt>
      <trkpt lat="44.38165" lon="6.91193">
        <ele>2030.92</ele>
        <time>2019-03-09T13:44:34Z</time>
      </trkpt>
      <trkpt lat="44.38168" lon="6.91198">
        <ele>2030.92</ele>
        <time>2019-03-09T13:44:35Z</time>
      </trkpt>
      <trkpt lat="44.3818" lon="6.912">
        <ele>2028.52</ele>
        <time>2019-03-09T13:44:38Z</time>
      </trkpt>
      <trkpt lat="44.38182" lon="6.91207">
        <ele>2024.19</ele>
        <time>2019-03-09T13:44:40Z</time>
      </trkpt>
      <trkpt lat="44.38187" lon="6.9121">
        <ele>2024.19</ele>
        <time>2019-03-09T13:44:41Z</time>
      </trkpt>
      <trkpt lat="44.38201" lon="6.91221">
        <ele>2019.39</ele>
        <time>2019-03-09T13:44:46Z</time>
      </trkpt>
      <trkpt lat="44.38205" lon="6.91221">
        <ele>2018.91</ele>
        <time>2019-03-09T13:44:47Z</time>
      </trkpt>
      <trkpt lat="44.38223" lon="6.91228">
        <ele>2014.1</ele>
        <time>2019-03-09T13:44:52Z</time>
      </trkpt>
      <trkpt lat="44.38234" lon="6.91227">
        <ele>2012.18</ele>
        <time>2019-03-09T13:44:55Z</time>
      </trkpt>
      <trkpt lat="44.38238" lon="6.91227">
        <ele>2011.7</ele>
        <time>2019-03-09T13:44:56Z</time>
      </trkpt>
      <trkpt lat="44.38256" lon="6.91228">
        <ele>2009.29</ele>
        <time>2019-03-09T13:45:00Z</time>
      </trkpt>
      <trkpt lat="44.3827" lon="6.91223">
        <ele>2007.37</ele>
        <time>2019-03-09T13:45:03Z</time>
      </trkpt>
      <trkpt lat="44.38288" lon="6.91229">
        <ele>2004.01</ele>
        <time>2019-03-09T13:45:07Z</time>
      </trkpt>
      <trkpt lat="44.38292" lon="6.91228">
        <ele>2004.01</ele>
        <time>2019-03-09T13:45:08Z</time>
      </trkpt>
      <trkpt lat="44.38313" lon="6.91227">
        <ele>1999.2</ele>
        <time>2019-03-09T13:45:12Z</time>
      </trkpt>
      <trkpt lat="44.38319" lon="6.91227">
        <ele>1998.72</ele>
        <time>2019-03-09T13:45:13Z</time>
      </trkpt>
      <trkpt lat="44.38334" lon="6.91223">
        <ele>1997.28</ele>
        <time>2019-03-09T13:45:16Z</time>
      </trkpt>
      <trkpt lat="44.38338" lon="6.91222">
        <ele>1996.8</ele>
        <time>2019-03-09T13:45:17Z</time>
      </trkpt>
      <trkpt lat="44.38354" lon="6.91225">
        <ele>1993.91</ele>
        <time>2019-03-09T13:45:20Z</time>
      </trkpt>
      <trkpt lat="44.38362" lon="6.9122">
        <ele>1992.95</ele>
        <time>2019-03-09T13:45:22Z</time>
      </trkpt>
      <trkpt lat="44.38381" lon="6.91223">
        <ele>1989.1</ele>
        <time>2019-03-09T13:45:26Z</time>
      </trkpt>
      <trkpt lat="44.38386" lon="6.9122">
        <ele>1989.1</ele>
        <time>2019-03-09T13:45:27Z</time>
      </trkpt>
      <trkpt lat="44.38405" lon="6.9122">
        <ele>1985.74</ele>
        <time>2019-03-09T13:45:31Z</time>
      </trkpt>
      <trkpt lat="44.3841" lon="6.9122">
        <ele>1986.22</ele>
        <time>2019-03-09T13:45:32Z</time>
      </trkpt>
      <trkpt lat="44.38421" lon="6.91219">
        <ele>1983.82</ele>
        <time>2019-03-09T13:45:34Z</time>
      </trkpt>
      <trkpt lat="44.38428" lon="6.91211">
        <ele>1982.86</ele>
        <time>2019-03-09T13:45:43Z</time>
      </trkpt>
      <trkpt lat="44.38423" lon="6.91214">
        <ele>1982.86</ele>
        <time>2019-03-09T13:45:53Z</time>
      </trkpt>
      <trkpt lat="44.38441" lon="6.91218">
        <ele>1979.49</ele>
        <time>2019-03-09T13:45:58Z</time>
      </trkpt>
      <trkpt lat="44.38467" lon="6.91226">
        <ele>1976.13</ele>
        <time>2019-03-09T13:46:02Z</time>
      </trkpt>
      <trkpt lat="44.38485" lon="6.91233">
        <ele>1974.2</ele>
        <time>2019-03-09T13:46:05Z</time>
      </trkpt>
      <trkpt lat="44.38518" lon="6.9125">
        <ele>1968.92</ele>
        <time>2019-03-09T13:46:10Z</time>
      </trkpt>
      <trkpt lat="44.38525" lon="6.91253">
        <ele>1967.96</ele>
        <time>2019-03-09T13:46:11Z</time>
      </trkpt>
      <trkpt lat="44.38538" lon="6.91259">
        <ele>1966.03</ele>
        <time>2019-03-09T13:46:13Z</time>
      </trkpt>
      <trkpt lat="44.38544" lon="6.91261">
        <ele>1965.55</ele>
        <time>2019-03-09T13:46:14Z</time>
      </trkpt>
      <trkpt lat="44.38576" lon="6.91271">
        <ele>1961.71</ele>
        <time>2019-03-09T13:46:19Z</time>
      </trkpt>
      <trkpt lat="44.38587" lon="6.91277">
        <ele>1961.23</ele>
        <time>2019-03-09T13:46:21Z</time>
      </trkpt>
      <trkpt lat="44.38623" lon="6.91312">
        <ele>1959.78</ele>
        <time>2019-03-09T13:46:31Z</time>
      </trkpt>
      <trkpt lat="44.38626" lon="6.91317">
        <ele>1959.3</ele>
        <time>2019-03-09T13:46:37Z</time>
      </trkpt>
      <trkpt lat="44.3863" lon="6.91321">
        <ele>1959.78</ele>
        <time>2019-03-09T13:46:45Z</time>
      </trkpt>
      <trkpt lat="44.38632" lon="6.91323">
        <ele>1959.78</ele>
        <time>2019-03-09T13:46:48Z</time>
      </trkpt>
      <trkpt lat="44.38649" lon="6.91338">
        <ele>1958.82</ele>
        <time>2019-03-09T13:47:00Z</time>
      </trkpt>
      <trkpt lat="44.38652" lon="6.91339">
        <ele>1958.82</ele>
        <time>2019-03-09T13:47:03Z</time>
      </trkpt>
      <trkpt lat="44.38659" lon="6.91344">
        <ele>1958.82</ele>
        <time>2019-03-09T13:47:10Z</time>
      </trkpt>
      <trkpt lat="44.3866" lon="6.91345">
        <ele>1958.34</ele>
        <time>2019-03-09T13:47:11Z</time>
      </trkpt>
      <trkpt lat="44.38672" lon="6.91355">
        <ele>1957.38</ele>
        <time>2019-03-09T13:47:25Z</time>
      </trkpt>
      <trkpt lat="44.38689" lon="6.9137">
        <ele>1956.9</ele>
        <time>2019-03-09T13:47:39Z</time>
      </trkpt>
      <trkpt lat="44.38702" lon="6.91382">
        <ele>1954.98</ele>
        <time>2019-03-09T13:47:53Z</time>
      </trkpt>
      <trkpt lat="44.38728" lon="6.91397">
        <ele>1951.13</ele>
        <time>2019-03-09T13:48:06Z</time>
      </trkpt>
      <trkpt lat="44.3874" lon="6.91404">
        <ele>1950.17</ele>
        <time>2019-03-09T13:48:09Z</time>
      </trkpt>
      <trkpt lat="44.38769" lon="6.91419">
        <ele>1946.33</ele>
        <time>2019-03-09T13:48:15Z</time>
      </trkpt>
      <trkpt lat="44.38785" lon="6.91429">
        <ele>1944.88</ele>
        <time>2019-03-09T13:48:18Z</time>
      </trkpt>
      <trkpt lat="44.38791" lon="6.91432">
        <ele>1945.36</ele>
        <time>2019-03-09T13:48:19Z</time>
      </trkpt>
      <trkpt lat="44.38796" lon="6.91436">
        <ele>1944.88</ele>
        <time>2019-03-09T13:48:20Z</time>
      </trkpt>
      <trkpt lat="44.38802" lon="6.91439">
        <ele>1942.96</ele>
        <time>2019-03-09T13:48:21Z</time>
      </trkpt>
      <trkpt lat="44.38808" lon="6.91441">
        <ele>1942.96</ele>
        <time>2019-03-09T13:48:22Z</time>
      </trkpt>
      <trkpt lat="44.38813" lon="6.91443">
        <ele>1942.48</ele>
        <time>2019-03-09T13:48:23Z</time>
      </trkpt>
      <trkpt lat="44.38819" lon="6.91446">
        <ele>1941.52</ele>
        <time>2019-03-09T13:48:24Z</time>
      </trkpt>
      <trkpt lat="44.38825" lon="6.91449">
        <ele>1940.56</ele>
        <time>2019-03-09T13:48:25Z</time>
      </trkpt>
      <trkpt lat="44.38831" lon="6.91452">
        <ele>1939.6</ele>
        <time>2019-03-09T13:48:26Z</time>
      </trkpt>
      <trkpt lat="44.38842" lon="6.91459">
        <ele>1939.12</ele>
        <time>2019-03-09T13:48:28Z</time>
      </trkpt>
      <trkpt lat="44.38871" lon="6.91475">
        <ele>1935.27</ele>
        <time>2019-03-09T13:48:33Z</time>
      </trkpt>
      <trkpt lat="44.38896" lon="6.91482">
        <ele>1935.27</ele>
        <time>2019-03-09T13:48:38Z</time>
      </trkpt>
      <trkpt lat="44.3893" lon="6.91501">
        <ele>1934.31</ele>
        <time>2019-03-09T13:48:50Z</time>
      </trkpt>
      <trkpt lat="44.38939" lon="6.9151">
        <ele>1934.31</ele>
        <time>2019-03-09T13:49:03Z</time>
      </trkpt>
      <trkpt lat="44.38955" lon="6.91521">
        <ele>1932.87</ele>
        <time>2019-03-09T13:49:17Z</time>
      </trkpt>
      <trkpt lat="44.38961" lon="6.91523">
        <ele>1932.39</ele>
        <time>2019-03-09T13:49:28Z</time>
      </trkpt>
      <trkpt lat="44.38962" lon="6.91524">
        <ele>1931.91</ele>
        <time>2019-03-09T13:49:29Z</time>
      </trkpt>
      <trkpt lat="44.38964" lon="6.91524">
        <ele>1931.91</ele>
        <time>2019-03-09T13:49:30Z</time>
      </trkpt>
      <trkpt lat="44.38965" lon="6.91524">
        <ele>1931.43</ele>
        <time>2019-03-09T13:49:31Z</time>
      </trkpt>
      <trkpt lat="44.38967" lon="6.91525">
        <ele>1931.91</ele>
        <time>2019-03-09T13:49:32Z</time>
      </trkpt>
      <trkpt lat="44.38968" lon="6.91525">
        <ele>1931.43</ele>
        <time>2019-03-09T13:49:33Z</time>
      </trkpt>
      <trkpt lat="44.38968" lon="6.91528">
        <ele>1930.95</ele>
        <time>2019-03-09T13:49:48Z</time>
      </trkpt>
      <trkpt lat="44.38967" lon="6.9153">
        <ele>1930.46</ele>
        <time>2019-03-09T13:49:51Z</time>
      </trkpt>
      <trkpt lat="44.38964" lon="6.91534">
        <ele>1929.5</ele>
        <time>2019-03-09T13:49:58Z</time>
      </trkpt>
      <trkpt lat="44.38963" lon="6.91538">
        <ele>1929.02</ele>
        <time>2019-03-09T13:50:14Z</time>
      </trkpt>
      <trkpt lat="44.38963" lon="6.91538">
        <ele>1929.02</ele>
        <time>2019-03-09T13:50:15Z</time>
      </trkpt>
      <trkpt lat="44.38965" lon="6.91539">
        <ele>1927.58</ele>
        <time>2019-03-09T13:50:27Z</time>
      </trkpt>
      <trkpt lat="44.38966" lon="6.91541">
        <ele>1927.1</ele>
        <time>2019-03-09T13:50:42Z</time>
      </trkpt>
      <trkpt lat="44.38968" lon="6.9154">
        <ele>1926.14</ele>
        <time>2019-03-09T13:50:59Z</time>
      </trkpt>
      <trkpt lat="44.38967" lon="6.9154">
        <ele>1926.14</ele>
        <time>2019-03-09T13:51:16Z</time>
      </trkpt>
      <trkpt lat="44.38969" lon="6.91541">
        <ele>1925.18</ele>
        <time>2019-03-09T13:51:31Z</time>
      </trkpt>
      <trkpt lat="44.38975" lon="6.91538">
        <ele>1924.22</ele>
        <time>2019-03-09T13:51:44Z</time>
      </trkpt>
      <trkpt lat="44.38981" lon="6.91539">
        <ele>1923.25</ele>
        <time>2019-03-09T13:51:57Z</time>
      </trkpt>
      <trkpt lat="44.38981" lon="6.9154">
        <ele>1923.25</ele>
        <time>2019-03-09T13:51:59Z</time>
      </trkpt>
      <trkpt lat="44.38988" lon="6.91545">
        <ele>1922.29</ele>
        <time>2019-03-09T13:52:13Z</time>
      </trkpt>
      <trkpt lat="44.3899" lon="6.91538">
        <ele>1922.29</ele>
        <time>2019-03-09T13:52:25Z</time>
      </trkpt>
      <trkpt lat="44.38992" lon="6.91538">
        <ele>1922.29</ele>
        <time>2019-03-09T13:52:40Z</time>
      </trkpt>
      <trkpt lat="44.38993" lon="6.91537">
        <ele>1921.81</ele>
        <time>2019-03-09T13:52:58Z</time>
      </trkpt>
      <trkpt lat="44.38989" lon="6.91543">
        <ele>1921.81</ele>
        <time>2019-03-09T13:53:15Z</time>
      </trkpt>
      <trkpt lat="44.38989" lon="6.91542">
        <ele>1921.81</ele>
        <time>2019-03-09T13:53:29Z</time>
      </trkpt>
      <trkpt lat="44.38995" lon="6.9154">
        <ele>1921.33</ele>
        <time>2019-03-09T13:53:42Z</time>
      </trkpt>
      <trkpt lat="44.38995" lon="6.91543">
        <ele>1921.33</ele>
        <time>2019-03-09T13:53:58Z</time>
      </trkpt>
      <trkpt lat="44.39016" lon="6.91553">
        <ele>1918.45</ele>
        <time>2019-03-09T13:54:09Z</time>
      </trkpt>
      <trkpt lat="44.39031" lon="6.91564">
        <ele>1917.01</ele>
        <time>2019-03-09T13:54:20Z</time>
      </trkpt>
      <trkpt lat="44.3905" lon="6.91582">
        <ele>1913.16</ele>
        <time>2019-03-09T13:54:26Z</time>
      </trkpt>
      <trkpt lat="44.39062" lon="6.91597">
        <ele>1913.16</ele>
        <time>2019-03-09T13:54:34Z</time>
      </trkpt>
      <trkpt lat="44.39076" lon="6.91605">
        <ele>1913.16</ele>
        <time>2019-03-09T13:54:50Z</time>
      </trkpt>
      <trkpt lat="44.39095" lon="6.91611">
        <ele>1912.68</ele>
        <time>2019-03-09T13:55:07Z</time>
      </trkpt>
      <trkpt lat="44.39126" lon="6.91619">
        <ele>1910.28</ele>
        <time>2019-03-09T13:55:22Z</time>
      </trkpt>
      <trkpt lat="44.39145" lon="6.91632">
        <ele>1908.83</ele>
        <time>2019-03-09T13:55:31Z</time>
      </trkpt>
      <trkpt lat="44.3915" lon="6.91633">
        <ele>1908.35</ele>
        <time>2019-03-09T13:55:32Z</time>
      </trkpt>
      <trkpt lat="44.39154" lon="6.91635">
        <ele>1908.35</ele>
        <time>2019-03-09T13:55:33Z</time>
      </trkpt>
      <trkpt lat="44.39159" lon="6.91639">
        <ele>1906.91</ele>
        <time>2019-03-09T13:55:34Z</time>
      </trkpt>
      <trkpt lat="44.39164" lon="6.91642">
        <ele>1905.47</ele>
        <time>2019-03-09T13:55:35Z</time>
      </trkpt>
      <trkpt lat="44.39169" lon="6.91642">
        <ele>1905.47</ele>
        <time>2019-03-09T13:55:36Z</time>
      </trkpt>
      <trkpt lat="44.39174" lon="6.91642">
        <ele>1905.47</ele>
        <time>2019-03-09T13:55:37Z</time>
      </trkpt>
      <trkpt lat="44.39184" lon="6.91638">
        <ele>1905.47</ele>
        <time>2019-03-09T13:55:40Z</time>
      </trkpt>
      <trkpt lat="44.3918" lon="6.91638">
        <ele>1905.47</ele>
        <time>2019-03-09T13:55:52Z</time>
      </trkpt>
      <trkpt lat="44.39184" lon="6.91635">
        <ele>1905.47</ele>
        <time>2019-03-09T13:55:57Z</time>
      </trkpt>
      <trkpt lat="44.39187" lon="6.9165">
        <ele>1903.07</ele>
        <time>2019-03-09T13:56:01Z</time>
      </trkpt>
      <trkpt lat="44.39192" lon="6.91653">
        <ele>1902.59</ele>
        <time>2019-03-09T13:56:02Z</time>
      </trkpt>
      <trkpt lat="44.39197" lon="6.91656">
        <ele>1901.63</ele>
        <time>2019-03-09T13:56:03Z</time>
      </trkpt>
      <trkpt lat="44.39203" lon="6.9166">
        <ele>1900.18</ele>
        <time>2019-03-09T13:56:04Z</time>
      </trkpt>
      <trkpt lat="44.39218" lon="6.91671">
        <ele>1896.82</ele>
        <time>2019-03-09T13:56:06Z</time>
      </trkpt>
      <trkpt lat="44.39262" lon="6.91717">
        <ele>1892.97</ele>
        <time>2019-03-09T13:56:13Z</time>
      </trkpt>
      <trkpt lat="44.39277" lon="6.91739">
        <ele>1892.97</ele>
        <time>2019-03-09T13:56:21Z</time>
      </trkpt>
      <trkpt lat="44.39283" lon="6.91748">
        <ele>1893.45</ele>
        <time>2019-03-09T13:56:34Z</time>
      </trkpt>
      <trkpt lat="44.39284" lon="6.9175">
        <ele>1892.97</ele>
        <time>2019-03-09T13:56:40Z</time>
      </trkpt>
      <trkpt lat="44.39285" lon="6.91751">
        <ele>1893.45</ele>
        <time>2019-03-09T13:56:41Z</time>
      </trkpt>
      <trkpt lat="44.39286" lon="6.91752">
        <ele>1892.97</ele>
        <time>2019-03-09T13:56:42Z</time>
      </trkpt>
      <trkpt lat="44.39287" lon="6.91753">
        <ele>1892.97</ele>
        <time>2019-03-09T13:56:43Z</time>
      </trkpt>
      <trkpt lat="44.39288" lon="6.91754">
        <ele>1892.97</ele>
        <time>2019-03-09T13:56:44Z</time>
      </trkpt>
      <trkpt lat="44.3929" lon="6.91755">
        <ele>1892.97</ele>
        <time>2019-03-09T13:56:45Z</time>
      </trkpt>
      <trkpt lat="44.39292" lon="6.91755">
        <ele>1892.97</ele>
        <time>2019-03-09T13:56:46Z</time>
      </trkpt>
      <trkpt lat="44.39294" lon="6.91755">
        <ele>1892.49</ele>
        <time>2019-03-09T13:56:47Z</time>
      </trkpt>
      <trkpt lat="44.39295" lon="6.91755">
        <ele>1892.49</ele>
        <time>2019-03-09T13:56:48Z</time>
      </trkpt>
      <trkpt lat="44.39315" lon="6.91759">
        <ele>1891.05</ele>
        <time>2019-03-09T13:57:03Z</time>
      </trkpt>
      <trkpt lat="44.39334" lon="6.91764">
        <ele>1890.57</ele>
        <time>2019-03-09T13:57:14Z</time>
      </trkpt>
      <trkpt lat="44.39336" lon="6.91766">
        <ele>1892.01</ele>
        <time>2019-03-09T13:57:25Z</time>
      </trkpt>
      <trkpt lat="44.39345" lon="6.91767">
        <ele>1889.13</ele>
        <time>2019-03-09T13:57:34Z</time>
      </trkpt>
      <trkpt lat="44.3935" lon="6.91772">
        <ele>1888.65</ele>
        <time>2019-03-09T13:57:36Z</time>
      </trkpt>
      <trkpt lat="44.39352" lon="6.91776">
        <ele>1886.72</ele>
        <time>2019-03-09T13:57:37Z</time>
      </trkpt>
      <trkpt lat="44.39356" lon="6.91779">
        <ele>1886.72</ele>
        <time>2019-03-09T13:57:38Z</time>
      </trkpt>
      <trkpt lat="44.39361" lon="6.91781">
        <ele>1885.28</ele>
        <time>2019-03-09T13:57:39Z</time>
      </trkpt>
      <trkpt lat="44.39366" lon="6.91783">
        <ele>1884.8</ele>
        <time>2019-03-09T13:57:40Z</time>
      </trkpt>
      <trkpt lat="44.3937" lon="6.91787">
        <ele>1884.32</ele>
        <time>2019-03-09T13:57:41Z</time>
      </trkpt>
      <trkpt lat="44.39373" lon="6.91791">
        <ele>1882.4</ele>
        <time>2019-03-09T13:57:42Z</time>
      </trkpt>
      <trkpt lat="44.39377" lon="6.91794">
        <ele>1881.92</ele>
        <time>2019-03-09T13:57:43Z</time>
      </trkpt>
      <trkpt lat="44.39381" lon="6.91795">
        <ele>1881.44</ele>
        <time>2019-03-09T13:57:44Z</time>
      </trkpt>
      <trkpt lat="44.39395" lon="6.91799">
        <ele>1879.03</ele>
        <time>2019-03-09T13:57:47Z</time>
      </trkpt>
      <trkpt lat="44.39399" lon="6.918">
        <ele>1878.55</ele>
        <time>2019-03-09T13:57:48Z</time>
      </trkpt>
      <trkpt lat="44.39403" lon="6.91802">
        <ele>1878.55</ele>
        <time>2019-03-09T13:57:49Z</time>
      </trkpt>
      <trkpt lat="44.39406" lon="6.91805">
        <ele>1877.11</ele>
        <time>2019-03-09T13:57:50Z</time>
      </trkpt>
      <trkpt lat="44.3941" lon="6.91806">
        <ele>1877.11</ele>
        <time>2019-03-09T13:57:51Z</time>
      </trkpt>
      <trkpt lat="44.39412" lon="6.91808">
        <ele>1876.63</ele>
        <time>2019-03-09T13:57:52Z</time>
      </trkpt>
      <trkpt lat="44.39414" lon="6.91811">
        <ele>1875.19</ele>
        <time>2019-03-09T13:57:53Z</time>
      </trkpt>
      <trkpt lat="44.39417" lon="6.91815">
        <ele>1874.23</ele>
        <time>2019-03-09T13:57:54Z</time>
      </trkpt>
      <trkpt lat="44.39421" lon="6.91817">
        <ele>1873.75</ele>
        <time>2019-03-09T13:57:55Z</time>
      </trkpt>
      <trkpt lat="44.39425" lon="6.91819">
        <ele>1872.79</ele>
        <time>2019-03-09T13:57:56Z</time>
      </trkpt>
      <trkpt lat="44.39428" lon="6.9182">
        <ele>1872.3</ele>
        <time>2019-03-09T13:57:57Z</time>
      </trkpt>
      <trkpt lat="44.39432" lon="6.91822">
        <ele>1871.34</ele>
        <time>2019-03-09T13:57:58Z</time>
      </trkpt>
      <trkpt lat="44.39437" lon="6.91824">
        <ele>1870.86</ele>
        <time>2019-03-09T13:57:59Z</time>
      </trkpt>
      <trkpt lat="44.39441" lon="6.91826">
        <ele>1869.9</ele>
        <time>2019-03-09T13:58:00Z</time>
      </trkpt>
      <trkpt lat="44.3947" lon="6.91843">
        <ele>1865.58</ele>
        <time>2019-03-09T13:58:06Z</time>
      </trkpt>
      <trkpt lat="44.39475" lon="6.91846">
        <ele>1864.61</ele>
        <time>2019-03-09T13:58:07Z</time>
      </trkpt>
      <trkpt lat="44.39479" lon="6.91847">
        <ele>1864.13</ele>
        <time>2019-03-09T13:58:08Z</time>
      </trkpt>
      <trkpt lat="44.39493" lon="6.91856">
        <ele>1864.13</ele>
        <time>2019-03-09T13:58:13Z</time>
      </trkpt>
      <trkpt lat="44.39493" lon="6.91863">
        <ele>1863.17</ele>
        <time>2019-03-09T13:58:14Z</time>
      </trkpt>
      <trkpt lat="44.39493" lon="6.9187">
        <ele>1860.77</ele>
        <time>2019-03-09T13:58:15Z</time>
      </trkpt>
      <trkpt lat="44.39495" lon="6.91877">
        <ele>1860.77</ele>
        <time>2019-03-09T13:58:16Z</time>
      </trkpt>
      <trkpt lat="44.39498" lon="6.91883">
        <ele>1858.85</ele>
        <time>2019-03-09T13:58:17Z</time>
      </trkpt>
      <trkpt lat="44.39501" lon="6.91887">
        <ele>1858.85</ele>
        <time>2019-03-09T13:58:18Z</time>
      </trkpt>
      <trkpt lat="44.39503" lon="6.91892">
        <ele>1856.92</ele>
        <time>2019-03-09T13:58:19Z</time>
      </trkpt>
      <trkpt lat="44.39505" lon="6.91896">
        <ele>1856.44</ele>
        <time>2019-03-09T13:58:20Z</time>
      </trkpt>
      <trkpt lat="44.39509" lon="6.91898">
        <ele>1855.48</ele>
        <time>2019-03-09T13:58:21Z</time>
      </trkpt>
      <trkpt lat="44.39513" lon="6.91899">
        <ele>1855</ele>
        <time>2019-03-09T13:58:22Z</time>
      </trkpt>
      <trkpt lat="44.39517" lon="6.91899">
        <ele>1854.04</ele>
        <time>2019-03-09T13:58:23Z</time>
      </trkpt>
      <trkpt lat="44.39522" lon="6.919">
        <ele>1853.56</ele>
        <time>2019-03-09T13:58:24Z</time>
      </trkpt>
      <trkpt lat="44.39525" lon="6.91902">
        <ele>1853.08</ele>
        <time>2019-03-09T13:58:25Z</time>
      </trkpt>
      <trkpt lat="44.39528" lon="6.91906">
        <ele>1852.12</ele>
        <time>2019-03-09T13:58:26Z</time>
      </trkpt>
      <trkpt lat="44.39531" lon="6.91911">
        <ele>1850.68</ele>
        <time>2019-03-09T13:58:27Z</time>
      </trkpt>
      <trkpt lat="44.39534" lon="6.91912">
        <ele>1850.68</ele>
        <time>2019-03-09T13:58:28Z</time>
      </trkpt>
      <trkpt lat="44.39538" lon="6.91913">
        <ele>1850.19</ele>
        <time>2019-03-09T13:58:29Z</time>
      </trkpt>
      <trkpt lat="44.39541" lon="6.91914">
        <ele>1849.71</ele>
        <time>2019-03-09T13:58:30Z</time>
      </trkpt>
      <trkpt lat="44.39547" lon="6.91913">
        <ele>1849.23</ele>
        <time>2019-03-09T13:58:39Z</time>
      </trkpt>
      <trkpt lat="44.39546" lon="6.91914">
        <ele>1849.23</ele>
        <time>2019-03-09T13:59:06Z</time>
      </trkpt>
      <trkpt lat="44.39547" lon="6.91917">
        <ele>1849.23</ele>
        <time>2019-03-09T13:59:07Z</time>
      </trkpt>
      <trkpt lat="44.39549" lon="6.91918">
        <ele>1848.75</ele>
        <time>2019-03-09T13:59:08Z</time>
      </trkpt>
      <trkpt lat="44.39551" lon="6.9192">
        <ele>1849.23</ele>
        <time>2019-03-09T13:59:09Z</time>
      </trkpt>
      <trkpt lat="44.39552" lon="6.91923">
        <ele>1847.79</ele>
        <time>2019-03-09T13:59:10Z</time>
      </trkpt>
      <trkpt lat="44.39553" lon="6.91928">
        <ele>1846.35</ele>
        <time>2019-03-09T13:59:11Z</time>
      </trkpt>
      <trkpt lat="44.39555" lon="6.91931">
        <ele>1846.35</ele>
        <time>2019-03-09T13:59:12Z</time>
      </trkpt>
      <trkpt lat="44.39559" lon="6.91933">
        <ele>1845.39</ele>
        <time>2019-03-09T13:59:13Z</time>
      </trkpt>
      <trkpt lat="44.3956" lon="6.91935">
        <ele>1844.91</ele>
        <time>2019-03-09T13:59:14Z</time>
      </trkpt>
      <trkpt lat="44.39562" lon="6.91938">
        <ele>1843.47</ele>
        <time>2019-03-09T13:59:15Z</time>
      </trkpt>
      <trkpt lat="44.39565" lon="6.91941">
        <ele>1842.5</ele>
        <time>2019-03-09T13:59:16Z</time>
      </trkpt>
      <trkpt lat="44.39568" lon="6.91941">
        <ele>1841.54</ele>
        <time>2019-03-09T13:59:17Z</time>
      </trkpt>
      <trkpt lat="44.39571" lon="6.91942">
        <ele>1841.54</ele>
        <time>2019-03-09T13:59:18Z</time>
      </trkpt>
      <trkpt lat="44.39573" lon="6.91945">
        <ele>1840.58</ele>
        <time>2019-03-09T13:59:19Z</time>
      </trkpt>
      <trkpt lat="44.39574" lon="6.91949">
        <ele>1839.14</ele>
        <time>2019-03-09T13:59:20Z</time>
      </trkpt>
      <trkpt lat="44.39577" lon="6.9195">
        <ele>1838.66</ele>
        <time>2019-03-09T13:59:21Z</time>
      </trkpt>
      <trkpt lat="44.3958" lon="6.9195">
        <ele>1838.66</ele>
        <time>2019-03-09T13:59:22Z</time>
      </trkpt>
      <trkpt lat="44.39583" lon="6.91953">
        <ele>1838.18</ele>
        <time>2019-03-09T13:59:23Z</time>
      </trkpt>
      <trkpt lat="44.39586" lon="6.91954">
        <ele>1837.7</ele>
        <time>2019-03-09T13:59:24Z</time>
      </trkpt>
      <trkpt lat="44.39589" lon="6.91954">
        <ele>1836.74</ele>
        <time>2019-03-09T13:59:25Z</time>
      </trkpt>
      <trkpt lat="44.39591" lon="6.91955">
        <ele>1836.74</ele>
        <time>2019-03-09T13:59:26Z</time>
      </trkpt>
      <trkpt lat="44.39597" lon="6.91963">
        <ele>1835.29</ele>
        <time>2019-03-09T13:59:29Z</time>
      </trkpt>
      <trkpt lat="44.39596" lon="6.9197">
        <ele>1833.37</ele>
        <time>2019-03-09T13:59:30Z</time>
      </trkpt>
      <trkpt lat="44.39596" lon="6.91977">
        <ele>1832.41</ele>
        <time>2019-03-09T13:59:31Z</time>
      </trkpt>
      <trkpt lat="44.39599" lon="6.91982">
        <ele>1831.45</ele>
        <time>2019-03-09T13:59:32Z</time>
      </trkpt>
      <trkpt lat="44.39603" lon="6.91986">
        <ele>1830.97</ele>
        <time>2019-03-09T13:59:33Z</time>
      </trkpt>
      <trkpt lat="44.39606" lon="6.9199">
        <ele>1830.01</ele>
        <time>2019-03-09T13:59:34Z</time>
      </trkpt>
      <trkpt lat="44.3961" lon="6.91993">
        <ele>1830.01</ele>
        <time>2019-03-09T13:59:35Z</time>
      </trkpt>
      <trkpt lat="44.39614" lon="6.91997">
        <ele>1828.56</ele>
        <time>2019-03-09T13:59:36Z</time>
      </trkpt>
      <trkpt lat="44.39617" lon="6.92002">
        <ele>1827.6</ele>
        <time>2019-03-09T13:59:37Z</time>
      </trkpt>
      <trkpt lat="44.39621" lon="6.92006">
        <ele>1827.6</ele>
        <time>2019-03-09T13:59:38Z</time>
      </trkpt>
      <trkpt lat="44.39625" lon="6.9201">
        <ele>1827.6</ele>
        <time>2019-03-09T13:59:39Z</time>
      </trkpt>
      <trkpt lat="44.39629" lon="6.92014">
        <ele>1826.16</ele>
        <time>2019-03-09T13:59:40Z</time>
      </trkpt>
      <trkpt lat="44.39632" lon="6.92018">
        <ele>1825.2</ele>
        <time>2019-03-09T13:59:41Z</time>
      </trkpt>
      <trkpt lat="44.39636" lon="6.92022">
        <ele>1826.16</ele>
        <time>2019-03-09T13:59:42Z</time>
      </trkpt>
      <trkpt lat="44.3964" lon="6.92026">
        <ele>1824.72</ele>
        <time>2019-03-09T13:59:43Z</time>
      </trkpt>
      <trkpt lat="44.39643" lon="6.92031">
        <ele>1823.28</ele>
        <time>2019-03-09T13:59:44Z</time>
      </trkpt>
      <trkpt lat="44.39647" lon="6.92035">
        <ele>1823.28</ele>
        <time>2019-03-09T13:59:45Z</time>
      </trkpt>
      <trkpt lat="44.39653" lon="6.92039">
        <ele>1823.28</ele>
        <time>2019-03-09T13:59:46Z</time>
      </trkpt>
      <trkpt lat="44.39669" lon="6.92055">
        <ele>1819.91</ele>
        <time>2019-03-09T13:59:51Z</time>
      </trkpt>
      <trkpt lat="44.39671" lon="6.9206">
        <ele>1819.91</ele>
        <time>2019-03-09T13:59:52Z</time>
      </trkpt>
      <trkpt lat="44.39675" lon="6.92065">
        <ele>1819.91</ele>
        <time>2019-03-09T13:59:53Z</time>
      </trkpt>
      <trkpt lat="44.39679" lon="6.9207">
        <ele>1817.51</ele>
        <time>2019-03-09T13:59:54Z</time>
      </trkpt>
      <trkpt lat="44.39685" lon="6.92074">
        <ele>1815.59</ele>
        <time>2019-03-09T13:59:55Z</time>
      </trkpt>
      <trkpt lat="44.3969" lon="6.9208">
        <ele>1813.66</ele>
        <time>2019-03-09T13:59:56Z</time>
      </trkpt>
      <trkpt lat="44.39695" lon="6.92085">
        <ele>1813.18</ele>
        <time>2019-03-09T13:59:57Z</time>
      </trkpt>
      <trkpt lat="44.397" lon="6.9209">
        <ele>1813.18</ele>
        <time>2019-03-09T13:59:58Z</time>
      </trkpt>
      <trkpt lat="44.39704" lon="6.92096">
        <ele>1810.3</ele>
        <time>2019-03-09T13:59:59Z</time>
      </trkpt>
      <trkpt lat="44.39708" lon="6.92101">
        <ele>1810.78</ele>
        <time>2019-03-09T14:00:00Z</time>
      </trkpt>
      <trkpt lat="44.39712" lon="6.92106">
        <ele>1809.34</ele>
        <time>2019-03-09T14:00:01Z</time>
      </trkpt>
      <trkpt lat="44.39714" lon="6.92112">
        <ele>1807.42</ele>
        <time>2019-03-09T14:00:02Z</time>
      </trkpt>
      <trkpt lat="44.39717" lon="6.92117">
        <ele>1807.42</ele>
        <time>2019-03-09T14:00:03Z</time>
      </trkpt>
      <trkpt lat="44.39721" lon="6.92121">
        <ele>1805.97</ele>
        <time>2019-03-09T14:00:04Z</time>
      </trkpt>
      <trkpt lat="44.39725" lon="6.92125">
        <ele>1805.49</ele>
        <time>2019-03-09T14:00:05Z</time>
      </trkpt>
      <trkpt lat="44.39728" lon="6.9213">
        <ele>1805.49</ele>
        <time>2019-03-09T14:00:06Z</time>
      </trkpt>
      <trkpt lat="44.39729" lon="6.92136">
        <ele>1804.05</ele>
        <time>2019-03-09T14:00:07Z</time>
      </trkpt>
      <trkpt lat="44.3973" lon="6.92142">
        <ele>1802.61</ele>
        <time>2019-03-09T14:00:08Z</time>
      </trkpt>
      <trkpt lat="44.39733" lon="6.92148">
        <ele>1802.61</ele>
        <time>2019-03-09T14:00:09Z</time>
      </trkpt>
      <trkpt lat="44.39736" lon="6.92152">
        <ele>1802.61</ele>
        <time>2019-03-09T14:00:10Z</time>
      </trkpt>
      <trkpt lat="44.39738" lon="6.92158">
        <ele>1801.65</ele>
        <time>2019-03-09T14:00:11Z</time>
      </trkpt>
      <trkpt lat="44.39741" lon="6.92163">
        <ele>1800.69</ele>
        <time>2019-03-09T14:00:12Z</time>
      </trkpt>
      <trkpt lat="44.39743" lon="6.9217">
        <ele>1800.21</ele>
        <time>2019-03-09T14:00:13Z</time>
      </trkpt>
      <trkpt lat="44.39745" lon="6.92178">
        <ele>1799.24</ele>
        <time>2019-03-09T14:00:14Z</time>
      </trkpt>
      <trkpt lat="44.39746" lon="6.92186">
        <ele>1798.28</ele>
        <time>2019-03-09T14:00:15Z</time>
      </trkpt>
      <trkpt lat="44.39746" lon="6.92195">
        <ele>1796.84</ele>
        <time>2019-03-09T14:00:16Z</time>
      </trkpt>
      <trkpt lat="44.39745" lon="6.92204">
        <ele>1795.88</ele>
        <time>2019-03-09T14:00:17Z</time>
      </trkpt>
      <trkpt lat="44.39746" lon="6.92213">
        <ele>1794.44</ele>
        <time>2019-03-09T14:00:18Z</time>
      </trkpt>
      <trkpt lat="44.39747" lon="6.92222">
        <ele>1793.96</ele>
        <time>2019-03-09T14:00:19Z</time>
      </trkpt>
      <trkpt lat="44.39754" lon="6.92263">
        <ele>1791.55</ele>
        <time>2019-03-09T14:00:24Z</time>
      </trkpt>
      <trkpt lat="44.39754" lon="6.9227">
        <ele>1791.07</ele>
        <time>2019-03-09T14:00:25Z</time>
      </trkpt>
      <trkpt lat="44.39753" lon="6.92284">
        <ele>1789.63</ele>
        <time>2019-03-09T14:00:27Z</time>
      </trkpt>
      <trkpt lat="44.39756" lon="6.92292">
        <ele>1789.15</ele>
        <time>2019-03-09T14:00:28Z</time>
      </trkpt>
      <trkpt lat="44.3976" lon="6.92299">
        <ele>1789.15</ele>
        <time>2019-03-09T14:00:29Z</time>
      </trkpt>
      <trkpt lat="44.39763" lon="6.92306">
        <ele>1787.71</ele>
        <time>2019-03-09T14:00:30Z</time>
      </trkpt>
      <trkpt lat="44.39763" lon="6.92313">
        <ele>1786.75</ele>
        <time>2019-03-09T14:00:31Z</time>
      </trkpt>
      <trkpt lat="44.39763" lon="6.92319">
        <ele>1785.79</ele>
        <time>2019-03-09T14:00:32Z</time>
      </trkpt>
      <trkpt lat="44.39765" lon="6.92325">
        <ele>1785.79</ele>
        <time>2019-03-09T14:00:33Z</time>
      </trkpt>
      <trkpt lat="44.39767" lon="6.92331">
        <ele>1785.31</ele>
        <time>2019-03-09T14:00:34Z</time>
      </trkpt>
      <trkpt lat="44.39768" lon="6.92337">
        <ele>1784.34</ele>
        <time>2019-03-09T14:00:35Z</time>
      </trkpt>
      <trkpt lat="44.39768" lon="6.92342">
        <ele>1783.86</ele>
        <time>2019-03-09T14:00:36Z</time>
      </trkpt>
      <trkpt lat="44.39769" lon="6.92348">
        <ele>1783.38</ele>
        <time>2019-03-09T14:00:37Z</time>
      </trkpt>
      <trkpt lat="44.39772" lon="6.92351">
        <ele>1783.38</ele>
        <time>2019-03-09T14:00:38Z</time>
      </trkpt>
      <trkpt lat="44.39775" lon="6.92356">
        <ele>1782.42</ele>
        <time>2019-03-09T14:00:39Z</time>
      </trkpt>
      <trkpt lat="44.39775" lon="6.92361">
        <ele>1781.94</ele>
        <time>2019-03-09T14:00:40Z</time>
      </trkpt>
      <trkpt lat="44.39774" lon="6.92366">
        <ele>1780.98</ele>
        <time>2019-03-09T14:00:41Z</time>
      </trkpt>
      <trkpt lat="44.39775" lon="6.92371">
        <ele>1780.98</ele>
        <time>2019-03-09T14:00:42Z</time>
      </trkpt>
      <trkpt lat="44.39777" lon="6.92377">
        <ele>1780.98</ele>
        <time>2019-03-09T14:00:43Z</time>
      </trkpt>
      <trkpt lat="44.39778" lon="6.92383">
        <ele>1780.02</ele>
        <time>2019-03-09T14:00:44Z</time>
      </trkpt>
      <trkpt lat="44.39778" lon="6.92389">
        <ele>1779.06</ele>
        <time>2019-03-09T14:00:45Z</time>
      </trkpt>
      <trkpt lat="44.39779" lon="6.92394">
        <ele>1778.58</ele>
        <time>2019-03-09T14:00:46Z</time>
      </trkpt>
      <trkpt lat="44.39781" lon="6.92399">
        <ele>1778.58</ele>
        <time>2019-03-09T14:00:47Z</time>
      </trkpt>
      <trkpt lat="44.39783" lon="6.92404">
        <ele>1778.1</ele>
        <time>2019-03-09T14:00:48Z</time>
      </trkpt>
      <trkpt lat="44.39784" lon="6.92409">
        <ele>1776.65</ele>
        <time>2019-03-09T14:00:49Z</time>
      </trkpt>
      <trkpt lat="44.39782" lon="6.92419">
        <ele>1776.17</ele>
        <time>2019-03-09T14:00:51Z</time>
      </trkpt>
      <trkpt lat="44.39788" lon="6.9245">
        <ele>1772.81</ele>
        <time>2019-03-09T14:00:57Z</time>
      </trkpt>
      <trkpt lat="44.39803" lon="6.9246">
        <ele>1771.37</ele>
        <time>2019-03-09T14:01:02Z</time>
      </trkpt>
      <trkpt lat="44.39813" lon="6.92473">
        <ele>1769.92</ele>
        <time>2019-03-09T14:01:08Z</time>
      </trkpt>
      <trkpt lat="44.39822" lon="6.92477">
        <ele>1768.48</ele>
        <time>2019-03-09T14:01:23Z</time>
      </trkpt>
      <trkpt lat="44.39822" lon="6.92477">
        <ele>1768.48</ele>
        <time>2019-03-09T14:01:37Z</time>
      </trkpt>
      <trkpt lat="44.39822" lon="6.92476">
        <ele>1768</ele>
        <time>2019-03-09T14:01:55Z</time>
      </trkpt>
      <trkpt lat="44.39823" lon="6.92479">
        <ele>1768</ele>
        <time>2019-03-09T14:02:15Z</time>
      </trkpt>
      <trkpt lat="44.39831" lon="6.9248">
        <ele>1767.04</ele>
        <time>2019-03-09T14:02:30Z</time>
      </trkpt>
      <trkpt lat="44.39832" lon="6.92483">
        <ele>1766.08</ele>
        <time>2019-03-09T14:02:44Z</time>
      </trkpt>
      <trkpt lat="44.39837" lon="6.92485">
        <ele>1765.6</ele>
        <time>2019-03-09T14:03:03Z</time>
      </trkpt>
      <trkpt lat="44.39843" lon="6.9248">
        <ele>1766.08</ele>
        <time>2019-03-09T14:03:13Z</time>
      </trkpt>
      <trkpt lat="44.39847" lon="6.92482">
        <ele>1768.48</ele>
        <time>2019-03-09T14:03:27Z</time>
      </trkpt>
      <trkpt lat="44.39857" lon="6.9249">
        <ele>1767.52</ele>
        <time>2019-03-09T14:03:41Z</time>
      </trkpt>
      <trkpt lat="44.39868" lon="6.92498">
        <ele>1767.04</ele>
        <time>2019-03-09T14:03:56Z</time>
      </trkpt>
      <trkpt lat="44.3987" lon="6.925">
        <ele>1766.56</ele>
        <time>2019-03-09T14:04:08Z</time>
      </trkpt>
      <trkpt lat="44.3987" lon="6.925">
        <ele>1767.04</ele>
        <time>2019-03-09T14:04:28Z</time>
      </trkpt>
      <trkpt lat="44.39872" lon="6.92503">
        <ele>1767.04</ele>
        <time>2019-03-09T14:04:52Z</time>
      </trkpt>
      <trkpt lat="44.3987" lon="6.92507">
        <ele>1767.04</ele>
        <time>2019-03-09T14:05:12Z</time>
      </trkpt>
      <trkpt lat="44.39871" lon="6.92511">
        <ele>1766.56</ele>
        <time>2019-03-09T14:05:40Z</time>
      </trkpt>
      <trkpt lat="44.3987" lon="6.92507">
        <ele>1766.56</ele>
        <time>2019-03-09T14:05:55Z</time>
      </trkpt>
      <trkpt lat="44.39871" lon="6.92509">
        <ele>1766.56</ele>
        <time>2019-03-09T14:06:06Z</time>
      </trkpt>
      <trkpt lat="44.39871" lon="6.92512">
        <ele>1766.56</ele>
        <time>2019-03-09T14:06:08Z</time>
      </trkpt>
      <trkpt lat="44.39861" lon="6.92544">
        <ele>1763.68</ele>
        <time>2019-03-09T14:06:20Z</time>
      </trkpt>
      <trkpt lat="44.39867" lon="6.92567">
        <ele>1761.27</ele>
        <time>2019-03-09T14:06:27Z</time>
      </trkpt>
      <trkpt lat="44.3987" lon="6.92567">
        <ele>1761.27</ele>
        <time>2019-03-09T14:06:28Z</time>
      </trkpt>
      <trkpt lat="44.39874" lon="6.92571">
        <ele>1761.27</ele>
        <time>2019-03-09T14:06:37Z</time>
      </trkpt>
      <trkpt lat="44.39874" lon="6.92577">
        <ele>1760.79</ele>
        <time>2019-03-09T14:06:51Z</time>
      </trkpt>
      <trkpt lat="44.3988" lon="6.9258">
        <ele>1760.79</ele>
        <time>2019-03-09T14:07:04Z</time>
      </trkpt>
      <trkpt lat="44.3988" lon="6.92583">
        <ele>1761.27</ele>
        <time>2019-03-09T14:07:06Z</time>
      </trkpt>
      <trkpt lat="44.39878" lon="6.92599">
        <ele>1760.79</ele>
        <time>2019-03-09T14:07:13Z</time>
      </trkpt>
      <trkpt lat="44.39872" lon="6.92613">
        <ele>1761.27</ele>
        <time>2019-03-09T14:07:26Z</time>
      </trkpt>
      <trkpt lat="44.3987" lon="6.9262">
        <ele>1761.27</ele>
        <time>2019-03-09T14:07:40Z</time>
      </trkpt>
      <trkpt lat="44.39872" lon="6.92617">
        <ele>1760.79</ele>
        <time>2019-03-09T14:07:54Z</time>
      </trkpt>
      <trkpt lat="44.39873" lon="6.9262">
        <ele>1761.27</ele>
        <time>2019-03-09T14:08:07Z</time>
      </trkpt>
      <trkpt lat="44.3987" lon="6.92625">
        <ele>1760.79</ele>
        <time>2019-03-09T14:08:27Z</time>
      </trkpt>
      <trkpt lat="44.39869" lon="6.92632">
        <ele>1761.27</ele>
        <time>2019-03-09T14:08:33Z</time>
      </trkpt>
      <trkpt lat="44.39869" lon="6.92642">
        <ele>1760.79</ele>
        <time>2019-03-09T14:08:38Z</time>
      </trkpt>
      <trkpt lat="44.3987" lon="6.92665">
        <ele>1760.31</ele>
        <time>2019-03-09T14:08:55Z</time>
      </trkpt>
      <trkpt lat="44.39867" lon="6.92673">
        <ele>1760.31</ele>
        <time>2019-03-09T14:09:01Z</time>
      </trkpt>
      <trkpt lat="44.39865" lon="6.92675">
        <ele>1760.31</ele>
        <time>2019-03-09T14:09:03Z</time>
      </trkpt>
      <trkpt lat="44.39854" lon="6.92697">
        <ele>1758.87</ele>
        <time>2019-03-09T14:09:21Z</time>
      </trkpt>
      <trkpt lat="44.39854" lon="6.92702">
        <ele>1758.87</ele>
        <time>2019-03-09T14:09:37Z</time>
      </trkpt>
      <trkpt lat="44.39854" lon="6.92703">
        <ele>1758.39</ele>
        <time>2019-03-09T14:09:50Z</time>
      </trkpt>
      <trkpt lat="44.39852" lon="6.92707">
        <ele>1757.91</ele>
        <time>2019-03-09T14:10:03Z</time>
      </trkpt>
      <trkpt lat="44.39849" lon="6.92704">
        <ele>1757.91</ele>
        <time>2019-03-09T14:10:16Z</time>
      </trkpt>
      <trkpt lat="44.3985" lon="6.92704">
        <ele>1757.91</ele>
        <time>2019-03-09T14:10:22Z</time>
      </trkpt>
      <trkpt lat="44.39849" lon="6.92708">
        <ele>1757.91</ele>
        <time>2019-03-09T14:10:33Z</time>
      </trkpt>
      <trkpt lat="44.3985" lon="6.9271">
        <ele>1757.91</ele>
        <time>2019-03-09T14:10:53Z</time>
      </trkpt>
      <trkpt lat="44.39851" lon="6.92705">
        <ele>1758.87</ele>
        <time>2019-03-09T14:11:06Z</time>
      </trkpt>
      <trkpt lat="44.39847" lon="6.92703">
        <ele>1756.95</ele>
        <time>2019-03-09T14:11:20Z</time>
      </trkpt>
      <trkpt lat="44.39847" lon="6.92705">
        <ele>1757.91</ele>
        <time>2019-03-09T14:11:47Z</time>
      </trkpt>
      <trkpt lat="44.39849" lon="6.92706">
        <ele>1757.91</ele>
        <time>2019-03-09T14:11:59Z</time>
      </trkpt>
    </trkseg>
  </trk>
</gpx>